<?xml version="1.0" encoding="UTF-8" standalone="no" ?>
<gpx xmlns="http://www.topografix.com/GPX/1/1" xmlns:xsi="http://www.w3.org/2001/XMLSchema-instance" xsi:schemaLocation="http://www.topografix.com/GPX/1/1 http://www.topografix.com/GPX/1/1/gpx.xsd" version="1.1" creator="VisuGPX - https://www.visugpx.com">
  <metadata>
    <name>Bizkarzun</name>
    <desc><![CDATA[massif de bizkarzun]]></desc>
  </metadata>
  <trk>
    <name><![CDATA[18-AOU-12 10:48:03]]></name>
    <trkseg>
      <trkpt lat="43.34697" lon="-1.61788">
        <ele>9.27</ele>
        <time>2012-08-18T05:58:11Z</time>
      </trkpt>
      <trkpt lat="43.34697" lon="-1.61788">
        <ele>10.71</ele>
        <time>2012-08-18T05:58:14Z</time>
      </trkpt>
      <trkpt lat="43.34696" lon="-1.61789">
        <ele>9.27</ele>
        <time>2012-08-18T05:58:17Z</time>
      </trkpt>
      <trkpt lat="43.34696" lon="-1.61788">
        <ele>13.12</ele>
        <time>2012-08-18T05:58:35Z</time>
      </trkpt>
      <trkpt lat="43.34697" lon="-1.61788">
        <ele>10.23</ele>
        <time>2012-08-18T05:59:04Z</time>
      </trkpt>
      <trkpt lat="43.34697" lon="-1.61788">
        <ele>10.71</ele>
        <time>2012-08-18T05:59:16Z</time>
      </trkpt>
      <trkpt lat="43.34697" lon="-1.61787">
        <ele>1.58</ele>
        <time>2012-08-18T05:59:33Z</time>
      </trkpt>
      <trkpt lat="43.34697" lon="-1.61787">
        <ele>18.88</ele>
        <time>2012-08-18T05:59:34Z</time>
      </trkpt>
      <trkpt lat="43.34697" lon="-1.61788">
        <ele>11.19</ele>
        <time>2012-08-18T05:59:35Z</time>
      </trkpt>
      <trkpt lat="43.34697" lon="-1.61787">
        <ele>6.87</ele>
        <time>2012-08-18T05:59:39Z</time>
      </trkpt>
      <trkpt lat="43.34697" lon="-1.61787">
        <ele>16.48</ele>
        <time>2012-08-18T05:59:41Z</time>
      </trkpt>
      <trkpt lat="43.34697" lon="-1.61788">
        <ele>10.71</ele>
        <time>2012-08-18T05:59:42Z</time>
      </trkpt>
      <trkpt lat="43.34697" lon="-1.61788">
        <ele>16</ele>
        <time>2012-08-18T05:59:48Z</time>
      </trkpt>
      <trkpt lat="43.34697" lon="-1.61788">
        <ele>10.71</ele>
        <time>2012-08-18T05:59:49Z</time>
      </trkpt>
      <trkpt lat="43.34698" lon="-1.61787">
        <ele>9.27</ele>
        <time>2012-08-18T05:59:52Z</time>
      </trkpt>
      <trkpt lat="43.34698" lon="-1.61788">
        <ele>10.71</ele>
        <time>2012-08-18T05:59:54Z</time>
      </trkpt>
      <trkpt lat="43.34698" lon="-1.61788">
        <ele>10.23</ele>
        <time>2012-08-18T06:00:01Z</time>
      </trkpt>
      <trkpt lat="43.34686" lon="-1.61778">
        <ele>10.71</ele>
        <time>2012-08-18T06:00:10Z</time>
      </trkpt>
      <trkpt lat="43.34682" lon="-1.61772">
        <ele>10.71</ele>
        <time>2012-08-18T06:00:14Z</time>
      </trkpt>
      <trkpt lat="43.3465" lon="-1.61737">
        <ele>11.67</ele>
        <time>2012-08-18T06:00:32Z</time>
      </trkpt>
      <trkpt lat="43.34649" lon="-1.61734">
        <ele>11.19</ele>
        <time>2012-08-18T06:00:33Z</time>
      </trkpt>
      <trkpt lat="43.3462" lon="-1.61724">
        <ele>11.67</ele>
        <time>2012-08-18T06:00:45Z</time>
      </trkpt>
      <trkpt lat="43.34613" lon="-1.61729">
        <ele>11.67</ele>
        <time>2012-08-18T06:00:48Z</time>
      </trkpt>
      <trkpt lat="43.346" lon="-1.61784">
        <ele>10.71</ele>
        <time>2012-08-18T06:01:01Z</time>
      </trkpt>
      <trkpt lat="43.34588" lon="-1.61845">
        <ele>11.19</ele>
        <time>2012-08-18T06:01:14Z</time>
      </trkpt>
      <trkpt lat="43.34582" lon="-1.61906">
        <ele>13.12</ele>
        <time>2012-08-18T06:01:29Z</time>
      </trkpt>
      <trkpt lat="43.34573" lon="-1.61959">
        <ele>12.15</ele>
        <time>2012-08-18T06:01:41Z</time>
      </trkpt>
      <trkpt lat="43.3457" lon="-1.61962">
        <ele>12.15</ele>
        <time>2012-08-18T06:01:42Z</time>
      </trkpt>
      <trkpt lat="43.34566" lon="-1.61962">
        <ele>12.15</ele>
        <time>2012-08-18T06:01:43Z</time>
      </trkpt>
      <trkpt lat="43.34563" lon="-1.6196">
        <ele>12.15</ele>
        <time>2012-08-18T06:01:44Z</time>
      </trkpt>
      <trkpt lat="43.3456" lon="-1.61958">
        <ele>12.63</ele>
        <time>2012-08-18T06:01:45Z</time>
      </trkpt>
      <trkpt lat="43.34517" lon="-1.61937">
        <ele>13.12</ele>
        <time>2012-08-18T06:02:01Z</time>
      </trkpt>
      <trkpt lat="43.34477" lon="-1.61924">
        <ele>14.56</ele>
        <time>2012-08-18T06:02:15Z</time>
      </trkpt>
      <trkpt lat="43.34428" lon="-1.61926">
        <ele>17.44</ele>
        <time>2012-08-18T06:02:34Z</time>
      </trkpt>
      <trkpt lat="43.34405" lon="-1.61928">
        <ele>19.36</ele>
        <time>2012-08-18T06:02:47Z</time>
      </trkpt>
      <trkpt lat="43.34393" lon="-1.61935">
        <ele>20.81</ele>
        <time>2012-08-18T06:02:54Z</time>
      </trkpt>
      <trkpt lat="43.34392" lon="-1.61937">
        <ele>21.29</ele>
        <time>2012-08-18T06:02:55Z</time>
      </trkpt>
      <trkpt lat="43.34392" lon="-1.6194">
        <ele>21.29</ele>
        <time>2012-08-18T06:02:56Z</time>
      </trkpt>
      <trkpt lat="43.34392" lon="-1.61943">
        <ele>21.77</ele>
        <time>2012-08-18T06:03:08Z</time>
      </trkpt>
      <trkpt lat="43.34392" lon="-1.61943">
        <ele>16.48</ele>
        <time>2012-08-18T06:03:21Z</time>
      </trkpt>
      <trkpt lat="43.34392" lon="-1.61942">
        <ele>21.77</ele>
        <time>2012-08-18T06:03:22Z</time>
      </trkpt>
      <trkpt lat="43.34392" lon="-1.61942">
        <ele>21.77</ele>
        <time>2012-08-18T06:03:34Z</time>
      </trkpt>
      <trkpt lat="43.34378" lon="-1.61938">
        <ele>22.25</ele>
        <time>2012-08-18T06:03:43Z</time>
      </trkpt>
      <trkpt lat="43.34373" lon="-1.61934">
        <ele>22.73</ele>
        <time>2012-08-18T06:03:46Z</time>
      </trkpt>
      <trkpt lat="43.34347" lon="-1.61938">
        <ele>24.65</ele>
        <time>2012-08-18T06:04:00Z</time>
      </trkpt>
      <trkpt lat="43.34343" lon="-1.61929">
        <ele>25.61</ele>
        <time>2012-08-18T06:04:11Z</time>
      </trkpt>
      <trkpt lat="43.34337" lon="-1.61902">
        <ele>25.61</ele>
        <time>2012-08-18T06:04:22Z</time>
      </trkpt>
      <trkpt lat="43.3433" lon="-1.61887">
        <ele>26.09</ele>
        <time>2012-08-18T06:04:30Z</time>
      </trkpt>
      <trkpt lat="43.34328" lon="-1.61879">
        <ele>25.61</ele>
        <time>2012-08-18T06:04:35Z</time>
      </trkpt>
      <trkpt lat="43.34316" lon="-1.61868">
        <ele>25.61</ele>
        <time>2012-08-18T06:04:42Z</time>
      </trkpt>
      <trkpt lat="43.34312" lon="-1.61866">
        <ele>25.61</ele>
        <time>2012-08-18T06:04:54Z</time>
      </trkpt>
      <trkpt lat="43.34312" lon="-1.61866">
        <ele>25.61</ele>
        <time>2012-08-18T06:04:55Z</time>
      </trkpt>
      <trkpt lat="43.34301" lon="-1.61859">
        <ele>25.61</ele>
        <time>2012-08-18T06:05:08Z</time>
      </trkpt>
      <trkpt lat="43.34267" lon="-1.61839">
        <ele>26.09</ele>
        <time>2012-08-18T06:05:21Z</time>
      </trkpt>
      <trkpt lat="43.34232" lon="-1.61821">
        <ele>26.57</ele>
        <time>2012-08-18T06:05:34Z</time>
      </trkpt>
      <trkpt lat="43.34187" lon="-1.61799">
        <ele>28.02</ele>
        <time>2012-08-18T06:05:51Z</time>
      </trkpt>
      <trkpt lat="43.34138" lon="-1.61787">
        <ele>28.5</ele>
        <time>2012-08-18T06:06:08Z</time>
      </trkpt>
      <trkpt lat="43.3409" lon="-1.61771">
        <ele>28.98</ele>
        <time>2012-08-18T06:06:24Z</time>
      </trkpt>
      <trkpt lat="43.34041" lon="-1.61752">
        <ele>29.46</ele>
        <time>2012-08-18T06:06:39Z</time>
      </trkpt>
      <trkpt lat="43.33994" lon="-1.61723">
        <ele>29.94</ele>
        <time>2012-08-18T06:06:52Z</time>
      </trkpt>
      <trkpt lat="43.33932" lon="-1.61713">
        <ele>30.42</ele>
        <time>2012-08-18T06:07:08Z</time>
      </trkpt>
      <trkpt lat="43.33881" lon="-1.617">
        <ele>32.82</ele>
        <time>2012-08-18T06:07:24Z</time>
      </trkpt>
      <trkpt lat="43.33837" lon="-1.617">
        <ele>35.23</ele>
        <time>2012-08-18T06:07:40Z</time>
      </trkpt>
      <trkpt lat="43.33811" lon="-1.61702">
        <ele>37.15</ele>
        <time>2012-08-18T06:07:52Z</time>
      </trkpt>
      <trkpt lat="43.33784" lon="-1.61709">
        <ele>39.07</ele>
        <time>2012-08-18T06:08:03Z</time>
      </trkpt>
      <trkpt lat="43.33755" lon="-1.61717">
        <ele>40.03</ele>
        <time>2012-08-18T06:08:16Z</time>
      </trkpt>
      <trkpt lat="43.33721" lon="-1.61713">
        <ele>41.95</ele>
        <time>2012-08-18T06:08:29Z</time>
      </trkpt>
      <trkpt lat="43.33672" lon="-1.61704">
        <ele>40.99</ele>
        <time>2012-08-18T06:08:42Z</time>
      </trkpt>
      <trkpt lat="43.33623" lon="-1.61684">
        <ele>40.03</ele>
        <time>2012-08-18T06:08:55Z</time>
      </trkpt>
      <trkpt lat="43.33611" lon="-1.61674">
        <ele>40.51</ele>
        <time>2012-08-18T06:08:58Z</time>
      </trkpt>
      <trkpt lat="43.33572" lon="-1.61631">
        <ele>42.44</ele>
        <time>2012-08-18T06:09:11Z</time>
      </trkpt>
      <trkpt lat="43.33541" lon="-1.61613">
        <ele>45.32</ele>
        <time>2012-08-18T06:09:23Z</time>
      </trkpt>
      <trkpt lat="43.33513" lon="-1.61595">
        <ele>45.8</ele>
        <time>2012-08-18T06:09:34Z</time>
      </trkpt>
      <trkpt lat="43.33469" lon="-1.61558">
        <ele>48.2</ele>
        <time>2012-08-18T06:09:51Z</time>
      </trkpt>
      <trkpt lat="43.3343" lon="-1.61523">
        <ele>50.13</ele>
        <time>2012-08-18T06:10:09Z</time>
      </trkpt>
      <trkpt lat="43.33402" lon="-1.61495">
        <ele>53.01</ele>
        <time>2012-08-18T06:10:24Z</time>
      </trkpt>
      <trkpt lat="43.33381" lon="-1.61457">
        <ele>55.41</ele>
        <time>2012-08-18T06:10:40Z</time>
      </trkpt>
      <trkpt lat="43.33358" lon="-1.61441">
        <ele>58.3</ele>
        <time>2012-08-18T06:10:54Z</time>
      </trkpt>
      <trkpt lat="43.33325" lon="-1.61421">
        <ele>60.22</ele>
        <time>2012-08-18T06:11:13Z</time>
      </trkpt>
      <trkpt lat="43.33303" lon="-1.61402">
        <ele>62.14</ele>
        <time>2012-08-18T06:11:28Z</time>
      </trkpt>
      <trkpt lat="43.33281" lon="-1.61392">
        <ele>65.03</ele>
        <time>2012-08-18T06:11:40Z</time>
      </trkpt>
      <trkpt lat="43.33258" lon="-1.61382">
        <ele>66.95</ele>
        <time>2012-08-18T06:11:54Z</time>
      </trkpt>
      <trkpt lat="43.33243" lon="-1.61375">
        <ele>68.87</ele>
        <time>2012-08-18T06:12:05Z</time>
      </trkpt>
      <trkpt lat="43.33232" lon="-1.6137">
        <ele>70.31</ele>
        <time>2012-08-18T06:12:10Z</time>
      </trkpt>
      <trkpt lat="43.33231" lon="-1.61368">
        <ele>69.83</ele>
        <time>2012-08-18T06:12:11Z</time>
      </trkpt>
      <trkpt lat="43.33223" lon="-1.61359">
        <ele>71.76</ele>
        <time>2012-08-18T06:12:20Z</time>
      </trkpt>
      <trkpt lat="43.33222" lon="-1.61358">
        <ele>71.76</ele>
        <time>2012-08-18T06:12:21Z</time>
      </trkpt>
      <trkpt lat="43.33215" lon="-1.61353">
        <ele>72.24</ele>
        <time>2012-08-18T06:12:26Z</time>
      </trkpt>
      <trkpt lat="43.33198" lon="-1.61342">
        <ele>74.64</ele>
        <time>2012-08-18T06:12:39Z</time>
      </trkpt>
      <trkpt lat="43.33197" lon="-1.61341">
        <ele>75.12</ele>
        <time>2012-08-18T06:12:40Z</time>
      </trkpt>
      <trkpt lat="43.33195" lon="-1.61339">
        <ele>75.6</ele>
        <time>2012-08-18T06:12:42Z</time>
      </trkpt>
      <trkpt lat="43.33193" lon="-1.61339">
        <ele>76.08</ele>
        <time>2012-08-18T06:12:43Z</time>
      </trkpt>
      <trkpt lat="43.33184" lon="-1.61336">
        <ele>78</ele>
        <time>2012-08-18T06:12:51Z</time>
      </trkpt>
      <trkpt lat="43.3317" lon="-1.61327">
        <ele>81.37</ele>
        <time>2012-08-18T06:13:05Z</time>
      </trkpt>
      <trkpt lat="43.33166" lon="-1.61322">
        <ele>82.33</ele>
        <time>2012-08-18T06:13:10Z</time>
      </trkpt>
      <trkpt lat="43.33164" lon="-1.61315">
        <ele>82.81</ele>
        <time>2012-08-18T06:13:15Z</time>
      </trkpt>
      <trkpt lat="43.33165" lon="-1.61313">
        <ele>82.81</ele>
        <time>2012-08-18T06:13:16Z</time>
      </trkpt>
      <trkpt lat="43.33163" lon="-1.61308">
        <ele>84.25</ele>
        <time>2012-08-18T06:13:20Z</time>
      </trkpt>
      <trkpt lat="43.33162" lon="-1.61304">
        <ele>84.25</ele>
        <time>2012-08-18T06:13:24Z</time>
      </trkpt>
      <trkpt lat="43.33161" lon="-1.61303">
        <ele>84.25</ele>
        <time>2012-08-18T06:13:25Z</time>
      </trkpt>
      <trkpt lat="43.3316" lon="-1.61299">
        <ele>85.21</ele>
        <time>2012-08-18T06:13:28Z</time>
      </trkpt>
      <trkpt lat="43.33154" lon="-1.61282">
        <ele>87.62</ele>
        <time>2012-08-18T06:13:41Z</time>
      </trkpt>
      <trkpt lat="43.33155" lon="-1.61262">
        <ele>90.02</ele>
        <time>2012-08-18T06:13:54Z</time>
      </trkpt>
      <trkpt lat="43.33154" lon="-1.61257">
        <ele>91.46</ele>
        <time>2012-08-18T06:13:57Z</time>
      </trkpt>
      <trkpt lat="43.33154" lon="-1.61255">
        <ele>91.46</ele>
        <time>2012-08-18T06:13:58Z</time>
      </trkpt>
      <trkpt lat="43.33163" lon="-1.61226">
        <ele>92.9</ele>
        <time>2012-08-18T06:14:13Z</time>
      </trkpt>
      <trkpt lat="43.33172" lon="-1.61187">
        <ele>94.83</ele>
        <time>2012-08-18T06:14:31Z</time>
      </trkpt>
      <trkpt lat="43.33177" lon="-1.61142">
        <ele>96.27</ele>
        <time>2012-08-18T06:14:48Z</time>
      </trkpt>
      <trkpt lat="43.33191" lon="-1.61099">
        <ele>97.71</ele>
        <time>2012-08-18T06:15:04Z</time>
      </trkpt>
      <trkpt lat="43.33208" lon="-1.61055">
        <ele>100.11</ele>
        <time>2012-08-18T06:15:20Z</time>
      </trkpt>
      <trkpt lat="43.33212" lon="-1.61021">
        <ele>100.11</ele>
        <time>2012-08-18T06:15:31Z</time>
      </trkpt>
      <trkpt lat="43.33206" lon="-1.60992">
        <ele>102.04</ele>
        <time>2012-08-18T06:15:40Z</time>
      </trkpt>
      <trkpt lat="43.33202" lon="-1.60968">
        <ele>103</ele>
        <time>2012-08-18T06:15:48Z</time>
      </trkpt>
      <trkpt lat="43.33198" lon="-1.60955">
        <ele>103.48</ele>
        <time>2012-08-18T06:15:53Z</time>
      </trkpt>
      <trkpt lat="43.3319" lon="-1.60937">
        <ele>104.44</ele>
        <time>2012-08-18T06:16:00Z</time>
      </trkpt>
      <trkpt lat="43.33178" lon="-1.6091">
        <ele>104.92</ele>
        <time>2012-08-18T06:16:10Z</time>
      </trkpt>
      <trkpt lat="43.33149" lon="-1.60885">
        <ele>107.32</ele>
        <time>2012-08-18T06:16:25Z</time>
      </trkpt>
      <trkpt lat="43.33125" lon="-1.60881">
        <ele>108.29</ele>
        <time>2012-08-18T06:16:36Z</time>
      </trkpt>
      <trkpt lat="43.33103" lon="-1.60876">
        <ele>108.77</ele>
        <time>2012-08-18T06:16:46Z</time>
      </trkpt>
      <trkpt lat="43.33081" lon="-1.6086">
        <ele>110.21</ele>
        <time>2012-08-18T06:16:57Z</time>
      </trkpt>
      <trkpt lat="43.33073" lon="-1.60842">
        <ele>110.69</ele>
        <time>2012-08-18T06:17:04Z</time>
      </trkpt>
      <trkpt lat="43.33069" lon="-1.60831">
        <ele>112.13</ele>
        <time>2012-08-18T06:17:08Z</time>
      </trkpt>
      <trkpt lat="43.33066" lon="-1.6082">
        <ele>112.13</ele>
        <time>2012-08-18T06:17:12Z</time>
      </trkpt>
      <trkpt lat="43.33075" lon="-1.60796">
        <ele>113.57</ele>
        <time>2012-08-18T06:17:21Z</time>
      </trkpt>
      <trkpt lat="43.3308" lon="-1.60773">
        <ele>114.53</ele>
        <time>2012-08-18T06:17:29Z</time>
      </trkpt>
      <trkpt lat="43.33092" lon="-1.60736">
        <ele>115.01</ele>
        <time>2012-08-18T06:17:41Z</time>
      </trkpt>
      <trkpt lat="43.3309" lon="-1.60703">
        <ele>116.46</ele>
        <time>2012-08-18T06:17:52Z</time>
      </trkpt>
      <trkpt lat="43.3308" lon="-1.60665">
        <ele>118.38</ele>
        <time>2012-08-18T06:18:06Z</time>
      </trkpt>
      <trkpt lat="43.33069" lon="-1.60632">
        <ele>120.3</ele>
        <time>2012-08-18T06:18:19Z</time>
      </trkpt>
      <trkpt lat="43.33055" lon="-1.60603">
        <ele>121.26</ele>
        <time>2012-08-18T06:18:31Z</time>
      </trkpt>
      <trkpt lat="43.33052" lon="-1.60589">
        <ele>122.22</ele>
        <time>2012-08-18T06:18:37Z</time>
      </trkpt>
      <trkpt lat="43.33044" lon="-1.60575">
        <ele>123.19</ele>
        <time>2012-08-18T06:18:43Z</time>
      </trkpt>
      <trkpt lat="43.3303" lon="-1.60557">
        <ele>124.15</ele>
        <time>2012-08-18T06:18:53Z</time>
      </trkpt>
      <trkpt lat="43.3302" lon="-1.60541">
        <ele>125.11</ele>
        <time>2012-08-18T06:19:00Z</time>
      </trkpt>
      <trkpt lat="43.33005" lon="-1.60504">
        <ele>126.55</ele>
        <time>2012-08-18T06:19:14Z</time>
      </trkpt>
      <trkpt lat="43.32994" lon="-1.60487">
        <ele>127.51</ele>
        <time>2012-08-18T06:19:21Z</time>
      </trkpt>
      <trkpt lat="43.32989" lon="-1.60471">
        <ele>127.99</ele>
        <time>2012-08-18T06:19:27Z</time>
      </trkpt>
      <trkpt lat="43.32973" lon="-1.60441">
        <ele>129.43</ele>
        <time>2012-08-18T06:19:40Z</time>
      </trkpt>
      <trkpt lat="43.32958" lon="-1.60414">
        <ele>130.88</ele>
        <time>2012-08-18T06:19:52Z</time>
      </trkpt>
      <trkpt lat="43.32932" lon="-1.60389">
        <ele>133.28</ele>
        <time>2012-08-18T06:20:07Z</time>
      </trkpt>
      <trkpt lat="43.32906" lon="-1.60378">
        <ele>133.76</ele>
        <time>2012-08-18T06:20:19Z</time>
      </trkpt>
      <trkpt lat="43.32879" lon="-1.60366">
        <ele>135.2</ele>
        <time>2012-08-18T06:20:31Z</time>
      </trkpt>
      <trkpt lat="43.32848" lon="-1.60367">
        <ele>137.13</ele>
        <time>2012-08-18T06:20:44Z</time>
      </trkpt>
      <trkpt lat="43.32821" lon="-1.60373">
        <ele>138.09</ele>
        <time>2012-08-18T06:20:57Z</time>
      </trkpt>
      <trkpt lat="43.32816" lon="-1.60373">
        <ele>139.05</ele>
        <time>2012-08-18T06:21:00Z</time>
      </trkpt>
      <trkpt lat="43.32795" lon="-1.60383">
        <ele>140.01</ele>
        <time>2012-08-18T06:21:12Z</time>
      </trkpt>
      <trkpt lat="43.32768" lon="-1.6039">
        <ele>141.93</ele>
        <time>2012-08-18T06:21:25Z</time>
      </trkpt>
      <trkpt lat="43.32748" lon="-1.60388">
        <ele>142.41</ele>
        <time>2012-08-18T06:21:36Z</time>
      </trkpt>
      <trkpt lat="43.32744" lon="-1.60386">
        <ele>142.89</ele>
        <time>2012-08-18T06:21:38Z</time>
      </trkpt>
      <trkpt lat="43.32723" lon="-1.60368">
        <ele>144.34</ele>
        <time>2012-08-18T06:21:50Z</time>
      </trkpt>
      <trkpt lat="43.32721" lon="-1.60366">
        <ele>144.82</ele>
        <time>2012-08-18T06:21:52Z</time>
      </trkpt>
      <trkpt lat="43.32702" lon="-1.60351">
        <ele>145.78</ele>
        <time>2012-08-18T06:22:04Z</time>
      </trkpt>
      <trkpt lat="43.32687" lon="-1.60334">
        <ele>146.74</ele>
        <time>2012-08-18T06:22:14Z</time>
      </trkpt>
      <trkpt lat="43.32688" lon="-1.60333">
        <ele>147.22</ele>
        <time>2012-08-18T06:22:15Z</time>
      </trkpt>
      <trkpt lat="43.32686" lon="-1.6033">
        <ele>146.74</ele>
        <time>2012-08-18T06:22:16Z</time>
      </trkpt>
      <trkpt lat="43.32663" lon="-1.60321">
        <ele>149.14</ele>
        <time>2012-08-18T06:22:27Z</time>
      </trkpt>
      <trkpt lat="43.32633" lon="-1.60316">
        <ele>150.1</ele>
        <time>2012-08-18T06:22:40Z</time>
      </trkpt>
      <trkpt lat="43.32627" lon="-1.60317">
        <ele>151.06</ele>
        <time>2012-08-18T06:22:44Z</time>
      </trkpt>
      <trkpt lat="43.32607" lon="-1.60325">
        <ele>152.03</ele>
        <time>2012-08-18T06:22:55Z</time>
      </trkpt>
      <trkpt lat="43.32586" lon="-1.60331">
        <ele>152.99</ele>
        <time>2012-08-18T06:23:04Z</time>
      </trkpt>
      <trkpt lat="43.32575" lon="-1.60327">
        <ele>154.43</ele>
        <time>2012-08-18T06:23:11Z</time>
      </trkpt>
      <trkpt lat="43.32564" lon="-1.60322">
        <ele>154.91</ele>
        <time>2012-08-18T06:23:16Z</time>
      </trkpt>
      <trkpt lat="43.32539" lon="-1.60288">
        <ele>156.35</ele>
        <time>2012-08-18T06:23:30Z</time>
      </trkpt>
      <trkpt lat="43.3254" lon="-1.60238">
        <ele>158.27</ele>
        <time>2012-08-18T06:23:46Z</time>
      </trkpt>
      <trkpt lat="43.32553" lon="-1.60191">
        <ele>159.72</ele>
        <time>2012-08-18T06:24:01Z</time>
      </trkpt>
      <trkpt lat="43.32554" lon="-1.60188">
        <ele>159.72</ele>
        <time>2012-08-18T06:24:02Z</time>
      </trkpt>
      <trkpt lat="43.32559" lon="-1.60166">
        <ele>159.24</ele>
        <time>2012-08-18T06:24:07Z</time>
      </trkpt>
      <trkpt lat="43.32578" lon="-1.6012">
        <ele>159.24</ele>
        <time>2012-08-18T06:24:20Z</time>
      </trkpt>
      <trkpt lat="43.32582" lon="-1.60117">
        <ele>158.75</ele>
        <time>2012-08-18T06:24:21Z</time>
      </trkpt>
      <trkpt lat="43.32586" lon="-1.60114">
        <ele>158.75</ele>
        <time>2012-08-18T06:24:22Z</time>
      </trkpt>
      <trkpt lat="43.32602" lon="-1.60102">
        <ele>157.79</ele>
        <time>2012-08-18T06:24:28Z</time>
      </trkpt>
      <trkpt lat="43.32606" lon="-1.60102">
        <ele>157.79</ele>
        <time>2012-08-18T06:24:29Z</time>
      </trkpt>
      <trkpt lat="43.32634" lon="-1.6011">
        <ele>156.83</ele>
        <time>2012-08-18T06:24:36Z</time>
      </trkpt>
      <trkpt lat="43.32687" lon="-1.60131">
        <ele>157.79</ele>
        <time>2012-08-18T06:24:49Z</time>
      </trkpt>
      <trkpt lat="43.3274" lon="-1.60169">
        <ele>159.24</ele>
        <time>2012-08-18T06:25:04Z</time>
      </trkpt>
      <trkpt lat="43.32786" lon="-1.60187">
        <ele>157.31</ele>
        <time>2012-08-18T06:25:14Z</time>
      </trkpt>
      <trkpt lat="43.32791" lon="-1.60187">
        <ele>157.31</ele>
        <time>2012-08-18T06:25:15Z</time>
      </trkpt>
      <trkpt lat="43.32849" lon="-1.60194">
        <ele>155.87</ele>
        <time>2012-08-18T06:25:26Z</time>
      </trkpt>
      <trkpt lat="43.32932" lon="-1.60203">
        <ele>152.99</ele>
        <time>2012-08-18T06:25:41Z</time>
      </trkpt>
      <trkpt lat="43.33016" lon="-1.60223">
        <ele>152.99</ele>
        <time>2012-08-18T06:25:56Z</time>
      </trkpt>
      <trkpt lat="43.33069" lon="-1.60245">
        <ele>152.51</ele>
        <time>2012-08-18T06:26:07Z</time>
      </trkpt>
      <trkpt lat="43.33075" lon="-1.60245">
        <ele>152.03</ele>
        <time>2012-08-18T06:26:08Z</time>
      </trkpt>
      <trkpt lat="43.33092" lon="-1.60239">
        <ele>153.47</ele>
        <time>2012-08-18T06:26:12Z</time>
      </trkpt>
      <trkpt lat="43.33096" lon="-1.60237">
        <ele>154.43</ele>
        <time>2012-08-18T06:26:14Z</time>
      </trkpt>
      <trkpt lat="43.33101" lon="-1.6023">
        <ele>154.91</ele>
        <time>2012-08-18T06:26:17Z</time>
      </trkpt>
      <trkpt lat="43.331" lon="-1.60226">
        <ele>154.91</ele>
        <time>2012-08-18T06:26:18Z</time>
      </trkpt>
      <trkpt lat="43.33099" lon="-1.60224">
        <ele>155.39</ele>
        <time>2012-08-18T06:26:19Z</time>
      </trkpt>
      <trkpt lat="43.33097" lon="-1.60221">
        <ele>155.39</ele>
        <time>2012-08-18T06:26:20Z</time>
      </trkpt>
      <trkpt lat="43.33096" lon="-1.60219">
        <ele>155.39</ele>
        <time>2012-08-18T06:26:21Z</time>
      </trkpt>
      <trkpt lat="43.33095" lon="-1.60217">
        <ele>155.87</ele>
        <time>2012-08-18T06:26:22Z</time>
      </trkpt>
      <trkpt lat="43.33093" lon="-1.60215">
        <ele>155.87</ele>
        <time>2012-08-18T06:26:23Z</time>
      </trkpt>
      <trkpt lat="43.33091" lon="-1.60214">
        <ele>155.87</ele>
        <time>2012-08-18T06:26:24Z</time>
      </trkpt>
      <trkpt lat="43.33089" lon="-1.60212">
        <ele>155.87</ele>
        <time>2012-08-18T06:26:25Z</time>
      </trkpt>
      <trkpt lat="43.33088" lon="-1.6021">
        <ele>156.35</ele>
        <time>2012-08-18T06:26:26Z</time>
      </trkpt>
      <trkpt lat="43.33086" lon="-1.60209">
        <ele>156.35</ele>
        <time>2012-08-18T06:26:27Z</time>
      </trkpt>
      <trkpt lat="43.33085" lon="-1.60207">
        <ele>156.35</ele>
        <time>2012-08-18T06:26:28Z</time>
      </trkpt>
      <trkpt lat="43.33072" lon="-1.60192">
        <ele>159.24</ele>
        <time>2012-08-18T06:26:39Z</time>
      </trkpt>
      <trkpt lat="43.33056" lon="-1.60177">
        <ele>161.16</ele>
        <time>2012-08-18T06:26:51Z</time>
      </trkpt>
      <trkpt lat="43.33045" lon="-1.6016">
        <ele>163.08</ele>
        <time>2012-08-18T06:27:03Z</time>
      </trkpt>
      <trkpt lat="43.33037" lon="-1.60148">
        <ele>164.52</ele>
        <time>2012-08-18T06:27:11Z</time>
      </trkpt>
      <trkpt lat="43.33037" lon="-1.60146">
        <ele>164.52</ele>
        <time>2012-08-18T06:27:12Z</time>
      </trkpt>
      <trkpt lat="43.33036" lon="-1.60143">
        <ele>165</ele>
        <time>2012-08-18T06:27:14Z</time>
      </trkpt>
      <trkpt lat="43.33035" lon="-1.60141">
        <ele>165</ele>
        <time>2012-08-18T06:27:15Z</time>
      </trkpt>
      <trkpt lat="43.33034" lon="-1.60138">
        <ele>165.96</ele>
        <time>2012-08-18T06:27:17Z</time>
      </trkpt>
      <trkpt lat="43.33036" lon="-1.60136">
        <ele>165.96</ele>
        <time>2012-08-18T06:27:18Z</time>
      </trkpt>
      <trkpt lat="43.33037" lon="-1.60132">
        <ele>165.96</ele>
        <time>2012-08-18T06:27:20Z</time>
      </trkpt>
      <trkpt lat="43.33036" lon="-1.60125">
        <ele>166.93</ele>
        <time>2012-08-18T06:27:23Z</time>
      </trkpt>
      <trkpt lat="43.33035" lon="-1.60122">
        <ele>166.93</ele>
        <time>2012-08-18T06:27:24Z</time>
      </trkpt>
      <trkpt lat="43.33035" lon="-1.6012">
        <ele>166.93</ele>
        <time>2012-08-18T06:27:25Z</time>
      </trkpt>
      <trkpt lat="43.33035" lon="-1.60117">
        <ele>167.41</ele>
        <time>2012-08-18T06:27:26Z</time>
      </trkpt>
      <trkpt lat="43.33035" lon="-1.60116">
        <ele>167.89</ele>
        <time>2012-08-18T06:27:27Z</time>
      </trkpt>
      <trkpt lat="43.33034" lon="-1.60114">
        <ele>167.89</ele>
        <time>2012-08-18T06:27:28Z</time>
      </trkpt>
      <trkpt lat="43.33035" lon="-1.60111">
        <ele>167.89</ele>
        <time>2012-08-18T06:27:29Z</time>
      </trkpt>
      <trkpt lat="43.33035" lon="-1.60108">
        <ele>167.89</ele>
        <time>2012-08-18T06:27:30Z</time>
      </trkpt>
      <trkpt lat="43.33035" lon="-1.60106">
        <ele>168.85</ele>
        <time>2012-08-18T06:27:31Z</time>
      </trkpt>
      <trkpt lat="43.33035" lon="-1.60103">
        <ele>169.33</ele>
        <time>2012-08-18T06:27:32Z</time>
      </trkpt>
      <trkpt lat="43.3303" lon="-1.60098">
        <ele>169.81</ele>
        <time>2012-08-18T06:27:35Z</time>
      </trkpt>
      <trkpt lat="43.33028" lon="-1.60096">
        <ele>169.81</ele>
        <time>2012-08-18T06:27:36Z</time>
      </trkpt>
      <trkpt lat="43.33027" lon="-1.60094">
        <ele>170.29</ele>
        <time>2012-08-18T06:27:37Z</time>
      </trkpt>
      <trkpt lat="43.33025" lon="-1.60093">
        <ele>170.29</ele>
        <time>2012-08-18T06:27:38Z</time>
      </trkpt>
      <trkpt lat="43.33024" lon="-1.60092">
        <ele>170.77</ele>
        <time>2012-08-18T06:27:39Z</time>
      </trkpt>
      <trkpt lat="43.33023" lon="-1.6009">
        <ele>170.77</ele>
        <time>2012-08-18T06:27:40Z</time>
      </trkpt>
      <trkpt lat="43.33022" lon="-1.60089">
        <ele>170.77</ele>
        <time>2012-08-18T06:27:41Z</time>
      </trkpt>
      <trkpt lat="43.33022" lon="-1.60087">
        <ele>170.77</ele>
        <time>2012-08-18T06:27:42Z</time>
      </trkpt>
      <trkpt lat="43.33021" lon="-1.60085">
        <ele>171.25</ele>
        <time>2012-08-18T06:27:43Z</time>
      </trkpt>
      <trkpt lat="43.33018" lon="-1.6008">
        <ele>172.21</ele>
        <time>2012-08-18T06:27:47Z</time>
      </trkpt>
      <trkpt lat="43.33017" lon="-1.60078">
        <ele>171.73</ele>
        <time>2012-08-18T06:27:48Z</time>
      </trkpt>
      <trkpt lat="43.33016" lon="-1.60076">
        <ele>172.21</ele>
        <time>2012-08-18T06:27:49Z</time>
      </trkpt>
      <trkpt lat="43.33015" lon="-1.60075">
        <ele>172.21</ele>
        <time>2012-08-18T06:27:50Z</time>
      </trkpt>
      <trkpt lat="43.33014" lon="-1.60074">
        <ele>172.69</ele>
        <time>2012-08-18T06:27:51Z</time>
      </trkpt>
      <trkpt lat="43.33013" lon="-1.60073">
        <ele>172.69</ele>
        <time>2012-08-18T06:27:52Z</time>
      </trkpt>
      <trkpt lat="43.33012" lon="-1.60071">
        <ele>173.17</ele>
        <time>2012-08-18T06:27:53Z</time>
      </trkpt>
      <trkpt lat="43.33012" lon="-1.60069">
        <ele>173.17</ele>
        <time>2012-08-18T06:27:54Z</time>
      </trkpt>
      <trkpt lat="43.33011" lon="-1.60067">
        <ele>173.17</ele>
        <time>2012-08-18T06:27:55Z</time>
      </trkpt>
      <trkpt lat="43.3301" lon="-1.60066">
        <ele>173.66</ele>
        <time>2012-08-18T06:27:56Z</time>
      </trkpt>
      <trkpt lat="43.33007" lon="-1.6006">
        <ele>173.66</ele>
        <time>2012-08-18T06:28:00Z</time>
      </trkpt>
      <trkpt lat="43.33003" lon="-1.6005">
        <ele>175.1</ele>
        <time>2012-08-18T06:28:07Z</time>
      </trkpt>
      <trkpt lat="43.33003" lon="-1.60048">
        <ele>175.1</ele>
        <time>2012-08-18T06:28:08Z</time>
      </trkpt>
      <trkpt lat="43.33002" lon="-1.60045">
        <ele>175.58</ele>
        <time>2012-08-18T06:28:10Z</time>
      </trkpt>
      <trkpt lat="43.33001" lon="-1.60044">
        <ele>175.58</ele>
        <time>2012-08-18T06:28:11Z</time>
      </trkpt>
      <trkpt lat="43.32999" lon="-1.60041">
        <ele>176.06</ele>
        <time>2012-08-18T06:28:13Z</time>
      </trkpt>
      <trkpt lat="43.32993" lon="-1.60033">
        <ele>176.54</ele>
        <time>2012-08-18T06:28:19Z</time>
      </trkpt>
      <trkpt lat="43.32992" lon="-1.60031">
        <ele>177.02</ele>
        <time>2012-08-18T06:28:20Z</time>
      </trkpt>
      <trkpt lat="43.32992" lon="-1.60029">
        <ele>177.02</ele>
        <time>2012-08-18T06:28:21Z</time>
      </trkpt>
      <trkpt lat="43.32992" lon="-1.60024">
        <ele>177.98</ele>
        <time>2012-08-18T06:28:24Z</time>
      </trkpt>
      <trkpt lat="43.32995" lon="-1.60008">
        <ele>179.9</ele>
        <time>2012-08-18T06:28:33Z</time>
      </trkpt>
      <trkpt lat="43.32999" lon="-1.6">
        <ele>180.38</ele>
        <time>2012-08-18T06:28:37Z</time>
      </trkpt>
      <trkpt lat="43.32999" lon="-1.59998">
        <ele>179.9</ele>
        <time>2012-08-18T06:28:38Z</time>
      </trkpt>
      <trkpt lat="43.33001" lon="-1.59993">
        <ele>180.38</ele>
        <time>2012-08-18T06:28:41Z</time>
      </trkpt>
      <trkpt lat="43.33008" lon="-1.5998">
        <ele>181.83</ele>
        <time>2012-08-18T06:28:49Z</time>
      </trkpt>
      <trkpt lat="43.33009" lon="-1.59979">
        <ele>181.83</ele>
        <time>2012-08-18T06:28:50Z</time>
      </trkpt>
      <trkpt lat="43.33026" lon="-1.59962">
        <ele>184.23</ele>
        <time>2012-08-18T06:29:04Z</time>
      </trkpt>
      <trkpt lat="43.3303" lon="-1.59961">
        <ele>184.23</ele>
        <time>2012-08-18T06:29:07Z</time>
      </trkpt>
      <trkpt lat="43.33031" lon="-1.5996">
        <ele>184.23</ele>
        <time>2012-08-18T06:29:09Z</time>
      </trkpt>
      <trkpt lat="43.33032" lon="-1.59959">
        <ele>184.71</ele>
        <time>2012-08-18T06:29:10Z</time>
      </trkpt>
      <trkpt lat="43.33038" lon="-1.59955">
        <ele>185.19</ele>
        <time>2012-08-18T06:29:15Z</time>
      </trkpt>
      <trkpt lat="43.33042" lon="-1.59954">
        <ele>185.19</ele>
        <time>2012-08-18T06:29:17Z</time>
      </trkpt>
      <trkpt lat="43.33061" lon="-1.59945">
        <ele>186.63</ele>
        <time>2012-08-18T06:29:30Z</time>
      </trkpt>
      <trkpt lat="43.33078" lon="-1.59937">
        <ele>189.04</ele>
        <time>2012-08-18T06:29:42Z</time>
      </trkpt>
      <trkpt lat="43.33093" lon="-1.59934">
        <ele>190.96</ele>
        <time>2012-08-18T06:29:50Z</time>
      </trkpt>
      <trkpt lat="43.33095" lon="-1.59934">
        <ele>190.96</ele>
        <time>2012-08-18T06:29:52Z</time>
      </trkpt>
      <trkpt lat="43.33096" lon="-1.59934">
        <ele>191.44</ele>
        <time>2012-08-18T06:29:53Z</time>
      </trkpt>
      <trkpt lat="43.33099" lon="-1.59933">
        <ele>190.96</ele>
        <time>2012-08-18T06:29:55Z</time>
      </trkpt>
      <trkpt lat="43.33101" lon="-1.59933">
        <ele>191.92</ele>
        <time>2012-08-18T06:29:56Z</time>
      </trkpt>
      <trkpt lat="43.33102" lon="-1.59933">
        <ele>191.92</ele>
        <time>2012-08-18T06:29:57Z</time>
      </trkpt>
      <trkpt lat="43.33104" lon="-1.59932">
        <ele>191.92</ele>
        <time>2012-08-18T06:29:58Z</time>
      </trkpt>
      <trkpt lat="43.33105" lon="-1.59932">
        <ele>192.4</ele>
        <time>2012-08-18T06:29:59Z</time>
      </trkpt>
      <trkpt lat="43.33106" lon="-1.59931">
        <ele>192.4</ele>
        <time>2012-08-18T06:30:00Z</time>
      </trkpt>
      <trkpt lat="43.33108" lon="-1.5993">
        <ele>192.4</ele>
        <time>2012-08-18T06:30:01Z</time>
      </trkpt>
      <trkpt lat="43.33109" lon="-1.59928">
        <ele>192.88</ele>
        <time>2012-08-18T06:30:02Z</time>
      </trkpt>
      <trkpt lat="43.33111" lon="-1.59928">
        <ele>193.36</ele>
        <time>2012-08-18T06:30:04Z</time>
      </trkpt>
      <trkpt lat="43.33113" lon="-1.59927">
        <ele>192.88</ele>
        <time>2012-08-18T06:30:05Z</time>
      </trkpt>
      <trkpt lat="43.33114" lon="-1.59926">
        <ele>193.36</ele>
        <time>2012-08-18T06:30:06Z</time>
      </trkpt>
      <trkpt lat="43.33121" lon="-1.59919">
        <ele>194.32</ele>
        <time>2012-08-18T06:30:11Z</time>
      </trkpt>
      <trkpt lat="43.33132" lon="-1.59912">
        <ele>195.28</ele>
        <time>2012-08-18T06:30:19Z</time>
      </trkpt>
      <trkpt lat="43.33134" lon="-1.5991">
        <ele>196.25</ele>
        <time>2012-08-18T06:30:21Z</time>
      </trkpt>
      <trkpt lat="43.33135" lon="-1.59909">
        <ele>196.25</ele>
        <time>2012-08-18T06:30:22Z</time>
      </trkpt>
      <trkpt lat="43.33137" lon="-1.59908">
        <ele>196.25</ele>
        <time>2012-08-18T06:30:23Z</time>
      </trkpt>
      <trkpt lat="43.33151" lon="-1.59897">
        <ele>198.17</ele>
        <time>2012-08-18T06:30:34Z</time>
      </trkpt>
      <trkpt lat="43.33157" lon="-1.59892">
        <ele>199.61</ele>
        <time>2012-08-18T06:30:41Z</time>
      </trkpt>
      <trkpt lat="43.33159" lon="-1.59892">
        <ele>199.61</ele>
        <time>2012-08-18T06:30:42Z</time>
      </trkpt>
      <trkpt lat="43.33167" lon="-1.59891">
        <ele>201.53</ele>
        <time>2012-08-18T06:30:53Z</time>
      </trkpt>
      <trkpt lat="43.3317" lon="-1.59891">
        <ele>201.53</ele>
        <time>2012-08-18T06:30:55Z</time>
      </trkpt>
      <trkpt lat="43.33187" lon="-1.59893">
        <ele>202.98</ele>
        <time>2012-08-18T06:31:06Z</time>
      </trkpt>
      <trkpt lat="43.33197" lon="-1.59891">
        <ele>204.42</ele>
        <time>2012-08-18T06:31:14Z</time>
      </trkpt>
      <trkpt lat="43.33199" lon="-1.59891">
        <ele>204.9</ele>
        <time>2012-08-18T06:31:15Z</time>
      </trkpt>
      <trkpt lat="43.33201" lon="-1.59891">
        <ele>204.42</ele>
        <time>2012-08-18T06:31:16Z</time>
      </trkpt>
      <trkpt lat="43.33206" lon="-1.59891">
        <ele>205.38</ele>
        <time>2012-08-18T06:31:18Z</time>
      </trkpt>
      <trkpt lat="43.33208" lon="-1.59889">
        <ele>204.9</ele>
        <time>2012-08-18T06:31:19Z</time>
      </trkpt>
      <trkpt lat="43.33209" lon="-1.59888">
        <ele>205.38</ele>
        <time>2012-08-18T06:31:20Z</time>
      </trkpt>
      <trkpt lat="43.3321" lon="-1.59886">
        <ele>205.38</ele>
        <time>2012-08-18T06:31:21Z</time>
      </trkpt>
      <trkpt lat="43.33212" lon="-1.59884">
        <ele>205.38</ele>
        <time>2012-08-18T06:31:22Z</time>
      </trkpt>
      <trkpt lat="43.33213" lon="-1.59877">
        <ele>205.38</ele>
        <time>2012-08-18T06:31:25Z</time>
      </trkpt>
      <trkpt lat="43.33212" lon="-1.59876">
        <ele>205.38</ele>
        <time>2012-08-18T06:31:26Z</time>
      </trkpt>
      <trkpt lat="43.33212" lon="-1.59874">
        <ele>205.86</ele>
        <time>2012-08-18T06:31:27Z</time>
      </trkpt>
      <trkpt lat="43.33211" lon="-1.59872">
        <ele>205.86</ele>
        <time>2012-08-18T06:31:28Z</time>
      </trkpt>
      <trkpt lat="43.33211" lon="-1.59871">
        <ele>205.86</ele>
        <time>2012-08-18T06:31:29Z</time>
      </trkpt>
      <trkpt lat="43.3321" lon="-1.59869">
        <ele>205.86</ele>
        <time>2012-08-18T06:31:30Z</time>
      </trkpt>
      <trkpt lat="43.33209" lon="-1.59868">
        <ele>206.34</ele>
        <time>2012-08-18T06:31:31Z</time>
      </trkpt>
      <trkpt lat="43.33209" lon="-1.59867">
        <ele>206.34</ele>
        <time>2012-08-18T06:31:32Z</time>
      </trkpt>
      <trkpt lat="43.33208" lon="-1.59866">
        <ele>206.34</ele>
        <time>2012-08-18T06:31:33Z</time>
      </trkpt>
      <trkpt lat="43.33208" lon="-1.59864">
        <ele>206.82</ele>
        <time>2012-08-18T06:31:34Z</time>
      </trkpt>
      <trkpt lat="43.33207" lon="-1.59862">
        <ele>206.82</ele>
        <time>2012-08-18T06:31:35Z</time>
      </trkpt>
      <trkpt lat="43.33202" lon="-1.59856">
        <ele>206.82</ele>
        <time>2012-08-18T06:31:39Z</time>
      </trkpt>
      <trkpt lat="43.33201" lon="-1.59854">
        <ele>206.82</ele>
        <time>2012-08-18T06:31:40Z</time>
      </trkpt>
      <trkpt lat="43.332" lon="-1.59852">
        <ele>207.3</ele>
        <time>2012-08-18T06:31:41Z</time>
      </trkpt>
      <trkpt lat="43.33199" lon="-1.5985">
        <ele>206.82</ele>
        <time>2012-08-18T06:31:42Z</time>
      </trkpt>
      <trkpt lat="43.33199" lon="-1.59849">
        <ele>206.82</ele>
        <time>2012-08-18T06:31:43Z</time>
      </trkpt>
      <trkpt lat="43.33197" lon="-1.59848">
        <ele>206.82</ele>
        <time>2012-08-18T06:31:44Z</time>
      </trkpt>
      <trkpt lat="43.33196" lon="-1.59847">
        <ele>207.3</ele>
        <time>2012-08-18T06:31:45Z</time>
      </trkpt>
      <trkpt lat="43.33194" lon="-1.59846">
        <ele>207.78</ele>
        <time>2012-08-18T06:31:47Z</time>
      </trkpt>
      <trkpt lat="43.33193" lon="-1.59845">
        <ele>207.78</ele>
        <time>2012-08-18T06:31:48Z</time>
      </trkpt>
      <trkpt lat="43.33192" lon="-1.59844">
        <ele>208.26</ele>
        <time>2012-08-18T06:31:49Z</time>
      </trkpt>
      <trkpt lat="43.3319" lon="-1.59843">
        <ele>208.26</ele>
        <time>2012-08-18T06:31:50Z</time>
      </trkpt>
      <trkpt lat="43.33189" lon="-1.59842">
        <ele>208.74</ele>
        <time>2012-08-18T06:31:51Z</time>
      </trkpt>
      <trkpt lat="43.33188" lon="-1.5984">
        <ele>208.74</ele>
        <time>2012-08-18T06:31:52Z</time>
      </trkpt>
      <trkpt lat="43.33172" lon="-1.59827">
        <ele>210.67</ele>
        <time>2012-08-18T06:32:04Z</time>
      </trkpt>
      <trkpt lat="43.33157" lon="-1.59809">
        <ele>211.63</ele>
        <time>2012-08-18T06:32:17Z</time>
      </trkpt>
      <trkpt lat="43.33137" lon="-1.59797">
        <ele>211.15</ele>
        <time>2012-08-18T06:32:26Z</time>
      </trkpt>
      <trkpt lat="43.33134" lon="-1.59798">
        <ele>212.11</ele>
        <time>2012-08-18T06:32:27Z</time>
      </trkpt>
      <trkpt lat="43.33131" lon="-1.59798">
        <ele>211.63</ele>
        <time>2012-08-18T06:32:28Z</time>
      </trkpt>
      <trkpt lat="43.33128" lon="-1.59797">
        <ele>212.11</ele>
        <time>2012-08-18T06:32:29Z</time>
      </trkpt>
      <trkpt lat="43.33125" lon="-1.59796">
        <ele>212.11</ele>
        <time>2012-08-18T06:32:30Z</time>
      </trkpt>
      <trkpt lat="43.33123" lon="-1.59794">
        <ele>212.11</ele>
        <time>2012-08-18T06:32:31Z</time>
      </trkpt>
      <trkpt lat="43.3312" lon="-1.59793">
        <ele>213.07</ele>
        <time>2012-08-18T06:32:32Z</time>
      </trkpt>
      <trkpt lat="43.33118" lon="-1.59791">
        <ele>213.07</ele>
        <time>2012-08-18T06:32:33Z</time>
      </trkpt>
      <trkpt lat="43.33115" lon="-1.5979">
        <ele>213.07</ele>
        <time>2012-08-18T06:32:34Z</time>
      </trkpt>
      <trkpt lat="43.33113" lon="-1.5979">
        <ele>213.55</ele>
        <time>2012-08-18T06:32:35Z</time>
      </trkpt>
      <trkpt lat="43.33091" lon="-1.59781">
        <ele>213.55</ele>
        <time>2012-08-18T06:32:44Z</time>
      </trkpt>
      <trkpt lat="43.33062" lon="-1.59769">
        <ele>211.15</ele>
        <time>2012-08-18T06:32:51Z</time>
      </trkpt>
      <trkpt lat="43.3305" lon="-1.59766">
        <ele>210.67</ele>
        <time>2012-08-18T06:32:53Z</time>
      </trkpt>
      <trkpt lat="43.33045" lon="-1.59764">
        <ele>211.15</ele>
        <time>2012-08-18T06:32:54Z</time>
      </trkpt>
      <trkpt lat="43.33041" lon="-1.59762">
        <ele>212.11</ele>
        <time>2012-08-18T06:32:55Z</time>
      </trkpt>
      <trkpt lat="43.33037" lon="-1.59761">
        <ele>212.11</ele>
        <time>2012-08-18T06:32:56Z</time>
      </trkpt>
      <trkpt lat="43.33034" lon="-1.59759">
        <ele>212.59</ele>
        <time>2012-08-18T06:32:57Z</time>
      </trkpt>
      <trkpt lat="43.33032" lon="-1.59758">
        <ele>212.59</ele>
        <time>2012-08-18T06:32:58Z</time>
      </trkpt>
      <trkpt lat="43.3303" lon="-1.59756">
        <ele>212.59</ele>
        <time>2012-08-18T06:32:59Z</time>
      </trkpt>
      <trkpt lat="43.33027" lon="-1.59754">
        <ele>213.55</ele>
        <time>2012-08-18T06:33:00Z</time>
      </trkpt>
      <trkpt lat="43.33025" lon="-1.59752">
        <ele>214.03</ele>
        <time>2012-08-18T06:33:01Z</time>
      </trkpt>
      <trkpt lat="43.33022" lon="-1.5975">
        <ele>213.55</ele>
        <time>2012-08-18T06:33:02Z</time>
      </trkpt>
      <trkpt lat="43.3302" lon="-1.59749">
        <ele>214.03</ele>
        <time>2012-08-18T06:33:03Z</time>
      </trkpt>
      <trkpt lat="43.33018" lon="-1.59748">
        <ele>214.03</ele>
        <time>2012-08-18T06:33:04Z</time>
      </trkpt>
      <trkpt lat="43.33015" lon="-1.59747">
        <ele>214.51</ele>
        <time>2012-08-18T06:33:05Z</time>
      </trkpt>
      <trkpt lat="43.33013" lon="-1.59746">
        <ele>214.51</ele>
        <time>2012-08-18T06:33:06Z</time>
      </trkpt>
      <trkpt lat="43.33011" lon="-1.59745">
        <ele>214.99</ele>
        <time>2012-08-18T06:33:07Z</time>
      </trkpt>
      <trkpt lat="43.33009" lon="-1.59744">
        <ele>214.99</ele>
        <time>2012-08-18T06:33:08Z</time>
      </trkpt>
      <trkpt lat="43.33006" lon="-1.59743">
        <ele>214.99</ele>
        <time>2012-08-18T06:33:09Z</time>
      </trkpt>
      <trkpt lat="43.33004" lon="-1.59742">
        <ele>214.99</ele>
        <time>2012-08-18T06:33:10Z</time>
      </trkpt>
      <trkpt lat="43.33002" lon="-1.59741">
        <ele>215.47</ele>
        <time>2012-08-18T06:33:11Z</time>
      </trkpt>
      <trkpt lat="43.32999" lon="-1.5974">
        <ele>215.47</ele>
        <time>2012-08-18T06:33:12Z</time>
      </trkpt>
      <trkpt lat="43.32997" lon="-1.5974">
        <ele>215.47</ele>
        <time>2012-08-18T06:33:13Z</time>
      </trkpt>
      <trkpt lat="43.32965" lon="-1.59729">
        <ele>216.43</ele>
        <time>2012-08-18T06:33:27Z</time>
      </trkpt>
      <trkpt lat="43.32931" lon="-1.59711">
        <ele>216.43</ele>
        <time>2012-08-18T06:33:39Z</time>
      </trkpt>
      <trkpt lat="43.32923" lon="-1.59707">
        <ele>215.47</ele>
        <time>2012-08-18T06:33:41Z</time>
      </trkpt>
      <trkpt lat="43.32919" lon="-1.59706">
        <ele>215.47</ele>
        <time>2012-08-18T06:33:42Z</time>
      </trkpt>
      <trkpt lat="43.32915" lon="-1.59706">
        <ele>214.51</ele>
        <time>2012-08-18T06:33:43Z</time>
      </trkpt>
      <trkpt lat="43.32911" lon="-1.59707">
        <ele>214.51</ele>
        <time>2012-08-18T06:33:44Z</time>
      </trkpt>
      <trkpt lat="43.32907" lon="-1.59707">
        <ele>213.55</ele>
        <time>2012-08-18T06:33:45Z</time>
      </trkpt>
      <trkpt lat="43.32903" lon="-1.59707">
        <ele>213.07</ele>
        <time>2012-08-18T06:33:46Z</time>
      </trkpt>
      <trkpt lat="43.32897" lon="-1.59706">
        <ele>212.11</ele>
        <time>2012-08-18T06:33:47Z</time>
      </trkpt>
      <trkpt lat="43.32892" lon="-1.59704">
        <ele>211.15</ele>
        <time>2012-08-18T06:33:48Z</time>
      </trkpt>
      <trkpt lat="43.32886" lon="-1.59699">
        <ele>210.67</ele>
        <time>2012-08-18T06:33:49Z</time>
      </trkpt>
      <trkpt lat="43.32882" lon="-1.59693">
        <ele>210.67</ele>
        <time>2012-08-18T06:33:50Z</time>
      </trkpt>
      <trkpt lat="43.32879" lon="-1.59686">
        <ele>210.67</ele>
        <time>2012-08-18T06:33:51Z</time>
      </trkpt>
      <trkpt lat="43.32878" lon="-1.59678">
        <ele>210.67</ele>
        <time>2012-08-18T06:33:52Z</time>
      </trkpt>
      <trkpt lat="43.32877" lon="-1.5967">
        <ele>210.67</ele>
        <time>2012-08-18T06:33:53Z</time>
      </trkpt>
      <trkpt lat="43.32877" lon="-1.59662">
        <ele>210.19</ele>
        <time>2012-08-18T06:33:54Z</time>
      </trkpt>
      <trkpt lat="43.32878" lon="-1.59656">
        <ele>211.15</ele>
        <time>2012-08-18T06:33:55Z</time>
      </trkpt>
      <trkpt lat="43.32877" lon="-1.59651">
        <ele>211.63</ele>
        <time>2012-08-18T06:33:56Z</time>
      </trkpt>
      <trkpt lat="43.32877" lon="-1.59647">
        <ele>212.11</ele>
        <time>2012-08-18T06:33:57Z</time>
      </trkpt>
      <trkpt lat="43.32876" lon="-1.59642">
        <ele>212.11</ele>
        <time>2012-08-18T06:33:58Z</time>
      </trkpt>
      <trkpt lat="43.32876" lon="-1.59637">
        <ele>212.11</ele>
        <time>2012-08-18T06:33:59Z</time>
      </trkpt>
      <trkpt lat="43.32876" lon="-1.59633">
        <ele>212.59</ele>
        <time>2012-08-18T06:34:00Z</time>
      </trkpt>
      <trkpt lat="43.32875" lon="-1.59629">
        <ele>213.07</ele>
        <time>2012-08-18T06:34:01Z</time>
      </trkpt>
      <trkpt lat="43.32874" lon="-1.59625">
        <ele>213.07</ele>
        <time>2012-08-18T06:34:02Z</time>
      </trkpt>
      <trkpt lat="43.32873" lon="-1.59621">
        <ele>213.07</ele>
        <time>2012-08-18T06:34:03Z</time>
      </trkpt>
      <trkpt lat="43.32871" lon="-1.59617">
        <ele>213.55</ele>
        <time>2012-08-18T06:34:04Z</time>
      </trkpt>
      <trkpt lat="43.3287" lon="-1.59614">
        <ele>212.59</ele>
        <time>2012-08-18T06:34:05Z</time>
      </trkpt>
      <trkpt lat="43.32868" lon="-1.5961">
        <ele>213.07</ele>
        <time>2012-08-18T06:34:06Z</time>
      </trkpt>
      <trkpt lat="43.32867" lon="-1.59606">
        <ele>213.55</ele>
        <time>2012-08-18T06:34:07Z</time>
      </trkpt>
      <trkpt lat="43.32865" lon="-1.59602">
        <ele>212.59</ele>
        <time>2012-08-18T06:34:08Z</time>
      </trkpt>
      <trkpt lat="43.32864" lon="-1.59598">
        <ele>213.07</ele>
        <time>2012-08-18T06:34:09Z</time>
      </trkpt>
      <trkpt lat="43.3285" lon="-1.59565">
        <ele>210.67</ele>
        <time>2012-08-18T06:34:16Z</time>
      </trkpt>
      <trkpt lat="43.32846" lon="-1.59561">
        <ele>210.67</ele>
        <time>2012-08-18T06:34:17Z</time>
      </trkpt>
      <trkpt lat="43.32843" lon="-1.59557">
        <ele>210.19</ele>
        <time>2012-08-18T06:34:18Z</time>
      </trkpt>
      <trkpt lat="43.3284" lon="-1.59551">
        <ele>209.22</ele>
        <time>2012-08-18T06:34:19Z</time>
      </trkpt>
      <trkpt lat="43.32838" lon="-1.59544">
        <ele>208.74</ele>
        <time>2012-08-18T06:34:20Z</time>
      </trkpt>
      <trkpt lat="43.32833" lon="-1.59528">
        <ele>207.78</ele>
        <time>2012-08-18T06:34:22Z</time>
      </trkpt>
      <trkpt lat="43.32831" lon="-1.59519">
        <ele>206.82</ele>
        <time>2012-08-18T06:34:23Z</time>
      </trkpt>
      <trkpt lat="43.32827" lon="-1.59512">
        <ele>206.34</ele>
        <time>2012-08-18T06:34:24Z</time>
      </trkpt>
      <trkpt lat="43.32806" lon="-1.5948">
        <ele>202.98</ele>
        <time>2012-08-18T06:34:29Z</time>
      </trkpt>
      <trkpt lat="43.32775" lon="-1.59447">
        <ele>200.57</ele>
        <time>2012-08-18T06:34:37Z</time>
      </trkpt>
      <trkpt lat="43.32776" lon="-1.59437">
        <ele>201.53</ele>
        <time>2012-08-18T06:34:39Z</time>
      </trkpt>
      <trkpt lat="43.32778" lon="-1.59432">
        <ele>201.05</ele>
        <time>2012-08-18T06:34:40Z</time>
      </trkpt>
      <trkpt lat="43.32779" lon="-1.59427">
        <ele>201.05</ele>
        <time>2012-08-18T06:34:41Z</time>
      </trkpt>
      <trkpt lat="43.3278" lon="-1.59423">
        <ele>201.05</ele>
        <time>2012-08-18T06:34:42Z</time>
      </trkpt>
      <trkpt lat="43.32779" lon="-1.59418">
        <ele>201.05</ele>
        <time>2012-08-18T06:34:43Z</time>
      </trkpt>
      <trkpt lat="43.32779" lon="-1.59413">
        <ele>201.05</ele>
        <time>2012-08-18T06:34:44Z</time>
      </trkpt>
      <trkpt lat="43.32764" lon="-1.59359">
        <ele>199.61</ele>
        <time>2012-08-18T06:34:55Z</time>
      </trkpt>
      <trkpt lat="43.32767" lon="-1.59332">
        <ele>200.09</ele>
        <time>2012-08-18T06:35:00Z</time>
      </trkpt>
      <trkpt lat="43.32786" lon="-1.59316">
        <ele>201.05</ele>
        <time>2012-08-18T06:35:09Z</time>
      </trkpt>
      <trkpt lat="43.32802" lon="-1.5932">
        <ele>201.53</ele>
        <time>2012-08-18T06:35:15Z</time>
      </trkpt>
      <trkpt lat="43.32823" lon="-1.59328">
        <ele>201.53</ele>
        <time>2012-08-18T06:35:28Z</time>
      </trkpt>
      <trkpt lat="43.32832" lon="-1.5933">
        <ele>201.53</ele>
        <time>2012-08-18T06:35:32Z</time>
      </trkpt>
      <trkpt lat="43.32846" lon="-1.59332">
        <ele>202.01</ele>
        <time>2012-08-18T06:35:37Z</time>
      </trkpt>
      <trkpt lat="43.32863" lon="-1.59339">
        <ele>202.01</ele>
        <time>2012-08-18T06:35:43Z</time>
      </trkpt>
      <trkpt lat="43.32896" lon="-1.59364">
        <ele>202.49</ele>
        <time>2012-08-18T06:35:53Z</time>
      </trkpt>
      <trkpt lat="43.32924" lon="-1.59389">
        <ele>203.94</ele>
        <time>2012-08-18T06:36:00Z</time>
      </trkpt>
      <trkpt lat="43.32934" lon="-1.59397">
        <ele>203.94</ele>
        <time>2012-08-18T06:36:03Z</time>
      </trkpt>
      <trkpt lat="43.32945" lon="-1.59416">
        <ele>204.9</ele>
        <time>2012-08-18T06:36:10Z</time>
      </trkpt>
      <trkpt lat="43.32959" lon="-1.59432">
        <ele>205.86</ele>
        <time>2012-08-18T06:36:19Z</time>
      </trkpt>
      <trkpt lat="43.32971" lon="-1.59442">
        <ele>205.86</ele>
        <time>2012-08-18T06:36:23Z</time>
      </trkpt>
      <trkpt lat="43.33005" lon="-1.59461">
        <ele>205.86</ele>
        <time>2012-08-18T06:36:35Z</time>
      </trkpt>
      <trkpt lat="43.33039" lon="-1.59466">
        <ele>205.38</ele>
        <time>2012-08-18T06:36:46Z</time>
      </trkpt>
      <trkpt lat="43.33073" lon="-1.59462">
        <ele>204.9</ele>
        <time>2012-08-18T06:36:56Z</time>
      </trkpt>
      <trkpt lat="43.33106" lon="-1.59442">
        <ele>203.46</ele>
        <time>2012-08-18T06:37:07Z</time>
      </trkpt>
      <trkpt lat="43.3311" lon="-1.5944">
        <ele>202.49</ele>
        <time>2012-08-18T06:37:08Z</time>
      </trkpt>
      <trkpt lat="43.33113" lon="-1.59439">
        <ele>202.49</ele>
        <time>2012-08-18T06:37:09Z</time>
      </trkpt>
      <trkpt lat="43.33119" lon="-1.59435">
        <ele>202.01</ele>
        <time>2012-08-18T06:37:11Z</time>
      </trkpt>
      <trkpt lat="43.33124" lon="-1.59434">
        <ele>202.01</ele>
        <time>2012-08-18T06:37:12Z</time>
      </trkpt>
      <trkpt lat="43.33129" lon="-1.59432">
        <ele>201.53</ele>
        <time>2012-08-18T06:37:13Z</time>
      </trkpt>
      <trkpt lat="43.33134" lon="-1.59432">
        <ele>202.01</ele>
        <time>2012-08-18T06:37:14Z</time>
      </trkpt>
      <trkpt lat="43.33138" lon="-1.59431">
        <ele>202.01</ele>
        <time>2012-08-18T06:37:15Z</time>
      </trkpt>
      <trkpt lat="43.33142" lon="-1.59431">
        <ele>202.49</ele>
        <time>2012-08-18T06:37:16Z</time>
      </trkpt>
      <trkpt lat="43.3318" lon="-1.59419">
        <ele>202.49</ele>
        <time>2012-08-18T06:37:26Z</time>
      </trkpt>
      <trkpt lat="43.33202" lon="-1.59405">
        <ele>202.01</ele>
        <time>2012-08-18T06:37:33Z</time>
      </trkpt>
      <trkpt lat="43.33204" lon="-1.59402">
        <ele>202.01</ele>
        <time>2012-08-18T06:37:34Z</time>
      </trkpt>
      <trkpt lat="43.33204" lon="-1.59399">
        <ele>202.01</ele>
        <time>2012-08-18T06:37:35Z</time>
      </trkpt>
      <trkpt lat="43.33203" lon="-1.59395">
        <ele>202.01</ele>
        <time>2012-08-18T06:37:36Z</time>
      </trkpt>
      <trkpt lat="43.33202" lon="-1.59392">
        <ele>202.49</ele>
        <time>2012-08-18T06:37:37Z</time>
      </trkpt>
      <trkpt lat="43.33201" lon="-1.59391">
        <ele>202.98</ele>
        <time>2012-08-18T06:37:38Z</time>
      </trkpt>
      <trkpt lat="43.33199" lon="-1.59391">
        <ele>203.46</ele>
        <time>2012-08-18T06:37:39Z</time>
      </trkpt>
      <trkpt lat="43.33188" lon="-1.59384">
        <ele>206.34</ele>
        <time>2012-08-18T06:37:46Z</time>
      </trkpt>
      <trkpt lat="43.33186" lon="-1.59382">
        <ele>207.3</ele>
        <time>2012-08-18T06:37:48Z</time>
      </trkpt>
      <trkpt lat="43.33186" lon="-1.5938">
        <ele>208.26</ele>
        <time>2012-08-18T06:37:49Z</time>
      </trkpt>
      <trkpt lat="43.33185" lon="-1.59378">
        <ele>208.74</ele>
        <time>2012-08-18T06:37:59Z</time>
      </trkpt>
      <trkpt lat="43.33182" lon="-1.59377">
        <ele>210.67</ele>
        <time>2012-08-18T06:38:11Z</time>
      </trkpt>
      <trkpt lat="43.33181" lon="-1.59375">
        <ele>210.19</ele>
        <time>2012-08-18T06:38:34Z</time>
      </trkpt>
      <trkpt lat="43.33181" lon="-1.59373">
        <ele>210.67</ele>
        <time>2012-08-18T06:38:59Z</time>
      </trkpt>
      <trkpt lat="43.33177" lon="-1.59368">
        <ele>211.63</ele>
        <time>2012-08-18T06:39:07Z</time>
      </trkpt>
      <trkpt lat="43.33176" lon="-1.59366">
        <ele>211.63</ele>
        <time>2012-08-18T06:39:08Z</time>
      </trkpt>
      <trkpt lat="43.33175" lon="-1.59365">
        <ele>212.11</ele>
        <time>2012-08-18T06:39:09Z</time>
      </trkpt>
      <trkpt lat="43.33166" lon="-1.59352">
        <ele>213.55</ele>
        <time>2012-08-18T06:39:21Z</time>
      </trkpt>
      <trkpt lat="43.33155" lon="-1.59336">
        <ele>215.95</ele>
        <time>2012-08-18T06:39:35Z</time>
      </trkpt>
      <trkpt lat="43.33152" lon="-1.59327">
        <ele>217.4</ele>
        <time>2012-08-18T06:39:42Z</time>
      </trkpt>
      <trkpt lat="43.33152" lon="-1.59326">
        <ele>217.88</ele>
        <time>2012-08-18T06:39:43Z</time>
      </trkpt>
      <trkpt lat="43.33149" lon="-1.5932">
        <ele>218.84</ele>
        <time>2012-08-18T06:39:48Z</time>
      </trkpt>
      <trkpt lat="43.33146" lon="-1.59317">
        <ele>219.8</ele>
        <time>2012-08-18T06:39:51Z</time>
      </trkpt>
      <trkpt lat="43.33146" lon="-1.59316">
        <ele>220.28</ele>
        <time>2012-08-18T06:39:52Z</time>
      </trkpt>
      <trkpt lat="43.33145" lon="-1.59315">
        <ele>220.76</ele>
        <time>2012-08-18T06:39:53Z</time>
      </trkpt>
      <trkpt lat="43.3314" lon="-1.59311">
        <ele>220.76</ele>
        <time>2012-08-18T06:39:57Z</time>
      </trkpt>
      <trkpt lat="43.33139" lon="-1.59311">
        <ele>221.24</ele>
        <time>2012-08-18T06:39:58Z</time>
      </trkpt>
      <trkpt lat="43.33138" lon="-1.5931">
        <ele>221.72</ele>
        <time>2012-08-18T06:39:59Z</time>
      </trkpt>
      <trkpt lat="43.33135" lon="-1.59307">
        <ele>221.72</ele>
        <time>2012-08-18T06:40:02Z</time>
      </trkpt>
      <trkpt lat="43.33121" lon="-1.59292">
        <ele>223.16</ele>
        <time>2012-08-18T06:40:15Z</time>
      </trkpt>
      <trkpt lat="43.33111" lon="-1.59267">
        <ele>224.12</ele>
        <time>2012-08-18T06:40:26Z</time>
      </trkpt>
      <trkpt lat="43.3311" lon="-1.59265">
        <ele>224.61</ele>
        <time>2012-08-18T06:40:27Z</time>
      </trkpt>
      <trkpt lat="43.33108" lon="-1.59263">
        <ele>224.61</ele>
        <time>2012-08-18T06:40:28Z</time>
      </trkpt>
      <trkpt lat="43.33107" lon="-1.5926">
        <ele>224.61</ele>
        <time>2012-08-18T06:40:29Z</time>
      </trkpt>
      <trkpt lat="43.3309" lon="-1.59234">
        <ele>225.57</ele>
        <time>2012-08-18T06:40:41Z</time>
      </trkpt>
      <trkpt lat="43.33069" lon="-1.59205">
        <ele>226.53</ele>
        <time>2012-08-18T06:40:53Z</time>
      </trkpt>
      <trkpt lat="43.33052" lon="-1.59168">
        <ele>227.97</ele>
        <time>2012-08-18T06:41:07Z</time>
      </trkpt>
      <trkpt lat="43.33051" lon="-1.59166">
        <ele>228.45</ele>
        <time>2012-08-18T06:41:08Z</time>
      </trkpt>
      <trkpt lat="43.33042" lon="-1.59147">
        <ele>229.41</ele>
        <time>2012-08-18T06:41:16Z</time>
      </trkpt>
      <trkpt lat="43.33042" lon="-1.59145">
        <ele>229.41</ele>
        <time>2012-08-18T06:41:17Z</time>
      </trkpt>
      <trkpt lat="43.33043" lon="-1.59143">
        <ele>229.89</ele>
        <time>2012-08-18T06:41:18Z</time>
      </trkpt>
      <trkpt lat="43.33045" lon="-1.59139">
        <ele>228.93</ele>
        <time>2012-08-18T06:41:33Z</time>
      </trkpt>
      <trkpt lat="43.33045" lon="-1.59138">
        <ele>229.89</ele>
        <time>2012-08-18T06:41:55Z</time>
      </trkpt>
      <trkpt lat="43.33044" lon="-1.59139">
        <ele>229.89</ele>
        <time>2012-08-18T06:42:13Z</time>
      </trkpt>
      <trkpt lat="43.33046" lon="-1.59125">
        <ele>228.45</ele>
        <time>2012-08-18T06:42:32Z</time>
      </trkpt>
      <trkpt lat="43.33052" lon="-1.59109">
        <ele>227.01</ele>
        <time>2012-08-18T06:42:35Z</time>
      </trkpt>
      <trkpt lat="43.33054" lon="-1.59102">
        <ele>226.05</ele>
        <time>2012-08-18T06:42:36Z</time>
      </trkpt>
      <trkpt lat="43.33056" lon="-1.59094">
        <ele>225.57</ele>
        <time>2012-08-18T06:42:37Z</time>
      </trkpt>
      <trkpt lat="43.33057" lon="-1.59085">
        <ele>224.61</ele>
        <time>2012-08-18T06:42:38Z</time>
      </trkpt>
      <trkpt lat="43.3306" lon="-1.59077">
        <ele>223.64</ele>
        <time>2012-08-18T06:42:39Z</time>
      </trkpt>
      <trkpt lat="43.33063" lon="-1.5907">
        <ele>223.16</ele>
        <time>2012-08-18T06:42:40Z</time>
      </trkpt>
      <trkpt lat="43.33066" lon="-1.59062">
        <ele>222.2</ele>
        <time>2012-08-18T06:42:41Z</time>
      </trkpt>
      <trkpt lat="43.33073" lon="-1.59044">
        <ele>221.24</ele>
        <time>2012-08-18T06:42:44Z</time>
      </trkpt>
      <trkpt lat="43.33075" lon="-1.59038">
        <ele>219.8</ele>
        <time>2012-08-18T06:42:45Z</time>
      </trkpt>
      <trkpt lat="43.33078" lon="-1.59031">
        <ele>219.32</ele>
        <time>2012-08-18T06:42:46Z</time>
      </trkpt>
      <trkpt lat="43.3308" lon="-1.59025">
        <ele>218.84</ele>
        <time>2012-08-18T06:42:47Z</time>
      </trkpt>
      <trkpt lat="43.33083" lon="-1.59018">
        <ele>217.4</ele>
        <time>2012-08-18T06:42:48Z</time>
      </trkpt>
      <trkpt lat="43.33088" lon="-1.59013">
        <ele>216.43</ele>
        <time>2012-08-18T06:42:49Z</time>
      </trkpt>
      <trkpt lat="43.33094" lon="-1.5901">
        <ele>215.47</ele>
        <time>2012-08-18T06:42:50Z</time>
      </trkpt>
      <trkpt lat="43.331" lon="-1.59009">
        <ele>214.99</ele>
        <time>2012-08-18T06:42:51Z</time>
      </trkpt>
      <trkpt lat="43.33107" lon="-1.59008">
        <ele>214.99</ele>
        <time>2012-08-18T06:42:52Z</time>
      </trkpt>
      <trkpt lat="43.33147" lon="-1.59">
        <ele>212.59</ele>
        <time>2012-08-18T06:42:58Z</time>
      </trkpt>
      <trkpt lat="43.33159" lon="-1.58999">
        <ele>212.59</ele>
        <time>2012-08-18T06:43:00Z</time>
      </trkpt>
      <trkpt lat="43.33165" lon="-1.58998">
        <ele>212.59</ele>
        <time>2012-08-18T06:43:01Z</time>
      </trkpt>
      <trkpt lat="43.33184" lon="-1.58998">
        <ele>211.15</ele>
        <time>2012-08-18T06:43:04Z</time>
      </trkpt>
      <trkpt lat="43.33189" lon="-1.58999">
        <ele>211.63</ele>
        <time>2012-08-18T06:43:05Z</time>
      </trkpt>
      <trkpt lat="43.33194" lon="-1.59001">
        <ele>212.11</ele>
        <time>2012-08-18T06:43:06Z</time>
      </trkpt>
      <trkpt lat="43.33224" lon="-1.59017">
        <ele>214.03</ele>
        <time>2012-08-18T06:43:16Z</time>
      </trkpt>
      <trkpt lat="43.33242" lon="-1.59022">
        <ele>214.03</ele>
        <time>2012-08-18T06:43:23Z</time>
      </trkpt>
      <trkpt lat="43.33244" lon="-1.59023">
        <ele>213.07</ele>
        <time>2012-08-18T06:43:24Z</time>
      </trkpt>
      <trkpt lat="43.33246" lon="-1.59023">
        <ele>213.55</ele>
        <time>2012-08-18T06:43:25Z</time>
      </trkpt>
      <trkpt lat="43.33253" lon="-1.59024">
        <ele>214.03</ele>
        <time>2012-08-18T06:43:29Z</time>
      </trkpt>
      <trkpt lat="43.33255" lon="-1.59024">
        <ele>213.55</ele>
        <time>2012-08-18T06:43:30Z</time>
      </trkpt>
      <trkpt lat="43.33257" lon="-1.59024">
        <ele>213.55</ele>
        <time>2012-08-18T06:43:31Z</time>
      </trkpt>
      <trkpt lat="43.33259" lon="-1.59025">
        <ele>213.55</ele>
        <time>2012-08-18T06:43:32Z</time>
      </trkpt>
      <trkpt lat="43.33261" lon="-1.59025">
        <ele>213.55</ele>
        <time>2012-08-18T06:43:33Z</time>
      </trkpt>
      <trkpt lat="43.33263" lon="-1.59025">
        <ele>214.03</ele>
        <time>2012-08-18T06:43:34Z</time>
      </trkpt>
      <trkpt lat="43.33265" lon="-1.59025">
        <ele>214.03</ele>
        <time>2012-08-18T06:43:35Z</time>
      </trkpt>
      <trkpt lat="43.33295" lon="-1.59029">
        <ele>214.03</ele>
        <time>2012-08-18T06:43:49Z</time>
      </trkpt>
      <trkpt lat="43.33328" lon="-1.59001">
        <ele>214.99</ele>
        <time>2012-08-18T06:44:03Z</time>
      </trkpt>
      <trkpt lat="43.3334" lon="-1.58939">
        <ele>216.43</ele>
        <time>2012-08-18T06:44:17Z</time>
      </trkpt>
      <trkpt lat="43.33351" lon="-1.5889">
        <ele>218.36</ele>
        <time>2012-08-18T06:44:31Z</time>
      </trkpt>
      <trkpt lat="43.33371" lon="-1.58858">
        <ele>221.24</ele>
        <time>2012-08-18T06:44:46Z</time>
      </trkpt>
      <trkpt lat="43.33394" lon="-1.58838">
        <ele>224.12</ele>
        <time>2012-08-18T06:45:01Z</time>
      </trkpt>
      <trkpt lat="43.33414" lon="-1.58816">
        <ele>227.01</ele>
        <time>2012-08-18T06:45:16Z</time>
      </trkpt>
      <trkpt lat="43.33424" lon="-1.58801">
        <ele>229.41</ele>
        <time>2012-08-18T06:45:25Z</time>
      </trkpt>
      <trkpt lat="43.33425" lon="-1.58798">
        <ele>229.41</ele>
        <time>2012-08-18T06:45:26Z</time>
      </trkpt>
      <trkpt lat="43.33426" lon="-1.58796">
        <ele>229.41</ele>
        <time>2012-08-18T06:45:27Z</time>
      </trkpt>
      <trkpt lat="43.33436" lon="-1.58774">
        <ele>232.78</ele>
        <time>2012-08-18T06:45:40Z</time>
      </trkpt>
      <trkpt lat="43.33437" lon="-1.58773">
        <ele>232.3</ele>
        <time>2012-08-18T06:45:41Z</time>
      </trkpt>
      <trkpt lat="43.33438" lon="-1.58771">
        <ele>233.26</ele>
        <time>2012-08-18T06:45:42Z</time>
      </trkpt>
      <trkpt lat="43.33439" lon="-1.58766">
        <ele>234.22</ele>
        <time>2012-08-18T06:45:45Z</time>
      </trkpt>
      <trkpt lat="43.3344" lon="-1.58765">
        <ele>234.22</ele>
        <time>2012-08-18T06:45:46Z</time>
      </trkpt>
      <trkpt lat="43.33441" lon="-1.58763">
        <ele>234.22</ele>
        <time>2012-08-18T06:45:47Z</time>
      </trkpt>
      <trkpt lat="43.33442" lon="-1.58762">
        <ele>234.7</ele>
        <time>2012-08-18T06:45:48Z</time>
      </trkpt>
      <trkpt lat="43.33442" lon="-1.5876">
        <ele>235.18</ele>
        <time>2012-08-18T06:45:49Z</time>
      </trkpt>
      <trkpt lat="43.33443" lon="-1.58758">
        <ele>234.7</ele>
        <time>2012-08-18T06:45:50Z</time>
      </trkpt>
      <trkpt lat="43.33444" lon="-1.58756">
        <ele>235.18</ele>
        <time>2012-08-18T06:45:51Z</time>
      </trkpt>
      <trkpt lat="43.33449" lon="-1.5875">
        <ele>236.62</ele>
        <time>2012-08-18T06:45:56Z</time>
      </trkpt>
      <trkpt lat="43.33453" lon="-1.58743">
        <ele>237.1</ele>
        <time>2012-08-18T06:46:02Z</time>
      </trkpt>
      <trkpt lat="43.33454" lon="-1.58743">
        <ele>236.62</ele>
        <time>2012-08-18T06:46:03Z</time>
      </trkpt>
      <trkpt lat="43.33455" lon="-1.58742">
        <ele>236.62</ele>
        <time>2012-08-18T06:46:04Z</time>
      </trkpt>
      <trkpt lat="43.33457" lon="-1.58742">
        <ele>236.62</ele>
        <time>2012-08-18T06:46:05Z</time>
      </trkpt>
      <trkpt lat="43.33459" lon="-1.58742">
        <ele>236.62</ele>
        <time>2012-08-18T06:46:06Z</time>
      </trkpt>
      <trkpt lat="43.33471" lon="-1.5875">
        <ele>234.7</ele>
        <time>2012-08-18T06:46:10Z</time>
      </trkpt>
      <trkpt lat="43.33475" lon="-1.58755">
        <ele>233.74</ele>
        <time>2012-08-18T06:46:11Z</time>
      </trkpt>
      <trkpt lat="43.33479" lon="-1.5876">
        <ele>232.78</ele>
        <time>2012-08-18T06:46:12Z</time>
      </trkpt>
      <trkpt lat="43.33484" lon="-1.58765">
        <ele>231.81</ele>
        <time>2012-08-18T06:46:13Z</time>
      </trkpt>
      <trkpt lat="43.3349" lon="-1.58769">
        <ele>230.85</ele>
        <time>2012-08-18T06:46:14Z</time>
      </trkpt>
      <trkpt lat="43.33503" lon="-1.58779">
        <ele>228.93</ele>
        <time>2012-08-18T06:46:16Z</time>
      </trkpt>
      <trkpt lat="43.3351" lon="-1.58784">
        <ele>228.93</ele>
        <time>2012-08-18T06:46:17Z</time>
      </trkpt>
      <trkpt lat="43.33542" lon="-1.58799">
        <ele>225.09</ele>
        <time>2012-08-18T06:46:21Z</time>
      </trkpt>
      <trkpt lat="43.3355" lon="-1.58803">
        <ele>225.09</ele>
        <time>2012-08-18T06:46:22Z</time>
      </trkpt>
      <trkpt lat="43.33576" lon="-1.58818">
        <ele>221.72</ele>
        <time>2012-08-18T06:46:25Z</time>
      </trkpt>
      <trkpt lat="43.33603" lon="-1.58835">
        <ele>218.36</ele>
        <time>2012-08-18T06:46:28Z</time>
      </trkpt>
      <trkpt lat="43.33639" lon="-1.58864">
        <ele>214.51</ele>
        <time>2012-08-18T06:46:32Z</time>
      </trkpt>
      <trkpt lat="43.33645" lon="-1.58875">
        <ele>214.03</ele>
        <time>2012-08-18T06:46:33Z</time>
      </trkpt>
      <trkpt lat="43.3365" lon="-1.58887">
        <ele>213.07</ele>
        <time>2012-08-18T06:46:34Z</time>
      </trkpt>
      <trkpt lat="43.33653" lon="-1.589">
        <ele>212.59</ele>
        <time>2012-08-18T06:46:35Z</time>
      </trkpt>
      <trkpt lat="43.33656" lon="-1.58912">
        <ele>212.59</ele>
        <time>2012-08-18T06:46:36Z</time>
      </trkpt>
      <trkpt lat="43.33658" lon="-1.58924">
        <ele>212.11</ele>
        <time>2012-08-18T06:46:37Z</time>
      </trkpt>
      <trkpt lat="43.33686" lon="-1.59042">
        <ele>210.67</ele>
        <time>2012-08-18T06:46:49Z</time>
      </trkpt>
      <trkpt lat="43.337" lon="-1.59129">
        <ele>211.15</ele>
        <time>2012-08-18T06:47:01Z</time>
      </trkpt>
      <trkpt lat="43.33702" lon="-1.59135">
        <ele>211.15</ele>
        <time>2012-08-18T06:47:02Z</time>
      </trkpt>
      <trkpt lat="43.33704" lon="-1.59142">
        <ele>210.67</ele>
        <time>2012-08-18T06:47:03Z</time>
      </trkpt>
      <trkpt lat="43.33706" lon="-1.59149">
        <ele>210.67</ele>
        <time>2012-08-18T06:47:04Z</time>
      </trkpt>
      <trkpt lat="43.33709" lon="-1.59156">
        <ele>210.67</ele>
        <time>2012-08-18T06:47:05Z</time>
      </trkpt>
      <trkpt lat="43.33712" lon="-1.59162">
        <ele>209.7</ele>
        <time>2012-08-18T06:47:06Z</time>
      </trkpt>
      <trkpt lat="43.33716" lon="-1.59169">
        <ele>209.22</ele>
        <time>2012-08-18T06:47:07Z</time>
      </trkpt>
      <trkpt lat="43.33725" lon="-1.59183">
        <ele>208.26</ele>
        <time>2012-08-18T06:47:09Z</time>
      </trkpt>
      <trkpt lat="43.3373" lon="-1.59189">
        <ele>207.78</ele>
        <time>2012-08-18T06:47:10Z</time>
      </trkpt>
      <trkpt lat="43.33736" lon="-1.59195">
        <ele>207.3</ele>
        <time>2012-08-18T06:47:11Z</time>
      </trkpt>
      <trkpt lat="43.33772" lon="-1.59235">
        <ele>206.34</ele>
        <time>2012-08-18T06:47:18Z</time>
      </trkpt>
      <trkpt lat="43.33776" lon="-1.59242">
        <ele>205.38</ele>
        <time>2012-08-18T06:47:19Z</time>
      </trkpt>
      <trkpt lat="43.33781" lon="-1.59256">
        <ele>205.86</ele>
        <time>2012-08-18T06:47:21Z</time>
      </trkpt>
      <trkpt lat="43.33788" lon="-1.59284">
        <ele>206.34</ele>
        <time>2012-08-18T06:47:25Z</time>
      </trkpt>
      <trkpt lat="43.33788" lon="-1.59291">
        <ele>206.34</ele>
        <time>2012-08-18T06:47:26Z</time>
      </trkpt>
      <trkpt lat="43.33787" lon="-1.59311">
        <ele>207.3</ele>
        <time>2012-08-18T06:47:29Z</time>
      </trkpt>
      <trkpt lat="43.33788" lon="-1.59385">
        <ele>210.67</ele>
        <time>2012-08-18T06:47:43Z</time>
      </trkpt>
      <trkpt lat="43.33809" lon="-1.5944">
        <ele>214.03</ele>
        <time>2012-08-18T06:47:57Z</time>
      </trkpt>
      <trkpt lat="43.33848" lon="-1.59489">
        <ele>214.03</ele>
        <time>2012-08-18T06:48:13Z</time>
      </trkpt>
      <trkpt lat="43.33894" lon="-1.59547">
        <ele>215.47</ele>
        <time>2012-08-18T06:48:31Z</time>
      </trkpt>
      <trkpt lat="43.33925" lon="-1.5959">
        <ele>217.4</ele>
        <time>2012-08-18T06:48:47Z</time>
      </trkpt>
      <trkpt lat="43.33935" lon="-1.59593">
        <ele>218.84</ele>
        <time>2012-08-18T06:48:55Z</time>
      </trkpt>
      <trkpt lat="43.33939" lon="-1.59591">
        <ele>219.32</ele>
        <time>2012-08-18T06:49:01Z</time>
      </trkpt>
      <trkpt lat="43.33941" lon="-1.59591">
        <ele>219.32</ele>
        <time>2012-08-18T06:49:03Z</time>
      </trkpt>
      <trkpt lat="43.33942" lon="-1.5959">
        <ele>219.32</ele>
        <time>2012-08-18T06:49:04Z</time>
      </trkpt>
      <trkpt lat="43.33944" lon="-1.59589">
        <ele>219.8</ele>
        <time>2012-08-18T06:49:05Z</time>
      </trkpt>
      <trkpt lat="43.33946" lon="-1.59588">
        <ele>219.8</ele>
        <time>2012-08-18T06:49:06Z</time>
      </trkpt>
      <trkpt lat="43.33947" lon="-1.59587">
        <ele>219.8</ele>
        <time>2012-08-18T06:49:07Z</time>
      </trkpt>
      <trkpt lat="43.33989" lon="-1.59563">
        <ele>218.36</ele>
        <time>2012-08-18T06:49:22Z</time>
      </trkpt>
      <trkpt lat="43.33993" lon="-1.59561">
        <ele>217.88</ele>
        <time>2012-08-18T06:49:23Z</time>
      </trkpt>
      <trkpt lat="43.33997" lon="-1.59558">
        <ele>218.36</ele>
        <time>2012-08-18T06:49:24Z</time>
      </trkpt>
      <trkpt lat="43.34002" lon="-1.59555">
        <ele>217.4</ele>
        <time>2012-08-18T06:49:25Z</time>
      </trkpt>
      <trkpt lat="43.34006" lon="-1.59552">
        <ele>217.88</ele>
        <time>2012-08-18T06:49:26Z</time>
      </trkpt>
      <trkpt lat="43.3403" lon="-1.59537">
        <ele>214.99</ele>
        <time>2012-08-18T06:49:30Z</time>
      </trkpt>
      <trkpt lat="43.34044" lon="-1.59529">
        <ele>214.03</ele>
        <time>2012-08-18T06:49:32Z</time>
      </trkpt>
      <trkpt lat="43.34093" lon="-1.595">
        <ele>215.47</ele>
        <time>2012-08-18T06:49:41Z</time>
      </trkpt>
      <trkpt lat="43.34114" lon="-1.59486">
        <ele>218.36</ele>
        <time>2012-08-18T06:49:49Z</time>
      </trkpt>
      <trkpt lat="43.34134" lon="-1.59473">
        <ele>221.72</ele>
        <time>2012-08-18T06:49:59Z</time>
      </trkpt>
      <trkpt lat="43.34169" lon="-1.5945">
        <ele>223.64</ele>
        <time>2012-08-18T06:50:17Z</time>
      </trkpt>
      <trkpt lat="43.34191" lon="-1.59437">
        <ele>222.2</ele>
        <time>2012-08-18T06:50:29Z</time>
      </trkpt>
      <trkpt lat="43.34194" lon="-1.59435">
        <ele>222.2</ele>
        <time>2012-08-18T06:50:30Z</time>
      </trkpt>
      <trkpt lat="43.3421" lon="-1.59425">
        <ele>221.24</ele>
        <time>2012-08-18T06:50:35Z</time>
      </trkpt>
      <trkpt lat="43.34215" lon="-1.59424">
        <ele>220.28</ele>
        <time>2012-08-18T06:50:36Z</time>
      </trkpt>
      <trkpt lat="43.3422" lon="-1.59425">
        <ele>220.28</ele>
        <time>2012-08-18T06:50:37Z</time>
      </trkpt>
      <trkpt lat="43.34225" lon="-1.59428">
        <ele>218.84</ele>
        <time>2012-08-18T06:50:38Z</time>
      </trkpt>
      <trkpt lat="43.34229" lon="-1.59433">
        <ele>218.84</ele>
        <time>2012-08-18T06:50:39Z</time>
      </trkpt>
      <trkpt lat="43.34233" lon="-1.59438">
        <ele>218.84</ele>
        <time>2012-08-18T06:50:40Z</time>
      </trkpt>
      <trkpt lat="43.34236" lon="-1.59443">
        <ele>218.36</ele>
        <time>2012-08-18T06:50:41Z</time>
      </trkpt>
      <trkpt lat="43.3424" lon="-1.59448">
        <ele>217.88</ele>
        <time>2012-08-18T06:50:42Z</time>
      </trkpt>
      <trkpt lat="43.34253" lon="-1.59468">
        <ele>215.47</ele>
        <time>2012-08-18T06:50:45Z</time>
      </trkpt>
      <trkpt lat="43.34258" lon="-1.59476">
        <ele>214.51</ele>
        <time>2012-08-18T06:50:46Z</time>
      </trkpt>
      <trkpt lat="43.34264" lon="-1.59484">
        <ele>213.55</ele>
        <time>2012-08-18T06:50:47Z</time>
      </trkpt>
      <trkpt lat="43.34269" lon="-1.59492">
        <ele>211.63</ele>
        <time>2012-08-18T06:50:48Z</time>
      </trkpt>
      <trkpt lat="43.34275" lon="-1.59501">
        <ele>211.15</ele>
        <time>2012-08-18T06:50:49Z</time>
      </trkpt>
      <trkpt lat="43.34281" lon="-1.5951">
        <ele>209.7</ele>
        <time>2012-08-18T06:50:50Z</time>
      </trkpt>
      <trkpt lat="43.34288" lon="-1.5952">
        <ele>207.78</ele>
        <time>2012-08-18T06:50:51Z</time>
      </trkpt>
      <trkpt lat="43.34315" lon="-1.59559">
        <ele>204.42</ele>
        <time>2012-08-18T06:50:55Z</time>
      </trkpt>
      <trkpt lat="43.34328" lon="-1.59579">
        <ele>202.01</ele>
        <time>2012-08-18T06:50:57Z</time>
      </trkpt>
      <trkpt lat="43.34341" lon="-1.59599">
        <ele>199.13</ele>
        <time>2012-08-18T06:50:59Z</time>
      </trkpt>
      <trkpt lat="43.34361" lon="-1.59632">
        <ele>194.8</ele>
        <time>2012-08-18T06:51:02Z</time>
      </trkpt>
      <trkpt lat="43.34367" lon="-1.59645">
        <ele>193.84</ele>
        <time>2012-08-18T06:51:03Z</time>
      </trkpt>
      <trkpt lat="43.34371" lon="-1.59656">
        <ele>193.84</ele>
        <time>2012-08-18T06:51:04Z</time>
      </trkpt>
      <trkpt lat="43.34374" lon="-1.59668">
        <ele>192.4</ele>
        <time>2012-08-18T06:51:05Z</time>
      </trkpt>
      <trkpt lat="43.34377" lon="-1.5968">
        <ele>192.4</ele>
        <time>2012-08-18T06:51:06Z</time>
      </trkpt>
      <trkpt lat="43.34379" lon="-1.59692">
        <ele>191.44</ele>
        <time>2012-08-18T06:51:07Z</time>
      </trkpt>
      <trkpt lat="43.34383" lon="-1.59716">
        <ele>190.96</ele>
        <time>2012-08-18T06:51:09Z</time>
      </trkpt>
      <trkpt lat="43.34384" lon="-1.59728">
        <ele>190</ele>
        <time>2012-08-18T06:51:10Z</time>
      </trkpt>
      <trkpt lat="43.34385" lon="-1.5974">
        <ele>190</ele>
        <time>2012-08-18T06:51:11Z</time>
      </trkpt>
      <trkpt lat="43.34385" lon="-1.59751">
        <ele>189.04</ele>
        <time>2012-08-18T06:51:12Z</time>
      </trkpt>
      <trkpt lat="43.34384" lon="-1.59762">
        <ele>188.56</ele>
        <time>2012-08-18T06:51:13Z</time>
      </trkpt>
      <trkpt lat="43.34384" lon="-1.59784">
        <ele>186.15</ele>
        <time>2012-08-18T06:51:15Z</time>
      </trkpt>
      <trkpt lat="43.34386" lon="-1.5981">
        <ele>184.23</ele>
        <time>2012-08-18T06:51:18Z</time>
      </trkpt>
      <trkpt lat="43.34387" lon="-1.59817">
        <ele>183.27</ele>
        <time>2012-08-18T06:51:19Z</time>
      </trkpt>
      <trkpt lat="43.34388" lon="-1.59847">
        <ele>179.9</ele>
        <time>2012-08-18T06:51:23Z</time>
      </trkpt>
      <trkpt lat="43.34387" lon="-1.59856">
        <ele>178.46</ele>
        <time>2012-08-18T06:51:24Z</time>
      </trkpt>
      <trkpt lat="43.34386" lon="-1.59864">
        <ele>177.98</ele>
        <time>2012-08-18T06:51:25Z</time>
      </trkpt>
      <trkpt lat="43.34384" lon="-1.59871">
        <ele>176.06</ele>
        <time>2012-08-18T06:51:26Z</time>
      </trkpt>
      <trkpt lat="43.34383" lon="-1.59878">
        <ele>175.1</ele>
        <time>2012-08-18T06:51:27Z</time>
      </trkpt>
      <trkpt lat="43.34383" lon="-1.59886">
        <ele>173.66</ele>
        <time>2012-08-18T06:51:28Z</time>
      </trkpt>
      <trkpt lat="43.34383" lon="-1.59894">
        <ele>172.21</ele>
        <time>2012-08-18T06:51:29Z</time>
      </trkpt>
      <trkpt lat="43.34384" lon="-1.59903">
        <ele>170.77</ele>
        <time>2012-08-18T06:51:30Z</time>
      </trkpt>
      <trkpt lat="43.34388" lon="-1.5994">
        <ele>166.93</ele>
        <time>2012-08-18T06:51:34Z</time>
      </trkpt>
      <trkpt lat="43.34389" lon="-1.59948">
        <ele>165.96</ele>
        <time>2012-08-18T06:51:35Z</time>
      </trkpt>
      <trkpt lat="43.34391" lon="-1.59955">
        <ele>165</ele>
        <time>2012-08-18T06:51:36Z</time>
      </trkpt>
      <trkpt lat="43.34394" lon="-1.59961">
        <ele>164.04</ele>
        <time>2012-08-18T06:51:37Z</time>
      </trkpt>
      <trkpt lat="43.34397" lon="-1.59967">
        <ele>164.04</ele>
        <time>2012-08-18T06:51:38Z</time>
      </trkpt>
      <trkpt lat="43.344" lon="-1.59973">
        <ele>163.56</ele>
        <time>2012-08-18T06:51:39Z</time>
      </trkpt>
      <trkpt lat="43.34402" lon="-1.5998">
        <ele>162.12</ele>
        <time>2012-08-18T06:51:40Z</time>
      </trkpt>
      <trkpt lat="43.34404" lon="-1.59988">
        <ele>161.64</ele>
        <time>2012-08-18T06:51:41Z</time>
      </trkpt>
      <trkpt lat="43.34405" lon="-1.59997">
        <ele>160.2</ele>
        <time>2012-08-18T06:51:42Z</time>
      </trkpt>
      <trkpt lat="43.34406" lon="-1.60005">
        <ele>159.24</ele>
        <time>2012-08-18T06:51:43Z</time>
      </trkpt>
      <trkpt lat="43.34406" lon="-1.60012">
        <ele>157.79</ele>
        <time>2012-08-18T06:51:44Z</time>
      </trkpt>
      <trkpt lat="43.34405" lon="-1.60018">
        <ele>156.83</ele>
        <time>2012-08-18T06:51:45Z</time>
      </trkpt>
      <trkpt lat="43.34405" lon="-1.60023">
        <ele>156.35</ele>
        <time>2012-08-18T06:51:46Z</time>
      </trkpt>
      <trkpt lat="43.34406" lon="-1.60027">
        <ele>155.39</ele>
        <time>2012-08-18T06:51:47Z</time>
      </trkpt>
      <trkpt lat="43.34406" lon="-1.60033">
        <ele>155.39</ele>
        <time>2012-08-18T06:51:48Z</time>
      </trkpt>
      <trkpt lat="43.34407" lon="-1.6004">
        <ele>154.43</ele>
        <time>2012-08-18T06:51:49Z</time>
      </trkpt>
      <trkpt lat="43.34408" lon="-1.60062">
        <ele>151.06</ele>
        <time>2012-08-18T06:51:52Z</time>
      </trkpt>
      <trkpt lat="43.34409" lon="-1.60069">
        <ele>149.62</ele>
        <time>2012-08-18T06:51:53Z</time>
      </trkpt>
      <trkpt lat="43.3441" lon="-1.60077">
        <ele>148.66</ele>
        <time>2012-08-18T06:51:54Z</time>
      </trkpt>
      <trkpt lat="43.3441" lon="-1.60084">
        <ele>147.7</ele>
        <time>2012-08-18T06:51:55Z</time>
      </trkpt>
      <trkpt lat="43.34409" lon="-1.60091">
        <ele>146.74</ele>
        <time>2012-08-18T06:51:56Z</time>
      </trkpt>
      <trkpt lat="43.34407" lon="-1.60109">
        <ele>143.37</ele>
        <time>2012-08-18T06:51:58Z</time>
      </trkpt>
      <trkpt lat="43.34407" lon="-1.60134">
        <ele>139.53</ele>
        <time>2012-08-18T06:52:00Z</time>
      </trkpt>
      <trkpt lat="43.34406" lon="-1.6016">
        <ele>135.68</ele>
        <time>2012-08-18T06:52:02Z</time>
      </trkpt>
      <trkpt lat="43.34405" lon="-1.60189">
        <ele>134.24</ele>
        <time>2012-08-18T06:52:04Z</time>
      </trkpt>
      <trkpt lat="43.34409" lon="-1.60237">
        <ele>135.68</ele>
        <time>2012-08-18T06:52:10Z</time>
      </trkpt>
      <trkpt lat="43.34408" lon="-1.60239">
        <ele>135.68</ele>
        <time>2012-08-18T06:52:11Z</time>
      </trkpt>
      <trkpt lat="43.34408" lon="-1.60241">
        <ele>135.68</ele>
        <time>2012-08-18T06:52:12Z</time>
      </trkpt>
      <trkpt lat="43.34408" lon="-1.60244">
        <ele>135.2</ele>
        <time>2012-08-18T06:52:16Z</time>
      </trkpt>
      <trkpt lat="43.34409" lon="-1.60246">
        <ele>135.2</ele>
        <time>2012-08-18T06:52:17Z</time>
      </trkpt>
      <trkpt lat="43.3442" lon="-1.60286">
        <ele>134.24</ele>
        <time>2012-08-18T06:52:27Z</time>
      </trkpt>
      <trkpt lat="43.34423" lon="-1.60299">
        <ele>133.76</ele>
        <time>2012-08-18T06:52:30Z</time>
      </trkpt>
      <trkpt lat="43.34425" lon="-1.60303">
        <ele>133.76</ele>
        <time>2012-08-18T06:52:31Z</time>
      </trkpt>
      <trkpt lat="43.34427" lon="-1.60306">
        <ele>134.24</ele>
        <time>2012-08-18T06:52:32Z</time>
      </trkpt>
      <trkpt lat="43.34429" lon="-1.60308">
        <ele>134.72</ele>
        <time>2012-08-18T06:52:33Z</time>
      </trkpt>
      <trkpt lat="43.34431" lon="-1.6031">
        <ele>134.24</ele>
        <time>2012-08-18T06:52:34Z</time>
      </trkpt>
      <trkpt lat="43.34457" lon="-1.60338">
        <ele>134.72</ele>
        <time>2012-08-18T06:52:47Z</time>
      </trkpt>
      <trkpt lat="43.34482" lon="-1.60364">
        <ele>133.28</ele>
        <time>2012-08-18T06:52:59Z</time>
      </trkpt>
      <trkpt lat="43.34492" lon="-1.60371">
        <ele>131.84</ele>
        <time>2012-08-18T06:53:02Z</time>
      </trkpt>
      <trkpt lat="43.34507" lon="-1.60376">
        <ele>129.43</ele>
        <time>2012-08-18T06:53:05Z</time>
      </trkpt>
      <trkpt lat="43.34513" lon="-1.60377">
        <ele>129.43</ele>
        <time>2012-08-18T06:53:06Z</time>
      </trkpt>
      <trkpt lat="43.34519" lon="-1.60379">
        <ele>129.43</ele>
        <time>2012-08-18T06:53:07Z</time>
      </trkpt>
      <trkpt lat="43.34545" lon="-1.60386">
        <ele>125.59</ele>
        <time>2012-08-18T06:53:11Z</time>
      </trkpt>
      <trkpt lat="43.34569" lon="-1.6039">
        <ele>124.15</ele>
        <time>2012-08-18T06:53:14Z</time>
      </trkpt>
      <trkpt lat="43.34588" lon="-1.60389">
        <ele>125.11</ele>
        <time>2012-08-18T06:53:17Z</time>
      </trkpt>
      <trkpt lat="43.34593" lon="-1.60388">
        <ele>125.59</ele>
        <time>2012-08-18T06:53:18Z</time>
      </trkpt>
      <trkpt lat="43.34597" lon="-1.60387">
        <ele>126.55</ele>
        <time>2012-08-18T06:53:19Z</time>
      </trkpt>
      <trkpt lat="43.346" lon="-1.60386">
        <ele>126.55</ele>
        <time>2012-08-18T06:53:20Z</time>
      </trkpt>
      <trkpt lat="43.34603" lon="-1.60384">
        <ele>127.03</ele>
        <time>2012-08-18T06:53:21Z</time>
      </trkpt>
      <trkpt lat="43.34606" lon="-1.60383">
        <ele>127.03</ele>
        <time>2012-08-18T06:53:22Z</time>
      </trkpt>
      <trkpt lat="43.34609" lon="-1.60381">
        <ele>127.51</ele>
        <time>2012-08-18T06:53:23Z</time>
      </trkpt>
      <trkpt lat="43.34611" lon="-1.60379">
        <ele>127.51</ele>
        <time>2012-08-18T06:53:24Z</time>
      </trkpt>
      <trkpt lat="43.34613" lon="-1.60376">
        <ele>128.47</ele>
        <time>2012-08-18T06:53:25Z</time>
      </trkpt>
      <trkpt lat="43.34632" lon="-1.60352">
        <ele>131.36</ele>
        <time>2012-08-18T06:53:37Z</time>
      </trkpt>
      <trkpt lat="43.34633" lon="-1.60351">
        <ele>131.84</ele>
        <time>2012-08-18T06:53:38Z</time>
      </trkpt>
      <trkpt lat="43.34635" lon="-1.6035">
        <ele>131.84</ele>
        <time>2012-08-18T06:53:39Z</time>
      </trkpt>
      <trkpt lat="43.34637" lon="-1.6035">
        <ele>131.84</ele>
        <time>2012-08-18T06:53:40Z</time>
      </trkpt>
      <trkpt lat="43.34639" lon="-1.60349">
        <ele>131.84</ele>
        <time>2012-08-18T06:53:41Z</time>
      </trkpt>
      <trkpt lat="43.34642" lon="-1.60348">
        <ele>132.32</ele>
        <time>2012-08-18T06:53:42Z</time>
      </trkpt>
      <trkpt lat="43.34645" lon="-1.60348">
        <ele>131.84</ele>
        <time>2012-08-18T06:53:43Z</time>
      </trkpt>
      <trkpt lat="43.34648" lon="-1.60348">
        <ele>131.36</ele>
        <time>2012-08-18T06:53:44Z</time>
      </trkpt>
      <trkpt lat="43.34652" lon="-1.60348">
        <ele>130.88</ele>
        <time>2012-08-18T06:53:45Z</time>
      </trkpt>
      <trkpt lat="43.34656" lon="-1.60349">
        <ele>130.88</ele>
        <time>2012-08-18T06:53:46Z</time>
      </trkpt>
      <trkpt lat="43.3466" lon="-1.60351">
        <ele>130.88</ele>
        <time>2012-08-18T06:53:47Z</time>
      </trkpt>
      <trkpt lat="43.34696" lon="-1.60369">
        <ele>131.36</ele>
        <time>2012-08-18T06:54:00Z</time>
      </trkpt>
      <trkpt lat="43.34734" lon="-1.6038">
        <ele>131.36</ele>
        <time>2012-08-18T06:54:12Z</time>
      </trkpt>
      <trkpt lat="43.34752" lon="-1.60381">
        <ele>130.4</ele>
        <time>2012-08-18T06:54:22Z</time>
      </trkpt>
      <trkpt lat="43.34755" lon="-1.60382">
        <ele>130.88</ele>
        <time>2012-08-18T06:54:40Z</time>
      </trkpt>
      <trkpt lat="43.34771" lon="-1.60402">
        <ele>128.95</ele>
        <time>2012-08-18T06:54:47Z</time>
      </trkpt>
      <trkpt lat="43.34774" lon="-1.60407">
        <ele>127.99</ele>
        <time>2012-08-18T06:54:48Z</time>
      </trkpt>
      <trkpt lat="43.34777" lon="-1.60413">
        <ele>127.51</ele>
        <time>2012-08-18T06:54:49Z</time>
      </trkpt>
      <trkpt lat="43.34781" lon="-1.60419">
        <ele>126.55</ele>
        <time>2012-08-18T06:54:50Z</time>
      </trkpt>
      <trkpt lat="43.34785" lon="-1.60425">
        <ele>126.55</ele>
        <time>2012-08-18T06:54:51Z</time>
      </trkpt>
      <trkpt lat="43.34789" lon="-1.60432">
        <ele>126.07</ele>
        <time>2012-08-18T06:54:52Z</time>
      </trkpt>
      <trkpt lat="43.34811" lon="-1.60458">
        <ele>125.11</ele>
        <time>2012-08-18T06:54:57Z</time>
      </trkpt>
      <trkpt lat="43.34816" lon="-1.60462">
        <ele>125.11</ele>
        <time>2012-08-18T06:54:58Z</time>
      </trkpt>
      <trkpt lat="43.34828" lon="-1.6047">
        <ele>125.11</ele>
        <time>2012-08-18T06:55:01Z</time>
      </trkpt>
      <trkpt lat="43.34833" lon="-1.60473">
        <ele>124.63</ele>
        <time>2012-08-18T06:55:02Z</time>
      </trkpt>
      <trkpt lat="43.34837" lon="-1.60475">
        <ele>124.63</ele>
        <time>2012-08-18T06:55:03Z</time>
      </trkpt>
      <trkpt lat="43.34841" lon="-1.60477">
        <ele>124.63</ele>
        <time>2012-08-18T06:55:04Z</time>
      </trkpt>
      <trkpt lat="43.34845" lon="-1.60478">
        <ele>124.63</ele>
        <time>2012-08-18T06:55:05Z</time>
      </trkpt>
      <trkpt lat="43.34853" lon="-1.60482">
        <ele>124.63</ele>
        <time>2012-08-18T06:55:07Z</time>
      </trkpt>
      <trkpt lat="43.34862" lon="-1.60485">
        <ele>124.63</ele>
        <time>2012-08-18T06:55:09Z</time>
      </trkpt>
      <trkpt lat="43.34866" lon="-1.60486">
        <ele>123.67</ele>
        <time>2012-08-18T06:55:10Z</time>
      </trkpt>
      <trkpt lat="43.34871" lon="-1.60488">
        <ele>123.67</ele>
        <time>2012-08-18T06:55:11Z</time>
      </trkpt>
      <trkpt lat="43.34894" lon="-1.605">
        <ele>123.19</ele>
        <time>2012-08-18T06:55:16Z</time>
      </trkpt>
      <trkpt lat="43.34898" lon="-1.60502">
        <ele>123.67</ele>
        <time>2012-08-18T06:55:17Z</time>
      </trkpt>
      <trkpt lat="43.34932" lon="-1.60515">
        <ele>125.59</ele>
        <time>2012-08-18T06:55:27Z</time>
      </trkpt>
      <trkpt lat="43.34945" lon="-1.60521">
        <ele>127.51</ele>
        <time>2012-08-18T06:55:33Z</time>
      </trkpt>
      <trkpt lat="43.34947" lon="-1.60522">
        <ele>127.51</ele>
        <time>2012-08-18T06:55:34Z</time>
      </trkpt>
      <trkpt lat="43.3495" lon="-1.60522">
        <ele>127.51</ele>
        <time>2012-08-18T06:55:35Z</time>
      </trkpt>
      <trkpt lat="43.34953" lon="-1.60523">
        <ele>127.51</ele>
        <time>2012-08-18T06:55:36Z</time>
      </trkpt>
      <trkpt lat="43.34955" lon="-1.60525">
        <ele>127.99</ele>
        <time>2012-08-18T06:55:37Z</time>
      </trkpt>
      <trkpt lat="43.34981" lon="-1.60541">
        <ele>127.03</ele>
        <time>2012-08-18T06:55:48Z</time>
      </trkpt>
      <trkpt lat="43.34987" lon="-1.60546">
        <ele>127.51</ele>
        <time>2012-08-18T06:55:52Z</time>
      </trkpt>
      <trkpt lat="43.34989" lon="-1.60546">
        <ele>127.03</ele>
        <time>2012-08-18T06:55:53Z</time>
      </trkpt>
      <trkpt lat="43.34991" lon="-1.60546">
        <ele>127.03</ele>
        <time>2012-08-18T06:55:54Z</time>
      </trkpt>
      <trkpt lat="43.34992" lon="-1.60545">
        <ele>126.55</ele>
        <time>2012-08-18T06:55:55Z</time>
      </trkpt>
      <trkpt lat="43.34994" lon="-1.60545">
        <ele>126.55</ele>
        <time>2012-08-18T06:55:56Z</time>
      </trkpt>
      <trkpt lat="43.34995" lon="-1.60545">
        <ele>126.07</ele>
        <time>2012-08-18T06:55:57Z</time>
      </trkpt>
      <trkpt lat="43.34996" lon="-1.60544">
        <ele>126.07</ele>
        <time>2012-08-18T06:55:58Z</time>
      </trkpt>
      <trkpt lat="43.34997" lon="-1.60543">
        <ele>125.59</ele>
        <time>2012-08-18T06:55:59Z</time>
      </trkpt>
      <trkpt lat="43.34998" lon="-1.60543">
        <ele>126.07</ele>
        <time>2012-08-18T06:56:00Z</time>
      </trkpt>
      <trkpt lat="43.34999" lon="-1.60543">
        <ele>126.07</ele>
        <time>2012-08-18T06:56:01Z</time>
      </trkpt>
      <trkpt lat="43.35" lon="-1.60543">
        <ele>126.07</ele>
        <time>2012-08-18T06:56:07Z</time>
      </trkpt>
      <trkpt lat="43.35" lon="-1.60542">
        <ele>125.59</ele>
        <time>2012-08-18T06:56:08Z</time>
      </trkpt>
      <trkpt lat="43.35004" lon="-1.6054">
        <ele>125.59</ele>
        <time>2012-08-18T06:56:11Z</time>
      </trkpt>
      <trkpt lat="43.35006" lon="-1.60541">
        <ele>125.59</ele>
        <time>2012-08-18T06:56:12Z</time>
      </trkpt>
      <trkpt lat="43.35007" lon="-1.60543">
        <ele>125.59</ele>
        <time>2012-08-18T06:56:13Z</time>
      </trkpt>
      <trkpt lat="43.35011" lon="-1.60553">
        <ele>126.55</ele>
        <time>2012-08-18T06:56:17Z</time>
      </trkpt>
      <trkpt lat="43.35008" lon="-1.60567">
        <ele>127.03</ele>
        <time>2012-08-18T06:56:22Z</time>
      </trkpt>
      <trkpt lat="43.35001" lon="-1.60569">
        <ele>127.99</ele>
        <time>2012-08-18T06:56:34Z</time>
      </trkpt>
      <trkpt lat="43.35001" lon="-1.6057">
        <ele>128.47</ele>
        <time>2012-08-18T06:56:59Z</time>
      </trkpt>
      <trkpt lat="43.34999" lon="-1.6057">
        <ele>127.99</ele>
        <time>2012-08-18T06:57:07Z</time>
      </trkpt>
      <trkpt lat="43.34995" lon="-1.60565">
        <ele>127.99</ele>
        <time>2012-08-18T06:57:11Z</time>
      </trkpt>
      <trkpt lat="43.34986" lon="-1.60554">
        <ele>127.99</ele>
        <time>2012-08-18T06:57:23Z</time>
      </trkpt>
      <trkpt lat="43.34987" lon="-1.60554">
        <ele>127.51</ele>
        <time>2012-08-18T06:57:52Z</time>
      </trkpt>
      <trkpt lat="43.34987" lon="-1.60553">
        <ele>127.51</ele>
        <time>2012-08-18T06:58:31Z</time>
      </trkpt>
      <trkpt lat="43.34987" lon="-1.60553">
        <ele>127.51</ele>
        <time>2012-08-18T06:59:14Z</time>
      </trkpt>
      <trkpt lat="43.34988" lon="-1.60554">
        <ele>127.03</ele>
        <time>2012-08-18T06:59:51Z</time>
      </trkpt>
      <trkpt lat="43.34988" lon="-1.60551">
        <ele>127.51</ele>
        <time>2012-08-18T07:00:43Z</time>
      </trkpt>
      <trkpt lat="43.34987" lon="-1.60552">
        <ele>127.51</ele>
        <time>2012-08-18T07:01:34Z</time>
      </trkpt>
      <trkpt lat="43.34988" lon="-1.60553">
        <ele>127.03</ele>
        <time>2012-08-18T07:02:15Z</time>
      </trkpt>
      <trkpt lat="43.34987" lon="-1.60554">
        <ele>132.32</ele>
        <time>2012-08-18T07:02:20Z</time>
      </trkpt>
      <trkpt lat="43.34987" lon="-1.60554">
        <ele>130.88</ele>
        <time>2012-08-18T07:02:21Z</time>
      </trkpt>
      <trkpt lat="43.34987" lon="-1.60554">
        <ele>126.55</ele>
        <time>2012-08-18T07:02:23Z</time>
      </trkpt>
      <trkpt lat="43.34983" lon="-1.60547">
        <ele>127.99</ele>
        <time>2012-08-18T07:02:48Z</time>
      </trkpt>
      <trkpt lat="43.34982" lon="-1.60542">
        <ele>127.51</ele>
        <time>2012-08-18T07:02:53Z</time>
      </trkpt>
      <trkpt lat="43.34963" lon="-1.60528">
        <ele>127.51</ele>
        <time>2012-08-18T07:03:06Z</time>
      </trkpt>
      <trkpt lat="43.34929" lon="-1.60513">
        <ele>125.59</ele>
        <time>2012-08-18T07:03:20Z</time>
      </trkpt>
      <trkpt lat="43.34908" lon="-1.60506">
        <ele>123.19</ele>
        <time>2012-08-18T07:03:24Z</time>
      </trkpt>
      <trkpt lat="43.34903" lon="-1.60504">
        <ele>123.67</ele>
        <time>2012-08-18T07:03:25Z</time>
      </trkpt>
      <trkpt lat="43.34861" lon="-1.60483">
        <ele>124.63</ele>
        <time>2012-08-18T07:03:37Z</time>
      </trkpt>
      <trkpt lat="43.34832" lon="-1.60472">
        <ele>124.63</ele>
        <time>2012-08-18T07:03:50Z</time>
      </trkpt>
      <trkpt lat="43.34796" lon="-1.6044">
        <ele>125.59</ele>
        <time>2012-08-18T07:04:05Z</time>
      </trkpt>
      <trkpt lat="43.34779" lon="-1.60409">
        <ele>127.51</ele>
        <time>2012-08-18T07:04:16Z</time>
      </trkpt>
      <trkpt lat="43.3478" lon="-1.60405">
        <ele>127.99</ele>
        <time>2012-08-18T07:04:18Z</time>
      </trkpt>
      <trkpt lat="43.34783" lon="-1.60401">
        <ele>127.51</ele>
        <time>2012-08-18T07:04:22Z</time>
      </trkpt>
      <trkpt lat="43.34784" lon="-1.60401">
        <ele>127.03</ele>
        <time>2012-08-18T07:04:35Z</time>
      </trkpt>
      <trkpt lat="43.34785" lon="-1.604">
        <ele>126.55</ele>
        <time>2012-08-18T07:04:45Z</time>
      </trkpt>
      <trkpt lat="43.34796" lon="-1.60392">
        <ele>124.15</ele>
        <time>2012-08-18T07:04:55Z</time>
      </trkpt>
      <trkpt lat="43.34804" lon="-1.60388">
        <ele>122.22</ele>
        <time>2012-08-18T07:04:57Z</time>
      </trkpt>
      <trkpt lat="43.3481" lon="-1.60385">
        <ele>119.82</ele>
        <time>2012-08-18T07:04:58Z</time>
      </trkpt>
      <trkpt lat="43.34831" lon="-1.60376">
        <ele>115.01</ele>
        <time>2012-08-18T07:05:01Z</time>
      </trkpt>
      <trkpt lat="43.34838" lon="-1.60371">
        <ele>111.65</ele>
        <time>2012-08-18T07:05:02Z</time>
      </trkpt>
      <trkpt lat="43.34856" lon="-1.60363">
        <ele>108.29</ele>
        <time>2012-08-18T07:05:04Z</time>
      </trkpt>
      <trkpt lat="43.34871" lon="-1.60355">
        <ele>107.32</ele>
        <time>2012-08-18T07:05:06Z</time>
      </trkpt>
      <trkpt lat="43.34907" lon="-1.60341">
        <ele>103.96</ele>
        <time>2012-08-18T07:05:11Z</time>
      </trkpt>
      <trkpt lat="43.34915" lon="-1.60337">
        <ele>103.48</ele>
        <time>2012-08-18T07:05:12Z</time>
      </trkpt>
      <trkpt lat="43.3494" lon="-1.60323">
        <ele>100.11</ele>
        <time>2012-08-18T07:05:17Z</time>
      </trkpt>
      <trkpt lat="43.34945" lon="-1.60319">
        <ele>100.11</ele>
        <time>2012-08-18T07:05:18Z</time>
      </trkpt>
      <trkpt lat="43.34949" lon="-1.60315">
        <ele>99.15</ele>
        <time>2012-08-18T07:05:19Z</time>
      </trkpt>
      <trkpt lat="43.34952" lon="-1.60309">
        <ele>98.67</ele>
        <time>2012-08-18T07:05:20Z</time>
      </trkpt>
      <trkpt lat="43.34953" lon="-1.60302">
        <ele>98.19</ele>
        <time>2012-08-18T07:05:21Z</time>
      </trkpt>
      <trkpt lat="43.34954" lon="-1.60295">
        <ele>97.71</ele>
        <time>2012-08-18T07:05:22Z</time>
      </trkpt>
      <trkpt lat="43.34955" lon="-1.60289">
        <ele>97.23</ele>
        <time>2012-08-18T07:05:23Z</time>
      </trkpt>
      <trkpt lat="43.34957" lon="-1.60276">
        <ele>95.31</ele>
        <time>2012-08-18T07:05:26Z</time>
      </trkpt>
      <trkpt lat="43.34959" lon="-1.60265">
        <ele>92.9</ele>
        <time>2012-08-18T07:05:29Z</time>
      </trkpt>
      <trkpt lat="43.34962" lon="-1.60246">
        <ele>90.02</ele>
        <time>2012-08-18T07:05:34Z</time>
      </trkpt>
      <trkpt lat="43.34966" lon="-1.60235">
        <ele>88.1</ele>
        <time>2012-08-18T07:05:36Z</time>
      </trkpt>
      <trkpt lat="43.34968" lon="-1.60231">
        <ele>87.62</ele>
        <time>2012-08-18T07:05:37Z</time>
      </trkpt>
      <trkpt lat="43.3497" lon="-1.60227">
        <ele>86.66</ele>
        <time>2012-08-18T07:05:38Z</time>
      </trkpt>
      <trkpt lat="43.34973" lon="-1.60224">
        <ele>85.69</ele>
        <time>2012-08-18T07:05:39Z</time>
      </trkpt>
      <trkpt lat="43.34975" lon="-1.60221">
        <ele>85.69</ele>
        <time>2012-08-18T07:05:40Z</time>
      </trkpt>
      <trkpt lat="43.34978" lon="-1.60217">
        <ele>85.21</ele>
        <time>2012-08-18T07:05:41Z</time>
      </trkpt>
      <trkpt lat="43.34981" lon="-1.60215">
        <ele>85.21</ele>
        <time>2012-08-18T07:05:42Z</time>
      </trkpt>
      <trkpt lat="43.34984" lon="-1.60211">
        <ele>83.77</ele>
        <time>2012-08-18T07:05:43Z</time>
      </trkpt>
      <trkpt lat="43.34987" lon="-1.60208">
        <ele>83.77</ele>
        <time>2012-08-18T07:05:44Z</time>
      </trkpt>
      <trkpt lat="43.35" lon="-1.60192">
        <ele>80.89</ele>
        <time>2012-08-18T07:05:49Z</time>
      </trkpt>
      <trkpt lat="43.35011" lon="-1.6018">
        <ele>78</ele>
        <time>2012-08-18T07:05:53Z</time>
      </trkpt>
      <trkpt lat="43.35029" lon="-1.6016">
        <ele>74.64</ele>
        <time>2012-08-18T07:05:58Z</time>
      </trkpt>
      <trkpt lat="43.35032" lon="-1.60155">
        <ele>74.16</ele>
        <time>2012-08-18T07:05:59Z</time>
      </trkpt>
      <trkpt lat="43.35039" lon="-1.60146">
        <ele>73.2</ele>
        <time>2012-08-18T07:06:01Z</time>
      </trkpt>
      <trkpt lat="43.35049" lon="-1.60134">
        <ele>71.27</ele>
        <time>2012-08-18T07:06:04Z</time>
      </trkpt>
      <trkpt lat="43.35054" lon="-1.60129">
        <ele>70.31</ele>
        <time>2012-08-18T07:06:06Z</time>
      </trkpt>
      <trkpt lat="43.35056" lon="-1.60126">
        <ele>69.83</ele>
        <time>2012-08-18T07:06:07Z</time>
      </trkpt>
      <trkpt lat="43.35058" lon="-1.60122">
        <ele>69.35</ele>
        <time>2012-08-18T07:06:08Z</time>
      </trkpt>
      <trkpt lat="43.3506" lon="-1.60118">
        <ele>68.39</ele>
        <time>2012-08-18T07:06:09Z</time>
      </trkpt>
      <trkpt lat="43.3506" lon="-1.60114">
        <ele>68.39</ele>
        <time>2012-08-18T07:06:10Z</time>
      </trkpt>
      <trkpt lat="43.35061" lon="-1.60109">
        <ele>67.43</ele>
        <time>2012-08-18T07:06:11Z</time>
      </trkpt>
      <trkpt lat="43.35066" lon="-1.6009">
        <ele>64.55</ele>
        <time>2012-08-18T07:06:16Z</time>
      </trkpt>
      <trkpt lat="43.3507" lon="-1.60076">
        <ele>62.14</ele>
        <time>2012-08-18T07:06:20Z</time>
      </trkpt>
      <trkpt lat="43.35071" lon="-1.60073">
        <ele>61.18</ele>
        <time>2012-08-18T07:06:21Z</time>
      </trkpt>
      <trkpt lat="43.35074" lon="-1.60071">
        <ele>60.7</ele>
        <time>2012-08-18T07:06:22Z</time>
      </trkpt>
      <trkpt lat="43.35076" lon="-1.60069">
        <ele>59.74</ele>
        <time>2012-08-18T07:06:23Z</time>
      </trkpt>
      <trkpt lat="43.35077" lon="-1.60067">
        <ele>59.74</ele>
        <time>2012-08-18T07:06:24Z</time>
      </trkpt>
      <trkpt lat="43.35078" lon="-1.60066">
        <ele>59.26</ele>
        <time>2012-08-18T07:06:25Z</time>
      </trkpt>
      <trkpt lat="43.3508" lon="-1.60066">
        <ele>58.3</ele>
        <time>2012-08-18T07:06:26Z</time>
      </trkpt>
      <trkpt lat="43.35082" lon="-1.60064">
        <ele>58.3</ele>
        <time>2012-08-18T07:06:27Z</time>
      </trkpt>
      <trkpt lat="43.35083" lon="-1.60062">
        <ele>57.34</ele>
        <time>2012-08-18T07:06:28Z</time>
      </trkpt>
      <trkpt lat="43.35083" lon="-1.60061">
        <ele>57.34</ele>
        <time>2012-08-18T07:06:37Z</time>
      </trkpt>
      <trkpt lat="43.35084" lon="-1.6006">
        <ele>57.82</ele>
        <time>2012-08-18T07:06:56Z</time>
      </trkpt>
      <trkpt lat="43.35083" lon="-1.60062">
        <ele>57.34</ele>
        <time>2012-08-18T07:07:16Z</time>
      </trkpt>
      <trkpt lat="43.35084" lon="-1.60061">
        <ele>57.34</ele>
        <time>2012-08-18T07:07:17Z</time>
      </trkpt>
      <trkpt lat="43.35085" lon="-1.6006">
        <ele>56.86</ele>
        <time>2012-08-18T07:07:18Z</time>
      </trkpt>
      <trkpt lat="43.35087" lon="-1.60058">
        <ele>56.86</ele>
        <time>2012-08-18T07:07:19Z</time>
      </trkpt>
      <trkpt lat="43.35089" lon="-1.60056">
        <ele>56.37</ele>
        <time>2012-08-18T07:07:20Z</time>
      </trkpt>
      <trkpt lat="43.35091" lon="-1.60054">
        <ele>55.89</ele>
        <time>2012-08-18T07:07:21Z</time>
      </trkpt>
      <trkpt lat="43.35094" lon="-1.60052">
        <ele>55.41</ele>
        <time>2012-08-18T07:07:22Z</time>
      </trkpt>
      <trkpt lat="43.35098" lon="-1.6005">
        <ele>54.45</ele>
        <time>2012-08-18T07:07:24Z</time>
      </trkpt>
      <trkpt lat="43.351" lon="-1.6005">
        <ele>54.45</ele>
        <time>2012-08-18T07:07:25Z</time>
      </trkpt>
      <trkpt lat="43.35102" lon="-1.6005">
        <ele>54.45</ele>
        <time>2012-08-18T07:07:26Z</time>
      </trkpt>
      <trkpt lat="43.35104" lon="-1.60051">
        <ele>53.49</ele>
        <time>2012-08-18T07:07:27Z</time>
      </trkpt>
      <trkpt lat="43.35106" lon="-1.60052">
        <ele>53.01</ele>
        <time>2012-08-18T07:07:28Z</time>
      </trkpt>
      <trkpt lat="43.35108" lon="-1.60053">
        <ele>52.05</ele>
        <time>2012-08-18T07:07:29Z</time>
      </trkpt>
      <trkpt lat="43.3511" lon="-1.60055">
        <ele>52.05</ele>
        <time>2012-08-18T07:07:30Z</time>
      </trkpt>
      <trkpt lat="43.3511" lon="-1.60056">
        <ele>52.05</ele>
        <time>2012-08-18T07:07:31Z</time>
      </trkpt>
      <trkpt lat="43.35111" lon="-1.60058">
        <ele>52.05</ele>
        <time>2012-08-18T07:07:32Z</time>
      </trkpt>
      <trkpt lat="43.35112" lon="-1.60059">
        <ele>52.05</ele>
        <time>2012-08-18T07:07:33Z</time>
      </trkpt>
      <trkpt lat="43.35114" lon="-1.6006">
        <ele>51.57</ele>
        <time>2012-08-18T07:07:34Z</time>
      </trkpt>
      <trkpt lat="43.35116" lon="-1.60061">
        <ele>51.57</ele>
        <time>2012-08-18T07:07:35Z</time>
      </trkpt>
      <trkpt lat="43.35123" lon="-1.60063">
        <ele>51.57</ele>
        <time>2012-08-18T07:07:40Z</time>
      </trkpt>
      <trkpt lat="43.35123" lon="-1.60064">
        <ele>51.57</ele>
        <time>2012-08-18T07:07:42Z</time>
      </trkpt>
      <trkpt lat="43.35122" lon="-1.60067">
        <ele>51.57</ele>
        <time>2012-08-18T07:07:44Z</time>
      </trkpt>
      <trkpt lat="43.3512" lon="-1.60066">
        <ele>51.57</ele>
        <time>2012-08-18T07:08:01Z</time>
      </trkpt>
      <trkpt lat="43.35121" lon="-1.60066">
        <ele>51.09</ele>
        <time>2012-08-18T07:08:32Z</time>
      </trkpt>
      <trkpt lat="43.35122" lon="-1.60065">
        <ele>51.09</ele>
        <time>2012-08-18T07:08:47Z</time>
      </trkpt>
      <trkpt lat="43.35123" lon="-1.60057">
        <ele>51.57</ele>
        <time>2012-08-18T07:08:52Z</time>
      </trkpt>
      <trkpt lat="43.35123" lon="-1.60053">
        <ele>53.01</ele>
        <time>2012-08-18T07:08:58Z</time>
      </trkpt>
      <trkpt lat="43.35123" lon="-1.60042">
        <ele>54.45</ele>
        <time>2012-08-18T07:09:11Z</time>
      </trkpt>
      <trkpt lat="43.35124" lon="-1.60038">
        <ele>54.45</ele>
        <time>2012-08-18T07:09:14Z</time>
      </trkpt>
      <trkpt lat="43.35124" lon="-1.60029">
        <ele>54.93</ele>
        <time>2012-08-18T07:09:20Z</time>
      </trkpt>
      <trkpt lat="43.35126" lon="-1.60029">
        <ele>55.41</ele>
        <time>2012-08-18T07:09:32Z</time>
      </trkpt>
      <trkpt lat="43.35126" lon="-1.60028">
        <ele>55.41</ele>
        <time>2012-08-18T07:09:53Z</time>
      </trkpt>
      <trkpt lat="43.35126" lon="-1.60028">
        <ele>55.41</ele>
        <time>2012-08-18T07:09:54Z</time>
      </trkpt>
      <trkpt lat="43.35125" lon="-1.60036">
        <ele>54.45</ele>
        <time>2012-08-18T07:09:58Z</time>
      </trkpt>
      <trkpt lat="43.35124" lon="-1.60057">
        <ele>51.57</ele>
        <time>2012-08-18T07:10:06Z</time>
      </trkpt>
      <trkpt lat="43.35122" lon="-1.60067">
        <ele>52.05</ele>
        <time>2012-08-18T07:10:13Z</time>
      </trkpt>
      <trkpt lat="43.35123" lon="-1.60068">
        <ele>50.61</ele>
        <time>2012-08-18T07:10:22Z</time>
      </trkpt>
      <trkpt lat="43.35123" lon="-1.60068">
        <ele>51.09</ele>
        <time>2012-08-18T07:11:08Z</time>
      </trkpt>
      <trkpt lat="43.35123" lon="-1.60068">
        <ele>51.09</ele>
        <time>2012-08-18T07:11:48Z</time>
      </trkpt>
      <trkpt lat="43.35123" lon="-1.60069">
        <ele>50.61</ele>
        <time>2012-08-18T07:12:30Z</time>
      </trkpt>
      <trkpt lat="43.35124" lon="-1.60069">
        <ele>51.09</ele>
        <time>2012-08-18T07:12:40Z</time>
      </trkpt>
      <trkpt lat="43.35123" lon="-1.60068">
        <ele>51.09</ele>
        <time>2012-08-18T07:12:51Z</time>
      </trkpt>
      <trkpt lat="43.35123" lon="-1.60068">
        <ele>51.57</ele>
        <time>2012-08-18T07:13:12Z</time>
      </trkpt>
      <trkpt lat="43.35123" lon="-1.6005">
        <ele>53.01</ele>
        <time>2012-08-18T07:13:21Z</time>
      </trkpt>
      <trkpt lat="43.35124" lon="-1.60049">
        <ele>52.53</ele>
        <time>2012-08-18T07:13:29Z</time>
      </trkpt>
      <trkpt lat="43.35123" lon="-1.60049">
        <ele>53.01</ele>
        <time>2012-08-18T07:13:34Z</time>
      </trkpt>
      <trkpt lat="43.35124" lon="-1.60058">
        <ele>52.05</ele>
        <time>2012-08-18T07:13:41Z</time>
      </trkpt>
      <trkpt lat="43.35124" lon="-1.60061">
        <ele>52.05</ele>
        <time>2012-08-18T07:13:43Z</time>
      </trkpt>
      <trkpt lat="43.35124" lon="-1.60067">
        <ele>51.57</ele>
        <time>2012-08-18T07:13:55Z</time>
      </trkpt>
      <trkpt lat="43.35123" lon="-1.60067">
        <ele>51.57</ele>
        <time>2012-08-18T07:13:56Z</time>
      </trkpt>
      <trkpt lat="43.35124" lon="-1.60054">
        <ele>52.53</ele>
        <time>2012-08-18T07:14:05Z</time>
      </trkpt>
      <trkpt lat="43.35123" lon="-1.60044">
        <ele>53.97</ele>
        <time>2012-08-18T07:14:15Z</time>
      </trkpt>
      <trkpt lat="43.35125" lon="-1.60033">
        <ele>54.93</ele>
        <time>2012-08-18T07:14:27Z</time>
      </trkpt>
      <trkpt lat="43.35125" lon="-1.6003">
        <ele>54.93</ele>
        <time>2012-08-18T07:14:29Z</time>
      </trkpt>
      <trkpt lat="43.35125" lon="-1.60022">
        <ele>55.41</ele>
        <time>2012-08-18T07:14:42Z</time>
      </trkpt>
      <trkpt lat="43.35125" lon="-1.60022">
        <ele>55.41</ele>
        <time>2012-08-18T07:14:58Z</time>
      </trkpt>
      <trkpt lat="43.35123" lon="-1.6002">
        <ele>54.93</ele>
        <time>2012-08-18T07:15:00Z</time>
      </trkpt>
      <trkpt lat="43.35114" lon="-1.60009">
        <ele>52.53</ele>
        <time>2012-08-18T07:15:08Z</time>
      </trkpt>
      <trkpt lat="43.3511" lon="-1.60008">
        <ele>52.53</ele>
        <time>2012-08-18T07:15:17Z</time>
      </trkpt>
      <trkpt lat="43.3511" lon="-1.60007">
        <ele>52.05</ele>
        <time>2012-08-18T07:15:30Z</time>
      </trkpt>
      <trkpt lat="43.35108" lon="-1.60007">
        <ele>52.05</ele>
        <time>2012-08-18T07:16:02Z</time>
      </trkpt>
      <trkpt lat="43.3511" lon="-1.60005">
        <ele>51.57</ele>
        <time>2012-08-18T07:16:48Z</time>
      </trkpt>
      <trkpt lat="43.35109" lon="-1.60007">
        <ele>52.05</ele>
        <time>2012-08-18T07:17:34Z</time>
      </trkpt>
      <trkpt lat="43.3511" lon="-1.60006">
        <ele>51.57</ele>
        <time>2012-08-18T07:18:20Z</time>
      </trkpt>
      <trkpt lat="43.3511" lon="-1.60008">
        <ele>51.09</ele>
        <time>2012-08-18T07:19:08Z</time>
      </trkpt>
      <trkpt lat="43.35109" lon="-1.60007">
        <ele>51.09</ele>
        <time>2012-08-18T07:19:53Z</time>
      </trkpt>
      <trkpt lat="43.3511" lon="-1.60005">
        <ele>52.05</ele>
        <time>2012-08-18T07:20:43Z</time>
      </trkpt>
      <trkpt lat="43.35111" lon="-1.60007">
        <ele>51.57</ele>
        <time>2012-08-18T07:21:23Z</time>
      </trkpt>
      <trkpt lat="43.35112" lon="-1.60006">
        <ele>51.57</ele>
        <time>2012-08-18T07:22:10Z</time>
      </trkpt>
      <trkpt lat="43.35112" lon="-1.60007">
        <ele>51.09</ele>
        <time>2012-08-18T07:22:55Z</time>
      </trkpt>
      <trkpt lat="43.35113" lon="-1.60007">
        <ele>51.57</ele>
        <time>2012-08-18T07:23:37Z</time>
      </trkpt>
      <trkpt lat="43.35112" lon="-1.60007">
        <ele>51.57</ele>
        <time>2012-08-18T07:24:13Z</time>
      </trkpt>
      <trkpt lat="43.35112" lon="-1.60006">
        <ele>51.09</ele>
        <time>2012-08-18T07:24:50Z</time>
      </trkpt>
      <trkpt lat="43.35111" lon="-1.60007">
        <ele>52.05</ele>
        <time>2012-08-18T07:25:31Z</time>
      </trkpt>
      <trkpt lat="43.35112" lon="-1.60006">
        <ele>52.53</ele>
        <time>2012-08-18T07:25:36Z</time>
      </trkpt>
      <trkpt lat="43.35112" lon="-1.60002">
        <ele>52.53</ele>
        <time>2012-08-18T07:25:43Z</time>
      </trkpt>
      <trkpt lat="43.35112" lon="-1.59994">
        <ele>52.53</ele>
        <time>2012-08-18T07:25:47Z</time>
      </trkpt>
      <trkpt lat="43.35116" lon="-1.59982">
        <ele>53.49</ele>
        <time>2012-08-18T07:25:54Z</time>
      </trkpt>
      <trkpt lat="43.35121" lon="-1.59963">
        <ele>54.45</ele>
        <time>2012-08-18T07:26:00Z</time>
      </trkpt>
      <trkpt lat="43.35124" lon="-1.59958">
        <ele>55.89</ele>
        <time>2012-08-18T07:26:04Z</time>
      </trkpt>
      <trkpt lat="43.35127" lon="-1.59949">
        <ele>56.86</ele>
        <time>2012-08-18T07:26:10Z</time>
      </trkpt>
      <trkpt lat="43.35128" lon="-1.59947">
        <ele>57.34</ele>
        <time>2012-08-18T07:26:25Z</time>
      </trkpt>
      <trkpt lat="43.35129" lon="-1.59946">
        <ele>57.34</ele>
        <time>2012-08-18T07:26:36Z</time>
      </trkpt>
      <trkpt lat="43.35127" lon="-1.5994">
        <ele>57.34</ele>
        <time>2012-08-18T07:26:40Z</time>
      </trkpt>
      <trkpt lat="43.35125" lon="-1.59938">
        <ele>57.34</ele>
        <time>2012-08-18T07:26:42Z</time>
      </trkpt>
      <trkpt lat="43.35124" lon="-1.59937">
        <ele>60.7</ele>
        <time>2012-08-18T07:26:58Z</time>
      </trkpt>
      <trkpt lat="43.35124" lon="-1.59937">
        <ele>52.53</ele>
        <time>2012-08-18T07:26:59Z</time>
      </trkpt>
      <trkpt lat="43.35124" lon="-1.59938">
        <ele>58.78</ele>
        <time>2012-08-18T07:27:00Z</time>
      </trkpt>
      <trkpt lat="43.35124" lon="-1.59938">
        <ele>53.97</ele>
        <time>2012-08-18T07:27:02Z</time>
      </trkpt>
      <trkpt lat="43.35124" lon="-1.59938">
        <ele>59.74</ele>
        <time>2012-08-18T07:27:03Z</time>
      </trkpt>
      <trkpt lat="43.35124" lon="-1.59938">
        <ele>54.93</ele>
        <time>2012-08-18T07:27:05Z</time>
      </trkpt>
      <trkpt lat="43.35124" lon="-1.59938">
        <ele>59.74</ele>
        <time>2012-08-18T07:27:06Z</time>
      </trkpt>
      <trkpt lat="43.35124" lon="-1.59936">
        <ele>57.82</ele>
        <time>2012-08-18T07:27:22Z</time>
      </trkpt>
      <trkpt lat="43.35122" lon="-1.59932">
        <ele>57.34</ele>
        <time>2012-08-18T07:27:25Z</time>
      </trkpt>
      <trkpt lat="43.35119" lon="-1.59926">
        <ele>56.86</ele>
        <time>2012-08-18T07:27:29Z</time>
      </trkpt>
      <trkpt lat="43.35107" lon="-1.59905">
        <ele>54.45</ele>
        <time>2012-08-18T07:27:36Z</time>
      </trkpt>
      <trkpt lat="43.35105" lon="-1.599">
        <ele>53.97</ele>
        <time>2012-08-18T07:27:37Z</time>
      </trkpt>
      <trkpt lat="43.35102" lon="-1.59889">
        <ele>53.97</ele>
        <time>2012-08-18T07:27:39Z</time>
      </trkpt>
      <trkpt lat="43.351" lon="-1.59884">
        <ele>53.49</ele>
        <time>2012-08-18T07:27:40Z</time>
      </trkpt>
      <trkpt lat="43.351" lon="-1.59879">
        <ele>54.45</ele>
        <time>2012-08-18T07:27:41Z</time>
      </trkpt>
      <trkpt lat="43.35101" lon="-1.59875">
        <ele>54.45</ele>
        <time>2012-08-18T07:27:42Z</time>
      </trkpt>
      <trkpt lat="43.35101" lon="-1.59871">
        <ele>54.93</ele>
        <time>2012-08-18T07:27:43Z</time>
      </trkpt>
      <trkpt lat="43.35102" lon="-1.59837">
        <ele>56.86</ele>
        <time>2012-08-18T07:27:54Z</time>
      </trkpt>
      <trkpt lat="43.35103" lon="-1.59833">
        <ele>56.37</ele>
        <time>2012-08-18T07:27:56Z</time>
      </trkpt>
      <trkpt lat="43.35102" lon="-1.59831">
        <ele>56.86</ele>
        <time>2012-08-18T07:27:57Z</time>
      </trkpt>
      <trkpt lat="43.35102" lon="-1.59829">
        <ele>56.37</ele>
        <time>2012-08-18T07:27:58Z</time>
      </trkpt>
      <trkpt lat="43.35102" lon="-1.59825">
        <ele>56.37</ele>
        <time>2012-08-18T07:28:01Z</time>
      </trkpt>
      <trkpt lat="43.35103" lon="-1.59817">
        <ele>56.86</ele>
        <time>2012-08-18T07:28:04Z</time>
      </trkpt>
      <trkpt lat="43.35102" lon="-1.59815">
        <ele>56.86</ele>
        <time>2012-08-18T07:28:05Z</time>
      </trkpt>
      <trkpt lat="43.351" lon="-1.59812">
        <ele>56.37</ele>
        <time>2012-08-18T07:28:06Z</time>
      </trkpt>
      <trkpt lat="43.35099" lon="-1.59809">
        <ele>56.86</ele>
        <time>2012-08-18T07:28:07Z</time>
      </trkpt>
      <trkpt lat="43.35096" lon="-1.59806">
        <ele>56.37</ele>
        <time>2012-08-18T07:28:08Z</time>
      </trkpt>
      <trkpt lat="43.35092" lon="-1.59803">
        <ele>55.41</ele>
        <time>2012-08-18T07:28:09Z</time>
      </trkpt>
      <trkpt lat="43.3509" lon="-1.59798">
        <ele>55.89</ele>
        <time>2012-08-18T07:28:10Z</time>
      </trkpt>
      <trkpt lat="43.35088" lon="-1.59795">
        <ele>55.89</ele>
        <time>2012-08-18T07:28:11Z</time>
      </trkpt>
      <trkpt lat="43.35086" lon="-1.59793">
        <ele>55.89</ele>
        <time>2012-08-18T07:28:12Z</time>
      </trkpt>
      <trkpt lat="43.35084" lon="-1.59791">
        <ele>56.37</ele>
        <time>2012-08-18T07:28:13Z</time>
      </trkpt>
      <trkpt lat="43.35082" lon="-1.5979">
        <ele>56.86</ele>
        <time>2012-08-18T07:28:14Z</time>
      </trkpt>
      <trkpt lat="43.35059" lon="-1.59763">
        <ele>55.41</ele>
        <time>2012-08-18T07:28:24Z</time>
      </trkpt>
      <trkpt lat="43.35046" lon="-1.5975">
        <ele>55.89</ele>
        <time>2012-08-18T07:28:30Z</time>
      </trkpt>
      <trkpt lat="43.35022" lon="-1.59705">
        <ele>57.82</ele>
        <time>2012-08-18T07:28:46Z</time>
      </trkpt>
      <trkpt lat="43.35021" lon="-1.59702">
        <ele>57.82</ele>
        <time>2012-08-18T07:28:47Z</time>
      </trkpt>
      <trkpt lat="43.35021" lon="-1.59699">
        <ele>58.3</ele>
        <time>2012-08-18T07:28:48Z</time>
      </trkpt>
      <trkpt lat="43.35005" lon="-1.59664">
        <ele>59.74</ele>
        <time>2012-08-18T07:29:01Z</time>
      </trkpt>
      <trkpt lat="43.34996" lon="-1.59645">
        <ele>61.66</ele>
        <time>2012-08-18T07:29:08Z</time>
      </trkpt>
      <trkpt lat="43.34995" lon="-1.59642">
        <ele>61.66</ele>
        <time>2012-08-18T07:29:09Z</time>
      </trkpt>
      <trkpt lat="43.34994" lon="-1.5964">
        <ele>61.66</ele>
        <time>2012-08-18T07:29:10Z</time>
      </trkpt>
      <trkpt lat="43.34992" lon="-1.59638">
        <ele>62.14</ele>
        <time>2012-08-18T07:29:11Z</time>
      </trkpt>
      <trkpt lat="43.34991" lon="-1.59636">
        <ele>62.14</ele>
        <time>2012-08-18T07:29:12Z</time>
      </trkpt>
      <trkpt lat="43.3498" lon="-1.59615">
        <ele>65.03</ele>
        <time>2012-08-18T07:29:23Z</time>
      </trkpt>
      <trkpt lat="43.34979" lon="-1.59611">
        <ele>65.51</ele>
        <time>2012-08-18T07:29:25Z</time>
      </trkpt>
      <trkpt lat="43.34978" lon="-1.5961">
        <ele>65.51</ele>
        <time>2012-08-18T07:29:26Z</time>
      </trkpt>
      <trkpt lat="43.34977" lon="-1.59608">
        <ele>65.51</ele>
        <time>2012-08-18T07:29:27Z</time>
      </trkpt>
      <trkpt lat="43.34965" lon="-1.59587">
        <ele>68.39</ele>
        <time>2012-08-18T07:29:39Z</time>
      </trkpt>
      <trkpt lat="43.34961" lon="-1.59578">
        <ele>69.35</ele>
        <time>2012-08-18T07:29:44Z</time>
      </trkpt>
      <trkpt lat="43.3496" lon="-1.59576">
        <ele>68.87</ele>
        <time>2012-08-18T07:29:45Z</time>
      </trkpt>
      <trkpt lat="43.34959" lon="-1.59575">
        <ele>68.87</ele>
        <time>2012-08-18T07:29:46Z</time>
      </trkpt>
      <trkpt lat="43.34958" lon="-1.59573">
        <ele>68.87</ele>
        <time>2012-08-18T07:29:47Z</time>
      </trkpt>
      <trkpt lat="43.34956" lon="-1.59572">
        <ele>69.35</ele>
        <time>2012-08-18T07:29:48Z</time>
      </trkpt>
      <trkpt lat="43.34955" lon="-1.5957">
        <ele>68.87</ele>
        <time>2012-08-18T07:29:49Z</time>
      </trkpt>
      <trkpt lat="43.3494" lon="-1.59546">
        <ele>68.87</ele>
        <time>2012-08-18T07:30:01Z</time>
      </trkpt>
      <trkpt lat="43.34929" lon="-1.59512">
        <ele>68.39</ele>
        <time>2012-08-18T07:30:14Z</time>
      </trkpt>
      <trkpt lat="43.34907" lon="-1.59472">
        <ele>66.95</ele>
        <time>2012-08-18T07:30:26Z</time>
      </trkpt>
      <trkpt lat="43.34903" lon="-1.59464">
        <ele>66.95</ele>
        <time>2012-08-18T07:30:28Z</time>
      </trkpt>
      <trkpt lat="43.3489" lon="-1.59419">
        <ele>66.47</ele>
        <time>2012-08-18T07:30:38Z</time>
      </trkpt>
      <trkpt lat="43.34885" lon="-1.59377">
        <ele>66.47</ele>
        <time>2012-08-18T07:30:49Z</time>
      </trkpt>
      <trkpt lat="43.34884" lon="-1.59371">
        <ele>66.47</ele>
        <time>2012-08-18T07:30:59Z</time>
      </trkpt>
      <trkpt lat="43.34883" lon="-1.59371">
        <ele>66.95</ele>
        <time>2012-08-18T07:31:13Z</time>
      </trkpt>
      <trkpt lat="43.34885" lon="-1.59371">
        <ele>66.95</ele>
        <time>2012-08-18T07:31:31Z</time>
      </trkpt>
      <trkpt lat="43.34885" lon="-1.5935">
        <ele>67.43</ele>
        <time>2012-08-18T07:31:44Z</time>
      </trkpt>
      <trkpt lat="43.34885" lon="-1.59343">
        <ele>67.91</ele>
        <time>2012-08-18T07:31:49Z</time>
      </trkpt>
      <trkpt lat="43.34885" lon="-1.59341">
        <ele>67.91</ele>
        <time>2012-08-18T07:31:50Z</time>
      </trkpt>
      <trkpt lat="43.34887" lon="-1.59336">
        <ele>67.91</ele>
        <time>2012-08-18T07:31:53Z</time>
      </trkpt>
      <trkpt lat="43.34888" lon="-1.59334">
        <ele>68.39</ele>
        <time>2012-08-18T07:31:54Z</time>
      </trkpt>
      <trkpt lat="43.34888" lon="-1.59332">
        <ele>68.39</ele>
        <time>2012-08-18T07:31:55Z</time>
      </trkpt>
      <trkpt lat="43.34889" lon="-1.5933">
        <ele>67.91</ele>
        <time>2012-08-18T07:31:56Z</time>
      </trkpt>
      <trkpt lat="43.3489" lon="-1.59328">
        <ele>68.39</ele>
        <time>2012-08-18T07:31:57Z</time>
      </trkpt>
      <trkpt lat="43.34891" lon="-1.59325">
        <ele>68.39</ele>
        <time>2012-08-18T07:31:58Z</time>
      </trkpt>
      <trkpt lat="43.34892" lon="-1.59323">
        <ele>68.39</ele>
        <time>2012-08-18T07:31:59Z</time>
      </trkpt>
      <trkpt lat="43.34903" lon="-1.59279">
        <ele>69.83</ele>
        <time>2012-08-18T07:32:14Z</time>
      </trkpt>
      <trkpt lat="43.34904" lon="-1.59272">
        <ele>69.83</ele>
        <time>2012-08-18T07:32:16Z</time>
      </trkpt>
      <trkpt lat="43.34903" lon="-1.59268">
        <ele>69.35</ele>
        <time>2012-08-18T07:32:17Z</time>
      </trkpt>
      <trkpt lat="43.34902" lon="-1.59264">
        <ele>68.87</ele>
        <time>2012-08-18T07:32:18Z</time>
      </trkpt>
      <trkpt lat="43.34901" lon="-1.59261">
        <ele>69.35</ele>
        <time>2012-08-18T07:32:19Z</time>
      </trkpt>
      <trkpt lat="43.349" lon="-1.59257">
        <ele>68.87</ele>
        <time>2012-08-18T07:32:20Z</time>
      </trkpt>
      <trkpt lat="43.34898" lon="-1.59253">
        <ele>69.35</ele>
        <time>2012-08-18T07:32:21Z</time>
      </trkpt>
      <trkpt lat="43.34897" lon="-1.5925">
        <ele>68.87</ele>
        <time>2012-08-18T07:32:22Z</time>
      </trkpt>
      <trkpt lat="43.34895" lon="-1.59247">
        <ele>69.35</ele>
        <time>2012-08-18T07:32:23Z</time>
      </trkpt>
      <trkpt lat="43.34893" lon="-1.59244">
        <ele>69.35</ele>
        <time>2012-08-18T07:32:24Z</time>
      </trkpt>
      <trkpt lat="43.34892" lon="-1.59242">
        <ele>69.35</ele>
        <time>2012-08-18T07:32:25Z</time>
      </trkpt>
      <trkpt lat="43.34891" lon="-1.59238">
        <ele>69.35</ele>
        <time>2012-08-18T07:32:26Z</time>
      </trkpt>
      <trkpt lat="43.3488" lon="-1.59184">
        <ele>68.87</ele>
        <time>2012-08-18T07:32:38Z</time>
      </trkpt>
      <trkpt lat="43.3488" lon="-1.59179">
        <ele>68.87</ele>
        <time>2012-08-18T07:32:40Z</time>
      </trkpt>
      <trkpt lat="43.34881" lon="-1.59177">
        <ele>68.87</ele>
        <time>2012-08-18T07:32:41Z</time>
      </trkpt>
      <trkpt lat="43.34881" lon="-1.59173">
        <ele>69.35</ele>
        <time>2012-08-18T07:32:43Z</time>
      </trkpt>
      <trkpt lat="43.3488" lon="-1.59172">
        <ele>68.87</ele>
        <time>2012-08-18T07:32:44Z</time>
      </trkpt>
      <trkpt lat="43.34879" lon="-1.59171">
        <ele>68.87</ele>
        <time>2012-08-18T07:32:45Z</time>
      </trkpt>
      <trkpt lat="43.34878" lon="-1.59168">
        <ele>68.87</ele>
        <time>2012-08-18T07:32:46Z</time>
      </trkpt>
      <trkpt lat="43.34877" lon="-1.59164">
        <ele>67.91</ele>
        <time>2012-08-18T07:32:47Z</time>
      </trkpt>
      <trkpt lat="43.34876" lon="-1.59159">
        <ele>67.43</ele>
        <time>2012-08-18T07:32:48Z</time>
      </trkpt>
      <trkpt lat="43.34874" lon="-1.59155">
        <ele>66.95</ele>
        <time>2012-08-18T07:32:49Z</time>
      </trkpt>
      <trkpt lat="43.34872" lon="-1.5915">
        <ele>66.47</ele>
        <time>2012-08-18T07:32:50Z</time>
      </trkpt>
      <trkpt lat="43.3487" lon="-1.59144">
        <ele>65.51</ele>
        <time>2012-08-18T07:32:51Z</time>
      </trkpt>
      <trkpt lat="43.34868" lon="-1.59138">
        <ele>65.51</ele>
        <time>2012-08-18T07:32:52Z</time>
      </trkpt>
      <trkpt lat="43.34866" lon="-1.59132">
        <ele>65.03</ele>
        <time>2012-08-18T07:32:53Z</time>
      </trkpt>
      <trkpt lat="43.34855" lon="-1.59088">
        <ele>66.47</ele>
        <time>2012-08-18T07:33:02Z</time>
      </trkpt>
      <trkpt lat="43.34853" lon="-1.59081">
        <ele>66.95</ele>
        <time>2012-08-18T07:33:04Z</time>
      </trkpt>
      <trkpt lat="43.34849" lon="-1.59037">
        <ele>66.95</ele>
        <time>2012-08-18T07:33:15Z</time>
      </trkpt>
      <trkpt lat="43.34849" lon="-1.58996">
        <ele>68.39</ele>
        <time>2012-08-18T07:33:26Z</time>
      </trkpt>
      <trkpt lat="43.34855" lon="-1.58976">
        <ele>68.87</ele>
        <time>2012-08-18T07:33:32Z</time>
      </trkpt>
      <trkpt lat="43.34855" lon="-1.58971">
        <ele>68.39</ele>
        <time>2012-08-18T07:33:33Z</time>
      </trkpt>
      <trkpt lat="43.34856" lon="-1.58966">
        <ele>69.35</ele>
        <time>2012-08-18T07:33:34Z</time>
      </trkpt>
      <trkpt lat="43.34856" lon="-1.58962">
        <ele>69.35</ele>
        <time>2012-08-18T07:33:35Z</time>
      </trkpt>
      <trkpt lat="43.34857" lon="-1.58958">
        <ele>68.87</ele>
        <time>2012-08-18T07:33:36Z</time>
      </trkpt>
      <trkpt lat="43.34857" lon="-1.58954">
        <ele>69.35</ele>
        <time>2012-08-18T07:33:37Z</time>
      </trkpt>
      <trkpt lat="43.34862" lon="-1.5893">
        <ele>71.27</ele>
        <time>2012-08-18T07:33:43Z</time>
      </trkpt>
      <trkpt lat="43.3488" lon="-1.58893">
        <ele>73.2</ele>
        <time>2012-08-18T07:33:55Z</time>
      </trkpt>
      <trkpt lat="43.34904" lon="-1.58861">
        <ele>75.12</ele>
        <time>2012-08-18T07:34:08Z</time>
      </trkpt>
      <trkpt lat="43.3491" lon="-1.58846">
        <ele>74.64</ele>
        <time>2012-08-18T07:34:18Z</time>
      </trkpt>
      <trkpt lat="43.3491" lon="-1.58844">
        <ele>74.16</ele>
        <time>2012-08-18T07:34:19Z</time>
      </trkpt>
      <trkpt lat="43.3491" lon="-1.58841">
        <ele>74.16</ele>
        <time>2012-08-18T07:34:20Z</time>
      </trkpt>
      <trkpt lat="43.3491" lon="-1.58839">
        <ele>74.16</ele>
        <time>2012-08-18T07:34:21Z</time>
      </trkpt>
      <trkpt lat="43.34909" lon="-1.58834">
        <ele>75.12</ele>
        <time>2012-08-18T07:34:24Z</time>
      </trkpt>
      <trkpt lat="43.34908" lon="-1.58832">
        <ele>74.64</ele>
        <time>2012-08-18T07:34:25Z</time>
      </trkpt>
      <trkpt lat="43.34907" lon="-1.5883">
        <ele>74.64</ele>
        <time>2012-08-18T07:34:26Z</time>
      </trkpt>
      <trkpt lat="43.34906" lon="-1.58828">
        <ele>75.12</ele>
        <time>2012-08-18T07:34:27Z</time>
      </trkpt>
      <trkpt lat="43.34905" lon="-1.58825">
        <ele>75.12</ele>
        <time>2012-08-18T07:34:28Z</time>
      </trkpt>
      <trkpt lat="43.34904" lon="-1.58823">
        <ele>75.6</ele>
        <time>2012-08-18T07:34:29Z</time>
      </trkpt>
      <trkpt lat="43.34903" lon="-1.5882">
        <ele>75.6</ele>
        <time>2012-08-18T07:34:30Z</time>
      </trkpt>
      <trkpt lat="43.34901" lon="-1.58817">
        <ele>76.08</ele>
        <time>2012-08-18T07:34:31Z</time>
      </trkpt>
      <trkpt lat="43.349" lon="-1.58815">
        <ele>76.08</ele>
        <time>2012-08-18T07:34:32Z</time>
      </trkpt>
      <trkpt lat="43.34898" lon="-1.58812">
        <ele>77.04</ele>
        <time>2012-08-18T07:34:33Z</time>
      </trkpt>
      <trkpt lat="43.34897" lon="-1.5881">
        <ele>77.04</ele>
        <time>2012-08-18T07:34:34Z</time>
      </trkpt>
      <trkpt lat="43.34896" lon="-1.58808">
        <ele>78</ele>
        <time>2012-08-18T07:34:35Z</time>
      </trkpt>
      <trkpt lat="43.34895" lon="-1.58806">
        <ele>77.52</ele>
        <time>2012-08-18T07:34:36Z</time>
      </trkpt>
      <trkpt lat="43.34877" lon="-1.58795">
        <ele>79.93</ele>
        <time>2012-08-18T07:34:47Z</time>
      </trkpt>
      <trkpt lat="43.34846" lon="-1.58793">
        <ele>81.37</ele>
        <time>2012-08-18T07:35:02Z</time>
      </trkpt>
      <trkpt lat="43.34816" lon="-1.58766">
        <ele>80.41</ele>
        <time>2012-08-18T07:35:14Z</time>
      </trkpt>
      <trkpt lat="43.34782" lon="-1.58734">
        <ele>80.89</ele>
        <time>2012-08-18T07:35:26Z</time>
      </trkpt>
      <trkpt lat="43.34757" lon="-1.58709">
        <ele>82.81</ele>
        <time>2012-08-18T07:35:37Z</time>
      </trkpt>
      <trkpt lat="43.34728" lon="-1.58695">
        <ele>81.85</ele>
        <time>2012-08-18T07:35:47Z</time>
      </trkpt>
      <trkpt lat="43.34723" lon="-1.58696">
        <ele>81.37</ele>
        <time>2012-08-18T07:35:48Z</time>
      </trkpt>
      <trkpt lat="43.34718" lon="-1.58698">
        <ele>80.41</ele>
        <time>2012-08-18T07:35:49Z</time>
      </trkpt>
      <trkpt lat="43.34713" lon="-1.58701">
        <ele>80.41</ele>
        <time>2012-08-18T07:35:50Z</time>
      </trkpt>
      <trkpt lat="43.34708" lon="-1.58705">
        <ele>79.45</ele>
        <time>2012-08-18T07:35:51Z</time>
      </trkpt>
      <trkpt lat="43.34703" lon="-1.58709">
        <ele>78.48</ele>
        <time>2012-08-18T07:35:52Z</time>
      </trkpt>
      <trkpt lat="43.34697" lon="-1.58712">
        <ele>79.45</ele>
        <time>2012-08-18T07:35:53Z</time>
      </trkpt>
      <trkpt lat="43.34693" lon="-1.58714">
        <ele>79.45</ele>
        <time>2012-08-18T07:35:54Z</time>
      </trkpt>
      <trkpt lat="43.34689" lon="-1.58714">
        <ele>80.41</ele>
        <time>2012-08-18T07:35:55Z</time>
      </trkpt>
      <trkpt lat="43.34685" lon="-1.58711">
        <ele>80.41</ele>
        <time>2012-08-18T07:35:56Z</time>
      </trkpt>
      <trkpt lat="43.34682" lon="-1.58709">
        <ele>80.89</ele>
        <time>2012-08-18T07:35:57Z</time>
      </trkpt>
      <trkpt lat="43.34667" lon="-1.58697">
        <ele>79.93</ele>
        <time>2012-08-18T07:36:04Z</time>
      </trkpt>
      <trkpt lat="43.34665" lon="-1.58699">
        <ele>79.45</ele>
        <time>2012-08-18T07:36:05Z</time>
      </trkpt>
      <trkpt lat="43.34654" lon="-1.58708">
        <ele>77.04</ele>
        <time>2012-08-18T07:36:09Z</time>
      </trkpt>
      <trkpt lat="43.34647" lon="-1.58714">
        <ele>74.64</ele>
        <time>2012-08-18T07:36:12Z</time>
      </trkpt>
      <trkpt lat="43.34643" lon="-1.58714">
        <ele>74.16</ele>
        <time>2012-08-18T07:36:13Z</time>
      </trkpt>
      <trkpt lat="43.34639" lon="-1.58714">
        <ele>74.64</ele>
        <time>2012-08-18T07:36:14Z</time>
      </trkpt>
      <trkpt lat="43.34624" lon="-1.58713">
        <ele>78</ele>
        <time>2012-08-18T07:36:19Z</time>
      </trkpt>
      <trkpt lat="43.34622" lon="-1.58713">
        <ele>78</ele>
        <time>2012-08-18T07:36:20Z</time>
      </trkpt>
      <trkpt lat="43.34621" lon="-1.58712">
        <ele>78</ele>
        <time>2012-08-18T07:36:21Z</time>
      </trkpt>
      <trkpt lat="43.34599" lon="-1.58706">
        <ele>81.37</ele>
        <time>2012-08-18T07:36:32Z</time>
      </trkpt>
      <trkpt lat="43.34586" lon="-1.58697">
        <ele>81.85</ele>
        <time>2012-08-18T07:36:42Z</time>
      </trkpt>
      <trkpt lat="43.34575" lon="-1.58673">
        <ele>83.77</ele>
        <time>2012-08-18T07:36:55Z</time>
      </trkpt>
      <trkpt lat="43.34571" lon="-1.5865">
        <ele>83.77</ele>
        <time>2012-08-18T07:37:05Z</time>
      </trkpt>
      <trkpt lat="43.3457" lon="-1.58648">
        <ele>83.77</ele>
        <time>2012-08-18T07:37:06Z</time>
      </trkpt>
      <trkpt lat="43.34569" lon="-1.58646">
        <ele>84.25</ele>
        <time>2012-08-18T07:37:07Z</time>
      </trkpt>
      <trkpt lat="43.34556" lon="-1.58613">
        <ele>83.29</ele>
        <time>2012-08-18T07:37:18Z</time>
      </trkpt>
      <trkpt lat="43.34551" lon="-1.58596">
        <ele>84.25</ele>
        <time>2012-08-18T07:37:25Z</time>
      </trkpt>
      <trkpt lat="43.34541" lon="-1.58576">
        <ele>84.73</ele>
        <time>2012-08-18T07:37:37Z</time>
      </trkpt>
      <trkpt lat="43.34528" lon="-1.58557">
        <ele>84.73</ele>
        <time>2012-08-18T07:37:49Z</time>
      </trkpt>
      <trkpt lat="43.34527" lon="-1.58554">
        <ele>85.21</ele>
        <time>2012-08-18T07:37:50Z</time>
      </trkpt>
      <trkpt lat="43.34526" lon="-1.58551">
        <ele>84.73</ele>
        <time>2012-08-18T07:37:51Z</time>
      </trkpt>
      <trkpt lat="43.34524" lon="-1.58506">
        <ele>82.81</ele>
        <time>2012-08-18T07:38:00Z</time>
      </trkpt>
      <trkpt lat="43.34524" lon="-1.58479">
        <ele>85.21</ele>
        <time>2012-08-18T07:38:08Z</time>
      </trkpt>
      <trkpt lat="43.34524" lon="-1.58477">
        <ele>85.69</ele>
        <time>2012-08-18T07:38:09Z</time>
      </trkpt>
      <trkpt lat="43.34523" lon="-1.58458">
        <ele>87.14</ele>
        <time>2012-08-18T07:38:19Z</time>
      </trkpt>
      <trkpt lat="43.34522" lon="-1.58457">
        <ele>87.62</ele>
        <time>2012-08-18T07:38:20Z</time>
      </trkpt>
      <trkpt lat="43.34516" lon="-1.58434">
        <ele>90.02</ele>
        <time>2012-08-18T07:38:34Z</time>
      </trkpt>
      <trkpt lat="43.34514" lon="-1.58423">
        <ele>90.98</ele>
        <time>2012-08-18T07:38:41Z</time>
      </trkpt>
      <trkpt lat="43.34514" lon="-1.58418">
        <ele>91.46</ele>
        <time>2012-08-18T07:38:44Z</time>
      </trkpt>
      <trkpt lat="43.34514" lon="-1.58403">
        <ele>92.42</ele>
        <time>2012-08-18T07:38:53Z</time>
      </trkpt>
      <trkpt lat="43.34514" lon="-1.5838">
        <ele>94.35</ele>
        <time>2012-08-18T07:39:06Z</time>
      </trkpt>
      <trkpt lat="43.34514" lon="-1.58374">
        <ele>94.83</ele>
        <time>2012-08-18T07:39:09Z</time>
      </trkpt>
      <trkpt lat="43.34515" lon="-1.58372">
        <ele>94.83</ele>
        <time>2012-08-18T07:39:10Z</time>
      </trkpt>
      <trkpt lat="43.34515" lon="-1.5837">
        <ele>95.31</ele>
        <time>2012-08-18T07:39:11Z</time>
      </trkpt>
      <trkpt lat="43.34516" lon="-1.58368">
        <ele>95.31</ele>
        <time>2012-08-18T07:39:12Z</time>
      </trkpt>
      <trkpt lat="43.34516" lon="-1.58366">
        <ele>95.31</ele>
        <time>2012-08-18T07:39:13Z</time>
      </trkpt>
      <trkpt lat="43.34516" lon="-1.58364">
        <ele>95.31</ele>
        <time>2012-08-18T07:39:14Z</time>
      </trkpt>
      <trkpt lat="43.34516" lon="-1.58362">
        <ele>95.79</ele>
        <time>2012-08-18T07:39:15Z</time>
      </trkpt>
      <trkpt lat="43.34516" lon="-1.5836">
        <ele>95.79</ele>
        <time>2012-08-18T07:39:16Z</time>
      </trkpt>
      <trkpt lat="43.34516" lon="-1.58358">
        <ele>96.27</ele>
        <time>2012-08-18T07:39:17Z</time>
      </trkpt>
      <trkpt lat="43.34517" lon="-1.58357">
        <ele>96.27</ele>
        <time>2012-08-18T07:39:18Z</time>
      </trkpt>
      <trkpt lat="43.34517" lon="-1.58355">
        <ele>96.75</ele>
        <time>2012-08-18T07:39:19Z</time>
      </trkpt>
      <trkpt lat="43.34517" lon="-1.58353">
        <ele>96.27</ele>
        <time>2012-08-18T07:39:20Z</time>
      </trkpt>
      <trkpt lat="43.34516" lon="-1.58351">
        <ele>97.23</ele>
        <time>2012-08-18T07:39:21Z</time>
      </trkpt>
      <trkpt lat="43.34516" lon="-1.58349">
        <ele>97.23</ele>
        <time>2012-08-18T07:39:22Z</time>
      </trkpt>
      <trkpt lat="43.34516" lon="-1.58347">
        <ele>97.23</ele>
        <time>2012-08-18T07:39:23Z</time>
      </trkpt>
      <trkpt lat="43.34516" lon="-1.58345">
        <ele>97.71</ele>
        <time>2012-08-18T07:39:24Z</time>
      </trkpt>
      <trkpt lat="43.34516" lon="-1.58343">
        <ele>97.71</ele>
        <time>2012-08-18T07:39:25Z</time>
      </trkpt>
      <trkpt lat="43.34516" lon="-1.58341">
        <ele>97.71</ele>
        <time>2012-08-18T07:39:26Z</time>
      </trkpt>
      <trkpt lat="43.34515" lon="-1.58339">
        <ele>97.71</ele>
        <time>2012-08-18T07:39:27Z</time>
      </trkpt>
      <trkpt lat="43.34514" lon="-1.58311">
        <ele>101.08</ele>
        <time>2012-08-18T07:39:42Z</time>
      </trkpt>
      <trkpt lat="43.34513" lon="-1.58291">
        <ele>103.96</ele>
        <time>2012-08-18T07:39:56Z</time>
      </trkpt>
      <trkpt lat="43.34512" lon="-1.58272">
        <ele>107.32</ele>
        <time>2012-08-18T07:40:09Z</time>
      </trkpt>
      <trkpt lat="43.34512" lon="-1.5825">
        <ele>110.69</ele>
        <time>2012-08-18T07:40:24Z</time>
      </trkpt>
      <trkpt lat="43.34512" lon="-1.58237">
        <ele>112.61</ele>
        <time>2012-08-18T07:40:34Z</time>
      </trkpt>
      <trkpt lat="43.3451" lon="-1.58221">
        <ele>115.01</ele>
        <time>2012-08-18T07:40:46Z</time>
      </trkpt>
      <trkpt lat="43.3451" lon="-1.58218">
        <ele>115.5</ele>
        <time>2012-08-18T07:40:48Z</time>
      </trkpt>
      <trkpt lat="43.3451" lon="-1.58213">
        <ele>115.98</ele>
        <time>2012-08-18T07:40:52Z</time>
      </trkpt>
      <trkpt lat="43.34509" lon="-1.58194">
        <ele>118.86</ele>
        <time>2012-08-18T07:41:06Z</time>
      </trkpt>
      <trkpt lat="43.34517" lon="-1.58181">
        <ele>120.78</ele>
        <time>2012-08-18T07:41:19Z</time>
      </trkpt>
      <trkpt lat="43.34519" lon="-1.58178">
        <ele>121.26</ele>
        <time>2012-08-18T07:41:22Z</time>
      </trkpt>
      <trkpt lat="43.34526" lon="-1.58173">
        <ele>122.22</ele>
        <time>2012-08-18T07:41:30Z</time>
      </trkpt>
      <trkpt lat="43.3454" lon="-1.58167">
        <ele>123.67</ele>
        <time>2012-08-18T07:41:43Z</time>
      </trkpt>
      <trkpt lat="43.34541" lon="-1.58166">
        <ele>124.15</ele>
        <time>2012-08-18T07:41:44Z</time>
      </trkpt>
      <trkpt lat="43.34544" lon="-1.58163">
        <ele>124.63</ele>
        <time>2012-08-18T07:41:48Z</time>
      </trkpt>
      <trkpt lat="43.34545" lon="-1.58162">
        <ele>124.63</ele>
        <time>2012-08-18T07:41:49Z</time>
      </trkpt>
      <trkpt lat="43.34548" lon="-1.58158">
        <ele>125.59</ele>
        <time>2012-08-18T07:41:54Z</time>
      </trkpt>
      <trkpt lat="43.34561" lon="-1.58142">
        <ele>127.99</ele>
        <time>2012-08-18T07:42:08Z</time>
      </trkpt>
      <trkpt lat="43.34565" lon="-1.58137">
        <ele>128.95</ele>
        <time>2012-08-18T07:42:13Z</time>
      </trkpt>
      <trkpt lat="43.34566" lon="-1.58135">
        <ele>128.47</ele>
        <time>2012-08-18T07:42:14Z</time>
      </trkpt>
      <trkpt lat="43.34567" lon="-1.58134">
        <ele>128.95</ele>
        <time>2012-08-18T07:42:15Z</time>
      </trkpt>
      <trkpt lat="43.34576" lon="-1.58121">
        <ele>131.84</ele>
        <time>2012-08-18T07:42:24Z</time>
      </trkpt>
      <trkpt lat="43.34577" lon="-1.58118">
        <ele>132.8</ele>
        <time>2012-08-18T07:42:26Z</time>
      </trkpt>
      <trkpt lat="43.34578" lon="-1.58117">
        <ele>133.28</ele>
        <time>2012-08-18T07:42:27Z</time>
      </trkpt>
      <trkpt lat="43.34579" lon="-1.58116">
        <ele>133.76</ele>
        <time>2012-08-18T07:42:28Z</time>
      </trkpt>
      <trkpt lat="43.3458" lon="-1.58114">
        <ele>133.76</ele>
        <time>2012-08-18T07:42:29Z</time>
      </trkpt>
      <trkpt lat="43.3458" lon="-1.58113">
        <ele>134.72</ele>
        <time>2012-08-18T07:42:30Z</time>
      </trkpt>
      <trkpt lat="43.34581" lon="-1.58111">
        <ele>134.72</ele>
        <time>2012-08-18T07:42:31Z</time>
      </trkpt>
      <trkpt lat="43.34581" lon="-1.58109">
        <ele>135.2</ele>
        <time>2012-08-18T07:42:32Z</time>
      </trkpt>
      <trkpt lat="43.34581" lon="-1.58107">
        <ele>135.2</ele>
        <time>2012-08-18T07:42:33Z</time>
      </trkpt>
      <trkpt lat="43.34581" lon="-1.58105">
        <ele>134.72</ele>
        <time>2012-08-18T07:42:34Z</time>
      </trkpt>
      <trkpt lat="43.34582" lon="-1.58103">
        <ele>135.68</ele>
        <time>2012-08-18T07:42:35Z</time>
      </trkpt>
      <trkpt lat="43.34582" lon="-1.58102">
        <ele>135.68</ele>
        <time>2012-08-18T07:42:36Z</time>
      </trkpt>
      <trkpt lat="43.34582" lon="-1.581">
        <ele>135.68</ele>
        <time>2012-08-18T07:42:37Z</time>
      </trkpt>
      <trkpt lat="43.34582" lon="-1.58098">
        <ele>136.16</ele>
        <time>2012-08-18T07:42:38Z</time>
      </trkpt>
      <trkpt lat="43.34582" lon="-1.58097">
        <ele>136.16</ele>
        <time>2012-08-18T07:42:39Z</time>
      </trkpt>
      <trkpt lat="43.34581" lon="-1.58092">
        <ele>136.64</ele>
        <time>2012-08-18T07:42:42Z</time>
      </trkpt>
      <trkpt lat="43.34577" lon="-1.58075">
        <ele>137.61</ele>
        <time>2012-08-18T07:42:54Z</time>
      </trkpt>
      <trkpt lat="43.34575" lon="-1.58069">
        <ele>138.09</ele>
        <time>2012-08-18T07:42:58Z</time>
      </trkpt>
      <trkpt lat="43.34573" lon="-1.58067">
        <ele>138.09</ele>
        <time>2012-08-18T07:43:00Z</time>
      </trkpt>
      <trkpt lat="43.34573" lon="-1.58066">
        <ele>138.09</ele>
        <time>2012-08-18T07:43:01Z</time>
      </trkpt>
      <trkpt lat="43.34567" lon="-1.58059">
        <ele>138.57</ele>
        <time>2012-08-18T07:43:10Z</time>
      </trkpt>
      <trkpt lat="43.34566" lon="-1.58059">
        <ele>138.09</ele>
        <time>2012-08-18T07:43:11Z</time>
      </trkpt>
      <trkpt lat="43.34565" lon="-1.58059">
        <ele>138.09</ele>
        <time>2012-08-18T07:43:12Z</time>
      </trkpt>
      <trkpt lat="43.34563" lon="-1.58059">
        <ele>138.09</ele>
        <time>2012-08-18T07:43:13Z</time>
      </trkpt>
      <trkpt lat="43.34562" lon="-1.58059">
        <ele>138.57</ele>
        <time>2012-08-18T07:43:14Z</time>
      </trkpt>
      <trkpt lat="43.34542" lon="-1.58055">
        <ele>139.53</ele>
        <time>2012-08-18T07:43:30Z</time>
      </trkpt>
      <trkpt lat="43.34541" lon="-1.58056">
        <ele>139.53</ele>
        <time>2012-08-18T07:43:31Z</time>
      </trkpt>
      <trkpt lat="43.34539" lon="-1.58056">
        <ele>139.53</ele>
        <time>2012-08-18T07:43:32Z</time>
      </trkpt>
      <trkpt lat="43.34538" lon="-1.58056">
        <ele>139.53</ele>
        <time>2012-08-18T07:43:33Z</time>
      </trkpt>
      <trkpt lat="43.3452" lon="-1.58054">
        <ele>141.45</ele>
        <time>2012-08-18T07:43:47Z</time>
      </trkpt>
      <trkpt lat="43.345" lon="-1.58048">
        <ele>143.37</ele>
        <time>2012-08-18T07:44:03Z</time>
      </trkpt>
      <trkpt lat="43.34481" lon="-1.58031">
        <ele>145.78</ele>
        <time>2012-08-18T07:44:19Z</time>
      </trkpt>
      <trkpt lat="43.34461" lon="-1.58011">
        <ele>147.22</ele>
        <time>2012-08-18T07:44:35Z</time>
      </trkpt>
      <trkpt lat="43.3444" lon="-1.57995">
        <ele>149.14</ele>
        <time>2012-08-18T07:44:51Z</time>
      </trkpt>
      <trkpt lat="43.34421" lon="-1.57979">
        <ele>151.54</ele>
        <time>2012-08-18T07:45:05Z</time>
      </trkpt>
      <trkpt lat="43.34408" lon="-1.57966">
        <ele>152.99</ele>
        <time>2012-08-18T07:45:16Z</time>
      </trkpt>
      <trkpt lat="43.34407" lon="-1.57965">
        <ele>152.99</ele>
        <time>2012-08-18T07:45:17Z</time>
      </trkpt>
      <trkpt lat="43.34405" lon="-1.57964">
        <ele>153.47</ele>
        <time>2012-08-18T07:45:18Z</time>
      </trkpt>
      <trkpt lat="43.34404" lon="-1.57963">
        <ele>153.47</ele>
        <time>2012-08-18T07:45:19Z</time>
      </trkpt>
      <trkpt lat="43.34403" lon="-1.57961">
        <ele>153.95</ele>
        <time>2012-08-18T07:45:20Z</time>
      </trkpt>
      <trkpt lat="43.34397" lon="-1.57958">
        <ele>154.43</ele>
        <time>2012-08-18T07:45:25Z</time>
      </trkpt>
      <trkpt lat="43.34396" lon="-1.57956">
        <ele>154.43</ele>
        <time>2012-08-18T07:45:26Z</time>
      </trkpt>
      <trkpt lat="43.34379" lon="-1.57936">
        <ele>157.31</ele>
        <time>2012-08-18T07:45:42Z</time>
      </trkpt>
      <trkpt lat="43.34361" lon="-1.57924">
        <ele>159.72</ele>
        <time>2012-08-18T07:45:57Z</time>
      </trkpt>
      <trkpt lat="43.3434" lon="-1.5792">
        <ele>162.6</ele>
        <time>2012-08-18T07:46:12Z</time>
      </trkpt>
      <trkpt lat="43.34336" lon="-1.5792">
        <ele>162.6</ele>
        <time>2012-08-18T07:46:15Z</time>
      </trkpt>
      <trkpt lat="43.34335" lon="-1.57919">
        <ele>163.08</ele>
        <time>2012-08-18T07:46:16Z</time>
      </trkpt>
      <trkpt lat="43.34333" lon="-1.57918">
        <ele>163.56</ele>
        <time>2012-08-18T07:46:17Z</time>
      </trkpt>
      <trkpt lat="43.34332" lon="-1.57917">
        <ele>163.56</ele>
        <time>2012-08-18T07:46:18Z</time>
      </trkpt>
      <trkpt lat="43.34331" lon="-1.57917">
        <ele>164.04</ele>
        <time>2012-08-18T07:46:19Z</time>
      </trkpt>
      <trkpt lat="43.34329" lon="-1.57916">
        <ele>163.56</ele>
        <time>2012-08-18T07:46:20Z</time>
      </trkpt>
      <trkpt lat="43.34307" lon="-1.57915">
        <ele>166.93</ele>
        <time>2012-08-18T07:46:36Z</time>
      </trkpt>
      <trkpt lat="43.34302" lon="-1.57915">
        <ele>167.41</ele>
        <time>2012-08-18T07:46:39Z</time>
      </trkpt>
      <trkpt lat="43.34301" lon="-1.57916">
        <ele>167.41</ele>
        <time>2012-08-18T07:46:40Z</time>
      </trkpt>
      <trkpt lat="43.34279" lon="-1.57915">
        <ele>168.85</ele>
        <time>2012-08-18T07:46:54Z</time>
      </trkpt>
      <trkpt lat="43.34257" lon="-1.57902">
        <ele>170.77</ele>
        <time>2012-08-18T07:47:08Z</time>
      </trkpt>
      <trkpt lat="43.34247" lon="-1.57891">
        <ele>172.21</ele>
        <time>2012-08-18T07:47:18Z</time>
      </trkpt>
      <trkpt lat="43.34248" lon="-1.5789">
        <ele>171.25</ele>
        <time>2012-08-18T07:47:34Z</time>
      </trkpt>
      <trkpt lat="43.34236" lon="-1.57885">
        <ele>171.73</ele>
        <time>2012-08-18T07:47:44Z</time>
      </trkpt>
      <trkpt lat="43.34205" lon="-1.57866">
        <ele>172.21</ele>
        <time>2012-08-18T07:47:55Z</time>
      </trkpt>
      <trkpt lat="43.3417" lon="-1.57839">
        <ele>175.1</ele>
        <time>2012-08-18T07:48:10Z</time>
      </trkpt>
      <trkpt lat="43.34139" lon="-1.57834">
        <ele>176.54</ele>
        <time>2012-08-18T07:48:24Z</time>
      </trkpt>
      <trkpt lat="43.34093" lon="-1.57841">
        <ele>178.94</ele>
        <time>2012-08-18T07:48:43Z</time>
      </trkpt>
      <trkpt lat="43.34053" lon="-1.57849">
        <ele>180.38</ele>
        <time>2012-08-18T07:48:59Z</time>
      </trkpt>
      <trkpt lat="43.34017" lon="-1.57844">
        <ele>183.75</ele>
        <time>2012-08-18T07:49:14Z</time>
      </trkpt>
      <trkpt lat="43.33981" lon="-1.57818">
        <ele>186.63</ele>
        <time>2012-08-18T07:49:31Z</time>
      </trkpt>
      <trkpt lat="43.33948" lon="-1.57799">
        <ele>188.56</ele>
        <time>2012-08-18T07:49:46Z</time>
      </trkpt>
      <trkpt lat="43.33924" lon="-1.57791">
        <ele>187.59</ele>
        <time>2012-08-18T07:49:54Z</time>
      </trkpt>
      <trkpt lat="43.33919" lon="-1.5779">
        <ele>187.59</ele>
        <time>2012-08-18T07:49:55Z</time>
      </trkpt>
      <trkpt lat="43.33914" lon="-1.57791">
        <ele>187.11</ele>
        <time>2012-08-18T07:49:56Z</time>
      </trkpt>
      <trkpt lat="43.33891" lon="-1.57797">
        <ele>185.19</ele>
        <time>2012-08-18T07:50:00Z</time>
      </trkpt>
      <trkpt lat="43.33885" lon="-1.57795">
        <ele>185.67</ele>
        <time>2012-08-18T07:50:01Z</time>
      </trkpt>
      <trkpt lat="43.3388" lon="-1.57792">
        <ele>186.15</ele>
        <time>2012-08-18T07:50:02Z</time>
      </trkpt>
      <trkpt lat="43.33876" lon="-1.57788">
        <ele>186.15</ele>
        <time>2012-08-18T07:50:03Z</time>
      </trkpt>
      <trkpt lat="43.33873" lon="-1.57784">
        <ele>186.63</ele>
        <time>2012-08-18T07:50:04Z</time>
      </trkpt>
      <trkpt lat="43.3387" lon="-1.57782">
        <ele>187.59</ele>
        <time>2012-08-18T07:50:05Z</time>
      </trkpt>
      <trkpt lat="43.33868" lon="-1.57779">
        <ele>188.56</ele>
        <time>2012-08-18T07:50:06Z</time>
      </trkpt>
      <trkpt lat="43.33866" lon="-1.57777">
        <ele>189.52</ele>
        <time>2012-08-18T07:50:07Z</time>
      </trkpt>
      <trkpt lat="43.33864" lon="-1.57775">
        <ele>189.04</ele>
        <time>2012-08-18T07:50:08Z</time>
      </trkpt>
      <trkpt lat="43.33862" lon="-1.57773">
        <ele>189.52</ele>
        <time>2012-08-18T07:50:09Z</time>
      </trkpt>
      <trkpt lat="43.3386" lon="-1.57772">
        <ele>189.52</ele>
        <time>2012-08-18T07:50:10Z</time>
      </trkpt>
      <trkpt lat="43.33835" lon="-1.57767">
        <ele>192.88</ele>
        <time>2012-08-18T07:50:22Z</time>
      </trkpt>
      <trkpt lat="43.33826" lon="-1.57777">
        <ele>194.8</ele>
        <time>2012-08-18T07:50:29Z</time>
      </trkpt>
      <trkpt lat="43.33824" lon="-1.57778">
        <ele>194.8</ele>
        <time>2012-08-18T07:50:30Z</time>
      </trkpt>
      <trkpt lat="43.33823" lon="-1.5778">
        <ele>195.28</ele>
        <time>2012-08-18T07:50:31Z</time>
      </trkpt>
      <trkpt lat="43.33822" lon="-1.57782">
        <ele>195.77</ele>
        <time>2012-08-18T07:50:32Z</time>
      </trkpt>
      <trkpt lat="43.3382" lon="-1.57784">
        <ele>195.77</ele>
        <time>2012-08-18T07:50:33Z</time>
      </trkpt>
      <trkpt lat="43.33813" lon="-1.57805">
        <ele>198.17</ele>
        <time>2012-08-18T07:50:44Z</time>
      </trkpt>
      <trkpt lat="43.33813" lon="-1.57807">
        <ele>198.17</ele>
        <time>2012-08-18T07:50:45Z</time>
      </trkpt>
      <trkpt lat="43.33813" lon="-1.57809">
        <ele>199.13</ele>
        <time>2012-08-18T07:50:46Z</time>
      </trkpt>
      <trkpt lat="43.33813" lon="-1.5781">
        <ele>199.13</ele>
        <time>2012-08-18T07:50:47Z</time>
      </trkpt>
      <trkpt lat="43.33808" lon="-1.57823">
        <ele>200.09</ele>
        <time>2012-08-18T07:51:00Z</time>
      </trkpt>
      <trkpt lat="43.33809" lon="-1.57831">
        <ele>200.57</ele>
        <time>2012-08-18T07:51:08Z</time>
      </trkpt>
      <trkpt lat="43.3381" lon="-1.57837">
        <ele>201.53</ele>
        <time>2012-08-18T07:51:14Z</time>
      </trkpt>
      <trkpt lat="43.33807" lon="-1.57844">
        <ele>201.53</ele>
        <time>2012-08-18T07:51:20Z</time>
      </trkpt>
      <trkpt lat="43.33807" lon="-1.57858">
        <ele>202.98</ele>
        <time>2012-08-18T07:51:31Z</time>
      </trkpt>
      <trkpt lat="43.33809" lon="-1.5787">
        <ele>204.42</ele>
        <time>2012-08-18T07:51:41Z</time>
      </trkpt>
      <trkpt lat="43.3381" lon="-1.57877">
        <ele>204.42</ele>
        <time>2012-08-18T07:51:47Z</time>
      </trkpt>
      <trkpt lat="43.33813" lon="-1.57879">
        <ele>205.38</ele>
        <time>2012-08-18T07:51:51Z</time>
      </trkpt>
      <trkpt lat="43.33813" lon="-1.5788">
        <ele>205.38</ele>
        <time>2012-08-18T07:51:52Z</time>
      </trkpt>
      <trkpt lat="43.33813" lon="-1.57882">
        <ele>205.38</ele>
        <time>2012-08-18T07:51:53Z</time>
      </trkpt>
      <trkpt lat="43.33813" lon="-1.57884">
        <ele>205.38</ele>
        <time>2012-08-18T07:51:54Z</time>
      </trkpt>
      <trkpt lat="43.33812" lon="-1.57885">
        <ele>205.86</ele>
        <time>2012-08-18T07:51:55Z</time>
      </trkpt>
      <trkpt lat="43.33815" lon="-1.57914">
        <ele>207.78</ele>
        <time>2012-08-18T07:52:08Z</time>
      </trkpt>
      <trkpt lat="43.33824" lon="-1.57941">
        <ele>209.7</ele>
        <time>2012-08-18T07:52:21Z</time>
      </trkpt>
      <trkpt lat="43.33835" lon="-1.57969">
        <ele>210.67</ele>
        <time>2012-08-18T07:52:36Z</time>
      </trkpt>
      <trkpt lat="43.33836" lon="-1.57976">
        <ele>211.15</ele>
        <time>2012-08-18T07:52:40Z</time>
      </trkpt>
      <trkpt lat="43.33835" lon="-1.57978">
        <ele>211.15</ele>
        <time>2012-08-18T07:52:41Z</time>
      </trkpt>
      <trkpt lat="43.33813" lon="-1.57992">
        <ele>210.19</ele>
        <time>2012-08-18T07:52:53Z</time>
      </trkpt>
      <trkpt lat="43.33777" lon="-1.58018">
        <ele>208.26</ele>
        <time>2012-08-18T07:53:03Z</time>
      </trkpt>
      <trkpt lat="43.33769" lon="-1.58021">
        <ele>208.74</ele>
        <time>2012-08-18T07:53:05Z</time>
      </trkpt>
      <trkpt lat="43.33765" lon="-1.58023">
        <ele>208.26</ele>
        <time>2012-08-18T07:53:06Z</time>
      </trkpt>
      <trkpt lat="43.33752" lon="-1.58026">
        <ele>208.74</ele>
        <time>2012-08-18T07:53:09Z</time>
      </trkpt>
      <trkpt lat="43.33748" lon="-1.58026">
        <ele>208.26</ele>
        <time>2012-08-18T07:53:10Z</time>
      </trkpt>
      <trkpt lat="43.33744" lon="-1.58026">
        <ele>207.78</ele>
        <time>2012-08-18T07:53:11Z</time>
      </trkpt>
      <trkpt lat="43.3374" lon="-1.58025">
        <ele>208.26</ele>
        <time>2012-08-18T07:53:12Z</time>
      </trkpt>
      <trkpt lat="43.33735" lon="-1.58025">
        <ele>208.74</ele>
        <time>2012-08-18T07:53:13Z</time>
      </trkpt>
      <trkpt lat="43.33718" lon="-1.58019">
        <ele>208.74</ele>
        <time>2012-08-18T07:53:17Z</time>
      </trkpt>
      <trkpt lat="43.33694" lon="-1.58007">
        <ele>207.78</ele>
        <time>2012-08-18T07:53:22Z</time>
      </trkpt>
      <trkpt lat="43.33682" lon="-1.58001">
        <ele>206.82</ele>
        <time>2012-08-18T07:53:24Z</time>
      </trkpt>
      <trkpt lat="43.33675" lon="-1.57997">
        <ele>206.34</ele>
        <time>2012-08-18T07:53:25Z</time>
      </trkpt>
      <trkpt lat="43.33585" lon="-1.57939">
        <ele>205.38</ele>
        <time>2012-08-18T07:53:40Z</time>
      </trkpt>
      <trkpt lat="43.33533" lon="-1.57921">
        <ele>206.82</ele>
        <time>2012-08-18T07:53:51Z</time>
      </trkpt>
      <trkpt lat="43.33495" lon="-1.57888">
        <ele>208.74</ele>
        <time>2012-08-18T07:54:04Z</time>
      </trkpt>
      <trkpt lat="43.33456" lon="-1.57854">
        <ele>209.7</ele>
        <time>2012-08-18T07:54:17Z</time>
      </trkpt>
      <trkpt lat="43.33422" lon="-1.57829">
        <ele>209.7</ele>
        <time>2012-08-18T07:54:26Z</time>
      </trkpt>
      <trkpt lat="43.33417" lon="-1.57828">
        <ele>209.22</ele>
        <time>2012-08-18T07:54:27Z</time>
      </trkpt>
      <trkpt lat="43.33411" lon="-1.57827">
        <ele>208.26</ele>
        <time>2012-08-18T07:54:28Z</time>
      </trkpt>
      <trkpt lat="43.33405" lon="-1.57826">
        <ele>207.78</ele>
        <time>2012-08-18T07:54:29Z</time>
      </trkpt>
      <trkpt lat="43.33398" lon="-1.57827">
        <ele>206.82</ele>
        <time>2012-08-18T07:54:30Z</time>
      </trkpt>
      <trkpt lat="43.33392" lon="-1.57827">
        <ele>206.34</ele>
        <time>2012-08-18T07:54:31Z</time>
      </trkpt>
      <trkpt lat="43.33385" lon="-1.57828">
        <ele>205.86</ele>
        <time>2012-08-18T07:54:32Z</time>
      </trkpt>
      <trkpt lat="43.33378" lon="-1.57825">
        <ele>204.9</ele>
        <time>2012-08-18T07:54:33Z</time>
      </trkpt>
      <trkpt lat="43.33373" lon="-1.5782">
        <ele>204.9</ele>
        <time>2012-08-18T07:54:34Z</time>
      </trkpt>
      <trkpt lat="43.3337" lon="-1.57811">
        <ele>204.42</ele>
        <time>2012-08-18T07:54:35Z</time>
      </trkpt>
      <trkpt lat="43.33368" lon="-1.57802">
        <ele>203.94</ele>
        <time>2012-08-18T07:54:36Z</time>
      </trkpt>
      <trkpt lat="43.33368" lon="-1.57794">
        <ele>204.42</ele>
        <time>2012-08-18T07:54:37Z</time>
      </trkpt>
      <trkpt lat="43.33364" lon="-1.57755">
        <ele>203.46</ele>
        <time>2012-08-18T07:54:42Z</time>
      </trkpt>
      <trkpt lat="43.33362" lon="-1.57748">
        <ele>203.46</ele>
        <time>2012-08-18T07:54:43Z</time>
      </trkpt>
      <trkpt lat="43.33359" lon="-1.57741">
        <ele>202.98</ele>
        <time>2012-08-18T07:54:44Z</time>
      </trkpt>
      <trkpt lat="43.33355" lon="-1.57734">
        <ele>202.49</ele>
        <time>2012-08-18T07:54:45Z</time>
      </trkpt>
      <trkpt lat="43.33351" lon="-1.57727">
        <ele>202.01</ele>
        <time>2012-08-18T07:54:46Z</time>
      </trkpt>
      <trkpt lat="43.33337" lon="-1.57699">
        <ele>202.01</ele>
        <time>2012-08-18T07:54:50Z</time>
      </trkpt>
      <trkpt lat="43.33334" lon="-1.57693">
        <ele>201.53</ele>
        <time>2012-08-18T07:54:51Z</time>
      </trkpt>
      <trkpt lat="43.33324" lon="-1.57676">
        <ele>202.01</ele>
        <time>2012-08-18T07:54:54Z</time>
      </trkpt>
      <trkpt lat="43.33321" lon="-1.57672">
        <ele>202.49</ele>
        <time>2012-08-18T07:54:55Z</time>
      </trkpt>
      <trkpt lat="43.33317" lon="-1.57668">
        <ele>202.49</ele>
        <time>2012-08-18T07:54:56Z</time>
      </trkpt>
      <trkpt lat="43.33313" lon="-1.57665">
        <ele>202.98</ele>
        <time>2012-08-18T07:54:57Z</time>
      </trkpt>
      <trkpt lat="43.33309" lon="-1.57662">
        <ele>202.98</ele>
        <time>2012-08-18T07:54:58Z</time>
      </trkpt>
      <trkpt lat="43.33304" lon="-1.5766">
        <ele>202.01</ele>
        <time>2012-08-18T07:54:59Z</time>
      </trkpt>
      <trkpt lat="43.33299" lon="-1.57658">
        <ele>202.49</ele>
        <time>2012-08-18T07:55:00Z</time>
      </trkpt>
      <trkpt lat="43.33293" lon="-1.57657">
        <ele>201.53</ele>
        <time>2012-08-18T07:55:01Z</time>
      </trkpt>
      <trkpt lat="43.33287" lon="-1.57657">
        <ele>201.05</ele>
        <time>2012-08-18T07:55:02Z</time>
      </trkpt>
      <trkpt lat="43.33281" lon="-1.57659">
        <ele>200.09</ele>
        <time>2012-08-18T07:55:03Z</time>
      </trkpt>
      <trkpt lat="43.33275" lon="-1.57663">
        <ele>199.61</ele>
        <time>2012-08-18T07:55:04Z</time>
      </trkpt>
      <trkpt lat="43.33269" lon="-1.57668">
        <ele>198.17</ele>
        <time>2012-08-18T07:55:05Z</time>
      </trkpt>
      <trkpt lat="43.33262" lon="-1.57674">
        <ele>197.21</ele>
        <time>2012-08-18T07:55:06Z</time>
      </trkpt>
      <trkpt lat="43.33256" lon="-1.57681">
        <ele>196.25</ele>
        <time>2012-08-18T07:55:07Z</time>
      </trkpt>
      <trkpt lat="43.33237" lon="-1.57704">
        <ele>192.88</ele>
        <time>2012-08-18T07:55:10Z</time>
      </trkpt>
      <trkpt lat="43.33229" lon="-1.57709">
        <ele>192.88</ele>
        <time>2012-08-18T07:55:11Z</time>
      </trkpt>
      <trkpt lat="43.33222" lon="-1.57711">
        <ele>192.4</ele>
        <time>2012-08-18T07:55:12Z</time>
      </trkpt>
      <trkpt lat="43.33214" lon="-1.57711">
        <ele>191.44</ele>
        <time>2012-08-18T07:55:13Z</time>
      </trkpt>
      <trkpt lat="43.33206" lon="-1.57708">
        <ele>190.48</ele>
        <time>2012-08-18T07:55:14Z</time>
      </trkpt>
      <trkpt lat="43.33198" lon="-1.57706">
        <ele>189.04</ele>
        <time>2012-08-18T07:55:15Z</time>
      </trkpt>
      <trkpt lat="43.33189" lon="-1.57704">
        <ele>188.08</ele>
        <time>2012-08-18T07:55:16Z</time>
      </trkpt>
      <trkpt lat="43.33168" lon="-1.57701">
        <ele>183.75</ele>
        <time>2012-08-18T07:55:18Z</time>
      </trkpt>
      <trkpt lat="43.33137" lon="-1.57697">
        <ele>181.35</ele>
        <time>2012-08-18T07:55:21Z</time>
      </trkpt>
      <trkpt lat="43.33123" lon="-1.57697">
        <ele>180.38</ele>
        <time>2012-08-18T07:55:23Z</time>
      </trkpt>
      <trkpt lat="43.33104" lon="-1.57702">
        <ele>179.9</ele>
        <time>2012-08-18T07:55:29Z</time>
      </trkpt>
      <trkpt lat="43.33102" lon="-1.57705">
        <ele>179.9</ele>
        <time>2012-08-18T07:55:30Z</time>
      </trkpt>
      <trkpt lat="43.33101" lon="-1.57708">
        <ele>179.9</ele>
        <time>2012-08-18T07:55:31Z</time>
      </trkpt>
      <trkpt lat="43.331" lon="-1.57711">
        <ele>179.9</ele>
        <time>2012-08-18T07:55:32Z</time>
      </trkpt>
      <trkpt lat="43.331" lon="-1.57714">
        <ele>180.87</ele>
        <time>2012-08-18T07:55:33Z</time>
      </trkpt>
      <trkpt lat="43.331" lon="-1.57716">
        <ele>180.38</ele>
        <time>2012-08-18T07:55:34Z</time>
      </trkpt>
      <trkpt lat="43.33101" lon="-1.57719">
        <ele>180.38</ele>
        <time>2012-08-18T07:55:35Z</time>
      </trkpt>
      <trkpt lat="43.33101" lon="-1.57722">
        <ele>180.38</ele>
        <time>2012-08-18T07:55:36Z</time>
      </trkpt>
      <trkpt lat="43.33102" lon="-1.57724">
        <ele>180.38</ele>
        <time>2012-08-18T07:55:37Z</time>
      </trkpt>
      <trkpt lat="43.33103" lon="-1.57727">
        <ele>180.38</ele>
        <time>2012-08-18T07:55:38Z</time>
      </trkpt>
      <trkpt lat="43.3311" lon="-1.57764">
        <ele>182.79</ele>
        <time>2012-08-18T07:55:54Z</time>
      </trkpt>
      <trkpt lat="43.33114" lon="-1.57787">
        <ele>185.67</ele>
        <time>2012-08-18T07:56:07Z</time>
      </trkpt>
      <trkpt lat="43.33115" lon="-1.57788">
        <ele>185.67</ele>
        <time>2012-08-18T07:56:08Z</time>
      </trkpt>
      <trkpt lat="43.33115" lon="-1.5779">
        <ele>186.15</ele>
        <time>2012-08-18T07:56:09Z</time>
      </trkpt>
      <trkpt lat="43.33116" lon="-1.57792">
        <ele>185.67</ele>
        <time>2012-08-18T07:56:10Z</time>
      </trkpt>
      <trkpt lat="43.33116" lon="-1.57793">
        <ele>186.15</ele>
        <time>2012-08-18T07:56:11Z</time>
      </trkpt>
      <trkpt lat="43.33116" lon="-1.57795">
        <ele>186.15</ele>
        <time>2012-08-18T07:56:12Z</time>
      </trkpt>
      <trkpt lat="43.33117" lon="-1.57796">
        <ele>186.63</ele>
        <time>2012-08-18T07:56:13Z</time>
      </trkpt>
      <trkpt lat="43.33117" lon="-1.57798">
        <ele>187.11</ele>
        <time>2012-08-18T07:56:14Z</time>
      </trkpt>
      <trkpt lat="43.33125" lon="-1.5782">
        <ele>190</ele>
        <time>2012-08-18T07:56:29Z</time>
      </trkpt>
      <trkpt lat="43.33128" lon="-1.57835">
        <ele>190.96</ele>
        <time>2012-08-18T07:56:38Z</time>
      </trkpt>
      <trkpt lat="43.33132" lon="-1.57854">
        <ele>193.36</ele>
        <time>2012-08-18T07:56:50Z</time>
      </trkpt>
      <trkpt lat="43.33132" lon="-1.57856">
        <ele>193.36</ele>
        <time>2012-08-18T07:56:51Z</time>
      </trkpt>
      <trkpt lat="43.33132" lon="-1.57857">
        <ele>192.88</ele>
        <time>2012-08-18T07:56:52Z</time>
      </trkpt>
      <trkpt lat="43.33132" lon="-1.57859">
        <ele>193.36</ele>
        <time>2012-08-18T07:56:53Z</time>
      </trkpt>
      <trkpt lat="43.33133" lon="-1.57862">
        <ele>193.84</ele>
        <time>2012-08-18T07:56:55Z</time>
      </trkpt>
      <trkpt lat="43.33133" lon="-1.57864">
        <ele>193.84</ele>
        <time>2012-08-18T07:56:56Z</time>
      </trkpt>
      <trkpt lat="43.33133" lon="-1.57892">
        <ele>196.25</ele>
        <time>2012-08-18T07:57:13Z</time>
      </trkpt>
      <trkpt lat="43.33134" lon="-1.57894">
        <ele>196.73</ele>
        <time>2012-08-18T07:57:14Z</time>
      </trkpt>
      <trkpt lat="43.33134" lon="-1.57896">
        <ele>196.73</ele>
        <time>2012-08-18T07:57:16Z</time>
      </trkpt>
      <trkpt lat="43.3313" lon="-1.57913">
        <ele>199.13</ele>
        <time>2012-08-18T07:57:28Z</time>
      </trkpt>
      <trkpt lat="43.33126" lon="-1.57929">
        <ele>201.05</ele>
        <time>2012-08-18T07:57:39Z</time>
      </trkpt>
      <trkpt lat="43.33125" lon="-1.5793">
        <ele>201.05</ele>
        <time>2012-08-18T07:57:40Z</time>
      </trkpt>
      <trkpt lat="43.33125" lon="-1.57932">
        <ele>201.05</ele>
        <time>2012-08-18T07:57:41Z</time>
      </trkpt>
      <trkpt lat="43.33124" lon="-1.57934">
        <ele>201.05</ele>
        <time>2012-08-18T07:57:42Z</time>
      </trkpt>
      <trkpt lat="43.33123" lon="-1.57935">
        <ele>202.01</ele>
        <time>2012-08-18T07:57:43Z</time>
      </trkpt>
      <trkpt lat="43.33123" lon="-1.57937">
        <ele>202.01</ele>
        <time>2012-08-18T07:57:44Z</time>
      </trkpt>
      <trkpt lat="43.33122" lon="-1.57939">
        <ele>202.01</ele>
        <time>2012-08-18T07:57:45Z</time>
      </trkpt>
      <trkpt lat="43.33121" lon="-1.57943">
        <ele>202.49</ele>
        <time>2012-08-18T07:57:48Z</time>
      </trkpt>
      <trkpt lat="43.3312" lon="-1.57945">
        <ele>202.98</ele>
        <time>2012-08-18T07:57:49Z</time>
      </trkpt>
      <trkpt lat="43.33119" lon="-1.57946">
        <ele>202.98</ele>
        <time>2012-08-18T07:57:50Z</time>
      </trkpt>
      <trkpt lat="43.33119" lon="-1.57948">
        <ele>202.98</ele>
        <time>2012-08-18T07:57:51Z</time>
      </trkpt>
      <trkpt lat="43.33112" lon="-1.57961">
        <ele>205.38</ele>
        <time>2012-08-18T07:58:01Z</time>
      </trkpt>
      <trkpt lat="43.33112" lon="-1.57963">
        <ele>205.38</ele>
        <time>2012-08-18T07:58:02Z</time>
      </trkpt>
      <trkpt lat="43.33112" lon="-1.57965">
        <ele>205.38</ele>
        <time>2012-08-18T07:58:03Z</time>
      </trkpt>
      <trkpt lat="43.33111" lon="-1.57967">
        <ele>205.38</ele>
        <time>2012-08-18T07:58:04Z</time>
      </trkpt>
      <trkpt lat="43.33111" lon="-1.57968">
        <ele>205.38</ele>
        <time>2012-08-18T07:58:05Z</time>
      </trkpt>
      <trkpt lat="43.3311" lon="-1.57969">
        <ele>205.86</ele>
        <time>2012-08-18T07:58:06Z</time>
      </trkpt>
      <trkpt lat="43.33105" lon="-1.57985">
        <ele>208.26</ele>
        <time>2012-08-18T07:58:17Z</time>
      </trkpt>
      <trkpt lat="43.33105" lon="-1.57986">
        <ele>208.26</ele>
        <time>2012-08-18T07:58:18Z</time>
      </trkpt>
      <trkpt lat="43.33104" lon="-1.57988">
        <ele>208.26</ele>
        <time>2012-08-18T07:58:19Z</time>
      </trkpt>
      <trkpt lat="43.33104" lon="-1.5799">
        <ele>208.74</ele>
        <time>2012-08-18T07:58:20Z</time>
      </trkpt>
      <trkpt lat="43.33103" lon="-1.57991">
        <ele>208.74</ele>
        <time>2012-08-18T07:58:21Z</time>
      </trkpt>
      <trkpt lat="43.33103" lon="-1.57993">
        <ele>209.22</ele>
        <time>2012-08-18T07:58:22Z</time>
      </trkpt>
      <trkpt lat="43.33103" lon="-1.57994">
        <ele>209.7</ele>
        <time>2012-08-18T07:58:23Z</time>
      </trkpt>
      <trkpt lat="43.33103" lon="-1.57996">
        <ele>209.22</ele>
        <time>2012-08-18T07:58:24Z</time>
      </trkpt>
      <trkpt lat="43.33102" lon="-1.57997">
        <ele>209.7</ele>
        <time>2012-08-18T07:58:25Z</time>
      </trkpt>
      <trkpt lat="43.33102" lon="-1.57999">
        <ele>209.7</ele>
        <time>2012-08-18T07:58:26Z</time>
      </trkpt>
      <trkpt lat="43.33101" lon="-1.58001">
        <ele>209.7</ele>
        <time>2012-08-18T07:58:27Z</time>
      </trkpt>
      <trkpt lat="43.33101" lon="-1.58002">
        <ele>209.7</ele>
        <time>2012-08-18T07:58:28Z</time>
      </trkpt>
      <trkpt lat="43.33097" lon="-1.58024">
        <ele>212.11</ele>
        <time>2012-08-18T07:58:42Z</time>
      </trkpt>
      <trkpt lat="43.33096" lon="-1.58025">
        <ele>212.59</ele>
        <time>2012-08-18T07:58:43Z</time>
      </trkpt>
      <trkpt lat="43.33095" lon="-1.58027">
        <ele>212.59</ele>
        <time>2012-08-18T07:58:44Z</time>
      </trkpt>
      <trkpt lat="43.33095" lon="-1.58029">
        <ele>212.59</ele>
        <time>2012-08-18T07:58:45Z</time>
      </trkpt>
      <trkpt lat="43.33095" lon="-1.5803">
        <ele>213.07</ele>
        <time>2012-08-18T07:58:46Z</time>
      </trkpt>
      <trkpt lat="43.33089" lon="-1.58044">
        <ele>214.99</ele>
        <time>2012-08-18T07:58:56Z</time>
      </trkpt>
      <trkpt lat="43.33088" lon="-1.58045">
        <ele>214.51</ele>
        <time>2012-08-18T07:58:57Z</time>
      </trkpt>
      <trkpt lat="43.33087" lon="-1.58047">
        <ele>215.47</ele>
        <time>2012-08-18T07:58:58Z</time>
      </trkpt>
      <trkpt lat="43.3308" lon="-1.58069">
        <ele>218.84</ele>
        <time>2012-08-18T07:59:14Z</time>
      </trkpt>
      <trkpt lat="43.33079" lon="-1.58071">
        <ele>218.84</ele>
        <time>2012-08-18T07:59:15Z</time>
      </trkpt>
      <trkpt lat="43.33079" lon="-1.58072">
        <ele>218.84</ele>
        <time>2012-08-18T07:59:16Z</time>
      </trkpt>
      <trkpt lat="43.33078" lon="-1.58074">
        <ele>218.84</ele>
        <time>2012-08-18T07:59:17Z</time>
      </trkpt>
      <trkpt lat="43.33078" lon="-1.58099">
        <ele>222.2</ele>
        <time>2012-08-18T07:59:31Z</time>
      </trkpt>
      <trkpt lat="43.33087" lon="-1.58123">
        <ele>223.16</ele>
        <time>2012-08-18T07:59:46Z</time>
      </trkpt>
      <trkpt lat="43.33103" lon="-1.58151">
        <ele>223.64</ele>
        <time>2012-08-18T08:00:01Z</time>
      </trkpt>
      <trkpt lat="43.33132" lon="-1.58188">
        <ele>226.05</ele>
        <time>2012-08-18T08:00:21Z</time>
      </trkpt>
      <trkpt lat="43.33157" lon="-1.58201">
        <ele>227.49</ele>
        <time>2012-08-18T08:00:35Z</time>
      </trkpt>
      <trkpt lat="43.33191" lon="-1.58214">
        <ele>229.41</ele>
        <time>2012-08-18T08:00:51Z</time>
      </trkpt>
      <trkpt lat="43.33224" lon="-1.58227">
        <ele>228.93</ele>
        <time>2012-08-18T08:01:05Z</time>
      </trkpt>
      <trkpt lat="43.33254" lon="-1.58268">
        <ele>230.37</ele>
        <time>2012-08-18T08:01:22Z</time>
      </trkpt>
      <trkpt lat="43.33284" lon="-1.58322">
        <ele>231.33</ele>
        <time>2012-08-18T08:01:40Z</time>
      </trkpt>
      <trkpt lat="43.33296" lon="-1.58346">
        <ele>228.93</ele>
        <time>2012-08-18T08:01:44Z</time>
      </trkpt>
      <trkpt lat="43.33298" lon="-1.58355">
        <ele>228.93</ele>
        <time>2012-08-18T08:01:45Z</time>
      </trkpt>
      <trkpt lat="43.333" lon="-1.58363">
        <ele>228.45</ele>
        <time>2012-08-18T08:01:46Z</time>
      </trkpt>
      <trkpt lat="43.333" lon="-1.58373">
        <ele>227.49</ele>
        <time>2012-08-18T08:01:47Z</time>
      </trkpt>
      <trkpt lat="43.33301" lon="-1.58382">
        <ele>227.01</ele>
        <time>2012-08-18T08:01:48Z</time>
      </trkpt>
      <trkpt lat="43.33303" lon="-1.58391">
        <ele>227.01</ele>
        <time>2012-08-18T08:01:49Z</time>
      </trkpt>
      <trkpt lat="43.33307" lon="-1.58399">
        <ele>227.49</ele>
        <time>2012-08-18T08:01:50Z</time>
      </trkpt>
      <trkpt lat="43.33313" lon="-1.58404">
        <ele>227.01</ele>
        <time>2012-08-18T08:01:51Z</time>
      </trkpt>
      <trkpt lat="43.33319" lon="-1.58405">
        <ele>227.49</ele>
        <time>2012-08-18T08:01:52Z</time>
      </trkpt>
      <trkpt lat="43.33325" lon="-1.58404">
        <ele>227.97</ele>
        <time>2012-08-18T08:01:53Z</time>
      </trkpt>
      <trkpt lat="43.3333" lon="-1.58402">
        <ele>227.97</ele>
        <time>2012-08-18T08:01:54Z</time>
      </trkpt>
      <trkpt lat="43.33335" lon="-1.58401">
        <ele>228.45</ele>
        <time>2012-08-18T08:01:55Z</time>
      </trkpt>
      <trkpt lat="43.33339" lon="-1.584">
        <ele>228.93</ele>
        <time>2012-08-18T08:01:56Z</time>
      </trkpt>
      <trkpt lat="43.33343" lon="-1.584">
        <ele>228.45</ele>
        <time>2012-08-18T08:01:57Z</time>
      </trkpt>
      <trkpt lat="43.33347" lon="-1.584">
        <ele>228.45</ele>
        <time>2012-08-18T08:01:58Z</time>
      </trkpt>
      <trkpt lat="43.33351" lon="-1.58402">
        <ele>228.93</ele>
        <time>2012-08-18T08:01:59Z</time>
      </trkpt>
      <trkpt lat="43.33354" lon="-1.58404">
        <ele>228.93</ele>
        <time>2012-08-18T08:02:00Z</time>
      </trkpt>
      <trkpt lat="43.33357" lon="-1.58407">
        <ele>228.93</ele>
        <time>2012-08-18T08:02:01Z</time>
      </trkpt>
      <trkpt lat="43.33359" lon="-1.5841">
        <ele>229.41</ele>
        <time>2012-08-18T08:02:02Z</time>
      </trkpt>
      <trkpt lat="43.33361" lon="-1.58414">
        <ele>229.89</ele>
        <time>2012-08-18T08:02:03Z</time>
      </trkpt>
      <trkpt lat="43.33362" lon="-1.58418">
        <ele>229.89</ele>
        <time>2012-08-18T08:02:04Z</time>
      </trkpt>
      <trkpt lat="43.33364" lon="-1.58422">
        <ele>229.89</ele>
        <time>2012-08-18T08:02:05Z</time>
      </trkpt>
      <trkpt lat="43.33374" lon="-1.58475">
        <ele>232.78</ele>
        <time>2012-08-18T08:02:18Z</time>
      </trkpt>
      <trkpt lat="43.33379" lon="-1.58536">
        <ele>234.22</ele>
        <time>2012-08-18T08:02:33Z</time>
      </trkpt>
      <trkpt lat="43.33372" lon="-1.58603">
        <ele>234.7</ele>
        <time>2012-08-18T08:02:47Z</time>
      </trkpt>
      <trkpt lat="43.33379" lon="-1.5862">
        <ele>236.14</ele>
        <time>2012-08-18T08:02:54Z</time>
      </trkpt>
      <trkpt lat="43.3338" lon="-1.58621">
        <ele>236.62</ele>
        <time>2012-08-18T08:02:55Z</time>
      </trkpt>
      <trkpt lat="43.33398" lon="-1.58638">
        <ele>239.02</ele>
        <time>2012-08-18T08:03:09Z</time>
      </trkpt>
      <trkpt lat="43.33416" lon="-1.58657">
        <ele>241.43</ele>
        <time>2012-08-18T08:03:22Z</time>
      </trkpt>
      <trkpt lat="43.33417" lon="-1.58658">
        <ele>241.43</ele>
        <time>2012-08-18T08:03:23Z</time>
      </trkpt>
      <trkpt lat="43.33418" lon="-1.58659">
        <ele>241.43</ele>
        <time>2012-08-18T08:03:24Z</time>
      </trkpt>
      <trkpt lat="43.3342" lon="-1.5866">
        <ele>241.43</ele>
        <time>2012-08-18T08:03:25Z</time>
      </trkpt>
      <trkpt lat="43.33421" lon="-1.58661">
        <ele>241.91</ele>
        <time>2012-08-18T08:03:26Z</time>
      </trkpt>
      <trkpt lat="43.33434" lon="-1.58674">
        <ele>243.35</ele>
        <time>2012-08-18T08:03:35Z</time>
      </trkpt>
      <trkpt lat="43.33436" lon="-1.58675">
        <ele>243.35</ele>
        <time>2012-08-18T08:03:36Z</time>
      </trkpt>
      <trkpt lat="43.33437" lon="-1.58676">
        <ele>243.83</ele>
        <time>2012-08-18T08:03:37Z</time>
      </trkpt>
      <trkpt lat="43.33452" lon="-1.5871">
        <ele>242.87</ele>
        <time>2012-08-18T08:03:52Z</time>
      </trkpt>
      <trkpt lat="43.33454" lon="-1.5872">
        <ele>241.91</ele>
        <time>2012-08-18T08:03:54Z</time>
      </trkpt>
      <trkpt lat="43.33455" lon="-1.58724">
        <ele>241.91</ele>
        <time>2012-08-18T08:03:55Z</time>
      </trkpt>
      <trkpt lat="43.33454" lon="-1.58727">
        <ele>241.91</ele>
        <time>2012-08-18T08:04:02Z</time>
      </trkpt>
      <trkpt lat="43.33456" lon="-1.58724">
        <ele>241.91</ele>
        <time>2012-08-18T08:04:10Z</time>
      </trkpt>
      <trkpt lat="43.33459" lon="-1.58724">
        <ele>242.39</ele>
        <time>2012-08-18T08:04:21Z</time>
      </trkpt>
      <trkpt lat="43.33459" lon="-1.58724">
        <ele>241.43</ele>
        <time>2012-08-18T08:05:01Z</time>
      </trkpt>
      <trkpt lat="43.33459" lon="-1.58724">
        <ele>241.91</ele>
        <time>2012-08-18T08:05:35Z</time>
      </trkpt>
      <trkpt lat="43.3346" lon="-1.58724">
        <ele>241.43</ele>
        <time>2012-08-18T08:06:16Z</time>
      </trkpt>
      <trkpt lat="43.3346" lon="-1.58724">
        <ele>241.43</ele>
        <time>2012-08-18T08:06:50Z</time>
      </trkpt>
      <trkpt lat="43.3346" lon="-1.58724">
        <ele>241.43</ele>
        <time>2012-08-18T08:07:31Z</time>
      </trkpt>
      <trkpt lat="43.33459" lon="-1.58724">
        <ele>241.91</ele>
        <time>2012-08-18T08:08:14Z</time>
      </trkpt>
      <trkpt lat="43.33459" lon="-1.58724">
        <ele>242.39</ele>
        <time>2012-08-18T08:08:56Z</time>
      </trkpt>
      <trkpt lat="43.33459" lon="-1.58724">
        <ele>241.91</ele>
        <time>2012-08-18T08:09:38Z</time>
      </trkpt>
      <trkpt lat="43.33458" lon="-1.58722">
        <ele>242.87</ele>
        <time>2012-08-18T08:10:14Z</time>
      </trkpt>
      <trkpt lat="43.33456" lon="-1.58721">
        <ele>242.39</ele>
        <time>2012-08-18T08:10:21Z</time>
      </trkpt>
      <trkpt lat="43.33455" lon="-1.5872">
        <ele>242.87</ele>
        <time>2012-08-18T08:10:22Z</time>
      </trkpt>
      <trkpt lat="43.33454" lon="-1.58718">
        <ele>242.87</ele>
        <time>2012-08-18T08:10:23Z</time>
      </trkpt>
      <trkpt lat="43.33454" lon="-1.58716">
        <ele>242.87</ele>
        <time>2012-08-18T08:10:24Z</time>
      </trkpt>
      <trkpt lat="43.33453" lon="-1.58714">
        <ele>243.35</ele>
        <time>2012-08-18T08:10:25Z</time>
      </trkpt>
      <trkpt lat="43.33453" lon="-1.58712">
        <ele>243.35</ele>
        <time>2012-08-18T08:10:26Z</time>
      </trkpt>
      <trkpt lat="43.33452" lon="-1.5871">
        <ele>243.35</ele>
        <time>2012-08-18T08:10:27Z</time>
      </trkpt>
      <trkpt lat="43.33452" lon="-1.58709">
        <ele>243.35</ele>
        <time>2012-08-18T08:10:28Z</time>
      </trkpt>
      <trkpt lat="43.33451" lon="-1.58707">
        <ele>243.83</ele>
        <time>2012-08-18T08:10:29Z</time>
      </trkpt>
      <trkpt lat="43.33451" lon="-1.58705">
        <ele>243.83</ele>
        <time>2012-08-18T08:10:30Z</time>
      </trkpt>
      <trkpt lat="43.33449" lon="-1.58701">
        <ele>243.83</ele>
        <time>2012-08-18T08:10:32Z</time>
      </trkpt>
      <trkpt lat="43.33448" lon="-1.58699">
        <ele>243.35</ele>
        <time>2012-08-18T08:10:33Z</time>
      </trkpt>
      <trkpt lat="43.33447" lon="-1.58698">
        <ele>244.31</ele>
        <time>2012-08-18T08:10:34Z</time>
      </trkpt>
      <trkpt lat="43.33446" lon="-1.58696">
        <ele>243.83</ele>
        <time>2012-08-18T08:10:35Z</time>
      </trkpt>
      <trkpt lat="43.33445" lon="-1.58695">
        <ele>243.83</ele>
        <time>2012-08-18T08:10:36Z</time>
      </trkpt>
      <trkpt lat="43.33444" lon="-1.58694">
        <ele>244.31</ele>
        <time>2012-08-18T08:10:37Z</time>
      </trkpt>
      <trkpt lat="43.33442" lon="-1.58693">
        <ele>244.31</ele>
        <time>2012-08-18T08:10:38Z</time>
      </trkpt>
      <trkpt lat="43.33426" lon="-1.58691">
        <ele>245.75</ele>
        <time>2012-08-18T08:10:50Z</time>
      </trkpt>
      <trkpt lat="43.33426" lon="-1.58693">
        <ele>246.23</ele>
        <time>2012-08-18T08:10:51Z</time>
      </trkpt>
      <trkpt lat="43.33425" lon="-1.58694">
        <ele>245.75</ele>
        <time>2012-08-18T08:10:52Z</time>
      </trkpt>
      <trkpt lat="43.33424" lon="-1.58694">
        <ele>246.23</ele>
        <time>2012-08-18T08:10:53Z</time>
      </trkpt>
      <trkpt lat="43.33422" lon="-1.58695">
        <ele>246.23</ele>
        <time>2012-08-18T08:10:54Z</time>
      </trkpt>
      <trkpt lat="43.33421" lon="-1.58695">
        <ele>246.72</ele>
        <time>2012-08-18T08:10:55Z</time>
      </trkpt>
      <trkpt lat="43.3342" lon="-1.58696">
        <ele>246.23</ele>
        <time>2012-08-18T08:10:56Z</time>
      </trkpt>
      <trkpt lat="43.33418" lon="-1.58697">
        <ele>246.72</ele>
        <time>2012-08-18T08:10:57Z</time>
      </trkpt>
      <trkpt lat="43.33418" lon="-1.58698">
        <ele>246.23</ele>
        <time>2012-08-18T08:10:58Z</time>
      </trkpt>
      <trkpt lat="43.33417" lon="-1.58698">
        <ele>246.72</ele>
        <time>2012-08-18T08:10:59Z</time>
      </trkpt>
      <trkpt lat="43.33416" lon="-1.58699">
        <ele>246.72</ele>
        <time>2012-08-18T08:11:00Z</time>
      </trkpt>
      <trkpt lat="43.33401" lon="-1.58705">
        <ele>248.64</ele>
        <time>2012-08-18T08:11:15Z</time>
      </trkpt>
      <trkpt lat="43.33389" lon="-1.58707">
        <ele>252</ele>
        <time>2012-08-18T08:11:29Z</time>
      </trkpt>
      <trkpt lat="43.33388" lon="-1.58706">
        <ele>251.52</ele>
        <time>2012-08-18T08:11:30Z</time>
      </trkpt>
      <trkpt lat="43.33384" lon="-1.58707">
        <ele>252.48</ele>
        <time>2012-08-18T08:11:34Z</time>
      </trkpt>
      <trkpt lat="43.33377" lon="-1.58708">
        <ele>253.93</ele>
        <time>2012-08-18T08:11:42Z</time>
      </trkpt>
      <trkpt lat="43.33365" lon="-1.58709">
        <ele>255.37</ele>
        <time>2012-08-18T08:11:54Z</time>
      </trkpt>
      <trkpt lat="43.33352" lon="-1.58705">
        <ele>258.25</ele>
        <time>2012-08-18T08:12:09Z</time>
      </trkpt>
      <trkpt lat="43.33339" lon="-1.58706">
        <ele>260.65</ele>
        <time>2012-08-18T08:12:23Z</time>
      </trkpt>
      <trkpt lat="43.33326" lon="-1.58707">
        <ele>263.54</ele>
        <time>2012-08-18T08:12:38Z</time>
      </trkpt>
      <trkpt lat="43.33315" lon="-1.58706">
        <ele>264.98</ele>
        <time>2012-08-18T08:12:51Z</time>
      </trkpt>
      <trkpt lat="43.33313" lon="-1.58706">
        <ele>265.46</ele>
        <time>2012-08-18T08:12:53Z</time>
      </trkpt>
      <trkpt lat="43.33312" lon="-1.58705">
        <ele>265.46</ele>
        <time>2012-08-18T08:12:54Z</time>
      </trkpt>
      <trkpt lat="43.33311" lon="-1.58704">
        <ele>265.94</ele>
        <time>2012-08-18T08:12:55Z</time>
      </trkpt>
      <trkpt lat="43.33306" lon="-1.58701">
        <ele>266.9</ele>
        <time>2012-08-18T08:13:01Z</time>
      </trkpt>
      <trkpt lat="43.33295" lon="-1.58698">
        <ele>269.31</ele>
        <time>2012-08-18T08:13:14Z</time>
      </trkpt>
      <trkpt lat="43.33285" lon="-1.58696">
        <ele>271.23</ele>
        <time>2012-08-18T08:13:26Z</time>
      </trkpt>
      <trkpt lat="43.33273" lon="-1.58692">
        <ele>274.11</ele>
        <time>2012-08-18T08:13:39Z</time>
      </trkpt>
      <trkpt lat="43.33271" lon="-1.58692">
        <ele>274.11</ele>
        <time>2012-08-18T08:13:41Z</time>
      </trkpt>
      <trkpt lat="43.33268" lon="-1.5869">
        <ele>274.59</ele>
        <time>2012-08-18T08:13:45Z</time>
      </trkpt>
      <trkpt lat="43.33256" lon="-1.58686">
        <ele>277.96</ele>
        <time>2012-08-18T08:13:58Z</time>
      </trkpt>
      <trkpt lat="43.33245" lon="-1.58682">
        <ele>280.84</ele>
        <time>2012-08-18T08:14:12Z</time>
      </trkpt>
      <trkpt lat="43.3324" lon="-1.58681">
        <ele>280.84</ele>
        <time>2012-08-18T08:14:17Z</time>
      </trkpt>
      <trkpt lat="43.33236" lon="-1.58679">
        <ele>282.28</ele>
        <time>2012-08-18T08:14:23Z</time>
      </trkpt>
      <trkpt lat="43.33235" lon="-1.58678">
        <ele>282.77</ele>
        <time>2012-08-18T08:14:24Z</time>
      </trkpt>
      <trkpt lat="43.33225" lon="-1.58671">
        <ele>284.21</ele>
        <time>2012-08-18T08:14:37Z</time>
      </trkpt>
      <trkpt lat="43.33222" lon="-1.58669">
        <ele>284.69</ele>
        <time>2012-08-18T08:14:41Z</time>
      </trkpt>
      <trkpt lat="43.33209" lon="-1.58661">
        <ele>286.61</ele>
        <time>2012-08-18T08:14:56Z</time>
      </trkpt>
      <trkpt lat="43.33204" lon="-1.58657">
        <ele>287.57</ele>
        <time>2012-08-18T08:15:01Z</time>
      </trkpt>
      <trkpt lat="43.332" lon="-1.58654">
        <ele>288.05</ele>
        <time>2012-08-18T08:15:06Z</time>
      </trkpt>
      <trkpt lat="43.33199" lon="-1.58653">
        <ele>288.53</ele>
        <time>2012-08-18T08:15:07Z</time>
      </trkpt>
      <trkpt lat="43.33198" lon="-1.58653">
        <ele>288.05</ele>
        <time>2012-08-18T08:15:08Z</time>
      </trkpt>
      <trkpt lat="43.33193" lon="-1.58648">
        <ele>288.53</ele>
        <time>2012-08-18T08:15:13Z</time>
      </trkpt>
      <trkpt lat="43.33192" lon="-1.58647">
        <ele>289.01</ele>
        <time>2012-08-18T08:15:14Z</time>
      </trkpt>
      <trkpt lat="43.33191" lon="-1.58646">
        <ele>288.53</ele>
        <time>2012-08-18T08:15:15Z</time>
      </trkpt>
      <trkpt lat="43.3319" lon="-1.58645">
        <ele>289.01</ele>
        <time>2012-08-18T08:15:16Z</time>
      </trkpt>
      <trkpt lat="43.33189" lon="-1.58644">
        <ele>289.01</ele>
        <time>2012-08-18T08:15:17Z</time>
      </trkpt>
      <trkpt lat="43.33188" lon="-1.58643">
        <ele>289.01</ele>
        <time>2012-08-18T08:15:18Z</time>
      </trkpt>
      <trkpt lat="43.33187" lon="-1.58641">
        <ele>289.49</ele>
        <time>2012-08-18T08:15:19Z</time>
      </trkpt>
      <trkpt lat="43.33172" lon="-1.58636">
        <ele>290.46</ele>
        <time>2012-08-18T08:15:31Z</time>
      </trkpt>
      <trkpt lat="43.33171" lon="-1.58636">
        <ele>290.94</ele>
        <time>2012-08-18T08:15:32Z</time>
      </trkpt>
      <trkpt lat="43.3317" lon="-1.58637">
        <ele>290.46</ele>
        <time>2012-08-18T08:15:33Z</time>
      </trkpt>
      <trkpt lat="43.33169" lon="-1.58637">
        <ele>290.94</ele>
        <time>2012-08-18T08:15:34Z</time>
      </trkpt>
      <trkpt lat="43.33168" lon="-1.58638">
        <ele>290.94</ele>
        <time>2012-08-18T08:15:35Z</time>
      </trkpt>
      <trkpt lat="43.33167" lon="-1.5864">
        <ele>290.94</ele>
        <time>2012-08-18T08:15:36Z</time>
      </trkpt>
      <trkpt lat="43.33166" lon="-1.58641">
        <ele>290.94</ele>
        <time>2012-08-18T08:15:37Z</time>
      </trkpt>
      <trkpt lat="43.33165" lon="-1.58642">
        <ele>291.42</ele>
        <time>2012-08-18T08:15:38Z</time>
      </trkpt>
      <trkpt lat="43.33165" lon="-1.58643">
        <ele>291.42</ele>
        <time>2012-08-18T08:15:39Z</time>
      </trkpt>
      <trkpt lat="43.33164" lon="-1.58644">
        <ele>291.42</ele>
        <time>2012-08-18T08:15:40Z</time>
      </trkpt>
      <trkpt lat="43.33163" lon="-1.58645">
        <ele>291.42</ele>
        <time>2012-08-18T08:15:41Z</time>
      </trkpt>
      <trkpt lat="43.33157" lon="-1.5865">
        <ele>292.38</ele>
        <time>2012-08-18T08:15:47Z</time>
      </trkpt>
      <trkpt lat="43.33147" lon="-1.58658">
        <ele>293.82</ele>
        <time>2012-08-18T08:15:56Z</time>
      </trkpt>
      <trkpt lat="43.33131" lon="-1.5868">
        <ele>296.22</ele>
        <time>2012-08-18T08:16:13Z</time>
      </trkpt>
      <trkpt lat="43.33128" lon="-1.58682">
        <ele>296.22</ele>
        <time>2012-08-18T08:16:15Z</time>
      </trkpt>
      <trkpt lat="43.33119" lon="-1.58689">
        <ele>296.7</ele>
        <time>2012-08-18T08:16:25Z</time>
      </trkpt>
      <trkpt lat="43.33119" lon="-1.58689">
        <ele>296.7</ele>
        <time>2012-08-18T08:16:40Z</time>
      </trkpt>
      <trkpt lat="43.33119" lon="-1.5869">
        <ele>296.7</ele>
        <time>2012-08-18T08:17:04Z</time>
      </trkpt>
      <trkpt lat="43.3312" lon="-1.5869">
        <ele>296.7</ele>
        <time>2012-08-18T08:17:46Z</time>
      </trkpt>
      <trkpt lat="43.3312" lon="-1.5869">
        <ele>297.18</ele>
        <time>2012-08-18T08:18:31Z</time>
      </trkpt>
      <trkpt lat="43.3312" lon="-1.5869">
        <ele>296.7</ele>
        <time>2012-08-18T08:19:07Z</time>
      </trkpt>
      <trkpt lat="43.3312" lon="-1.5869">
        <ele>297.18</ele>
        <time>2012-08-18T08:19:47Z</time>
      </trkpt>
      <trkpt lat="43.3312" lon="-1.58691">
        <ele>296.7</ele>
        <time>2012-08-18T08:20:34Z</time>
      </trkpt>
      <trkpt lat="43.3312" lon="-1.5869">
        <ele>296.7</ele>
        <time>2012-08-18T08:21:12Z</time>
      </trkpt>
      <trkpt lat="43.3312" lon="-1.5869">
        <ele>296.22</ele>
        <time>2012-08-18T08:21:53Z</time>
      </trkpt>
      <trkpt lat="43.33119" lon="-1.5869">
        <ele>296.7</ele>
        <time>2012-08-18T08:22:31Z</time>
      </trkpt>
      <trkpt lat="43.33119" lon="-1.5869">
        <ele>296.22</ele>
        <time>2012-08-18T08:23:00Z</time>
      </trkpt>
      <trkpt lat="43.3312" lon="-1.5869">
        <ele>296.22</ele>
        <time>2012-08-18T08:23:42Z</time>
      </trkpt>
      <trkpt lat="43.3312" lon="-1.58689">
        <ele>297.18</ele>
        <time>2012-08-18T08:24:10Z</time>
      </trkpt>
      <trkpt lat="43.3312" lon="-1.58689">
        <ele>297.67</ele>
        <time>2012-08-18T08:24:32Z</time>
      </trkpt>
      <trkpt lat="43.3312" lon="-1.58689">
        <ele>297.67</ele>
        <time>2012-08-18T08:24:47Z</time>
      </trkpt>
      <trkpt lat="43.33119" lon="-1.58689">
        <ele>298.15</ele>
        <time>2012-08-18T08:25:03Z</time>
      </trkpt>
      <trkpt lat="43.33119" lon="-1.58689">
        <ele>297.67</ele>
        <time>2012-08-18T08:25:14Z</time>
      </trkpt>
      <trkpt lat="43.33107" lon="-1.58687">
        <ele>296.7</ele>
        <time>2012-08-18T08:25:20Z</time>
      </trkpt>
      <trkpt lat="43.33102" lon="-1.58686">
        <ele>296.22</ele>
        <time>2012-08-18T08:25:21Z</time>
      </trkpt>
      <trkpt lat="43.33097" lon="-1.58685">
        <ele>294.78</ele>
        <time>2012-08-18T08:25:22Z</time>
      </trkpt>
      <trkpt lat="43.33092" lon="-1.58684">
        <ele>294.3</ele>
        <time>2012-08-18T08:25:23Z</time>
      </trkpt>
      <trkpt lat="43.33085" lon="-1.58682">
        <ele>293.82</ele>
        <time>2012-08-18T08:25:25Z</time>
      </trkpt>
      <trkpt lat="43.3308" lon="-1.58682">
        <ele>291.9</ele>
        <time>2012-08-18T08:25:27Z</time>
      </trkpt>
      <trkpt lat="43.33066" lon="-1.58686">
        <ele>288.53</ele>
        <time>2012-08-18T08:25:32Z</time>
      </trkpt>
      <trkpt lat="43.33056" lon="-1.58699">
        <ele>284.69</ele>
        <time>2012-08-18T08:25:36Z</time>
      </trkpt>
      <trkpt lat="43.33052" lon="-1.58704">
        <ele>283.73</ele>
        <time>2012-08-18T08:25:37Z</time>
      </trkpt>
      <trkpt lat="43.33044" lon="-1.58714">
        <ele>280.36</ele>
        <time>2012-08-18T08:25:40Z</time>
      </trkpt>
      <trkpt lat="43.33044" lon="-1.58719">
        <ele>278.92</ele>
        <time>2012-08-18T08:25:41Z</time>
      </trkpt>
      <trkpt lat="43.33043" lon="-1.58725">
        <ele>279.4</ele>
        <time>2012-08-18T08:25:42Z</time>
      </trkpt>
      <trkpt lat="43.33043" lon="-1.58731">
        <ele>278.44</ele>
        <time>2012-08-18T08:25:43Z</time>
      </trkpt>
      <trkpt lat="43.33044" lon="-1.58744">
        <ele>277.96</ele>
        <time>2012-08-18T08:25:45Z</time>
      </trkpt>
      <trkpt lat="43.33045" lon="-1.58751">
        <ele>276.52</ele>
        <time>2012-08-18T08:25:46Z</time>
      </trkpt>
      <trkpt lat="43.33045" lon="-1.58758">
        <ele>276.04</ele>
        <time>2012-08-18T08:25:47Z</time>
      </trkpt>
      <trkpt lat="43.33046" lon="-1.5877">
        <ele>275.07</ele>
        <time>2012-08-18T08:25:49Z</time>
      </trkpt>
      <trkpt lat="43.33045" lon="-1.58776">
        <ele>273.15</ele>
        <time>2012-08-18T08:25:50Z</time>
      </trkpt>
      <trkpt lat="43.33041" lon="-1.58789">
        <ele>271.23</ele>
        <time>2012-08-18T08:25:52Z</time>
      </trkpt>
      <trkpt lat="43.33038" lon="-1.58796">
        <ele>270.27</ele>
        <time>2012-08-18T08:25:53Z</time>
      </trkpt>
      <trkpt lat="43.3303" lon="-1.58819">
        <ele>267.86</ele>
        <time>2012-08-18T08:25:56Z</time>
      </trkpt>
      <trkpt lat="43.33019" lon="-1.58844">
        <ele>264.5</ele>
        <time>2012-08-18T08:26:01Z</time>
      </trkpt>
      <trkpt lat="43.33015" lon="-1.58851">
        <ele>263.06</ele>
        <time>2012-08-18T08:26:02Z</time>
      </trkpt>
      <trkpt lat="43.33011" lon="-1.58858">
        <ele>262.1</ele>
        <time>2012-08-18T08:26:03Z</time>
      </trkpt>
      <trkpt lat="43.33007" lon="-1.58867">
        <ele>261.62</ele>
        <time>2012-08-18T08:26:04Z</time>
      </trkpt>
      <trkpt lat="43.33004" lon="-1.58875">
        <ele>261.14</ele>
        <time>2012-08-18T08:26:05Z</time>
      </trkpt>
      <trkpt lat="43.33" lon="-1.58884">
        <ele>259.69</ele>
        <time>2012-08-18T08:26:06Z</time>
      </trkpt>
      <trkpt lat="43.32996" lon="-1.58894">
        <ele>258.25</ele>
        <time>2012-08-18T08:26:07Z</time>
      </trkpt>
      <trkpt lat="43.32993" lon="-1.58903">
        <ele>258.25</ele>
        <time>2012-08-18T08:26:08Z</time>
      </trkpt>
      <trkpt lat="43.3299" lon="-1.58912">
        <ele>257.77</ele>
        <time>2012-08-18T08:26:09Z</time>
      </trkpt>
      <trkpt lat="43.32989" lon="-1.58922">
        <ele>257.29</ele>
        <time>2012-08-18T08:26:10Z</time>
      </trkpt>
      <trkpt lat="43.32988" lon="-1.58933">
        <ele>256.33</ele>
        <time>2012-08-18T08:26:11Z</time>
      </trkpt>
      <trkpt lat="43.32986" lon="-1.58943">
        <ele>254.89</ele>
        <time>2012-08-18T08:26:12Z</time>
      </trkpt>
      <trkpt lat="43.32984" lon="-1.58954">
        <ele>254.41</ele>
        <time>2012-08-18T08:26:13Z</time>
      </trkpt>
      <trkpt lat="43.32982" lon="-1.58965">
        <ele>253.44</ele>
        <time>2012-08-18T08:26:14Z</time>
      </trkpt>
      <trkpt lat="43.3298" lon="-1.58975">
        <ele>253.44</ele>
        <time>2012-08-18T08:26:15Z</time>
      </trkpt>
      <trkpt lat="43.32979" lon="-1.58984">
        <ele>253.44</ele>
        <time>2012-08-18T08:26:16Z</time>
      </trkpt>
      <trkpt lat="43.32977" lon="-1.58996">
        <ele>252.48</ele>
        <time>2012-08-18T08:26:18Z</time>
      </trkpt>
      <trkpt lat="43.32976" lon="-1.59002">
        <ele>252</ele>
        <time>2012-08-18T08:26:19Z</time>
      </trkpt>
      <trkpt lat="43.32975" lon="-1.59009">
        <ele>251.04</ele>
        <time>2012-08-18T08:26:20Z</time>
      </trkpt>
      <trkpt lat="43.32973" lon="-1.59018">
        <ele>249.6</ele>
        <time>2012-08-18T08:26:21Z</time>
      </trkpt>
      <trkpt lat="43.32971" lon="-1.59026">
        <ele>248.64</ele>
        <time>2012-08-18T08:26:22Z</time>
      </trkpt>
      <trkpt lat="43.32968" lon="-1.59033">
        <ele>248.64</ele>
        <time>2012-08-18T08:26:23Z</time>
      </trkpt>
      <trkpt lat="43.32966" lon="-1.5904">
        <ele>247.68</ele>
        <time>2012-08-18T08:26:24Z</time>
      </trkpt>
      <trkpt lat="43.32963" lon="-1.59049">
        <ele>246.72</ele>
        <time>2012-08-18T08:26:25Z</time>
      </trkpt>
      <trkpt lat="43.32958" lon="-1.59069">
        <ele>246.23</ele>
        <time>2012-08-18T08:26:28Z</time>
      </trkpt>
      <trkpt lat="43.32958" lon="-1.59069">
        <ele>246.72</ele>
        <time>2012-08-18T08:26:37Z</time>
      </trkpt>
      <trkpt lat="43.32957" lon="-1.59068">
        <ele>246.72</ele>
        <time>2012-08-18T08:26:40Z</time>
      </trkpt>
      <trkpt lat="43.32957" lon="-1.59066">
        <ele>246.23</ele>
        <time>2012-08-18T08:26:41Z</time>
      </trkpt>
      <trkpt lat="43.32957" lon="-1.59064">
        <ele>246.72</ele>
        <time>2012-08-18T08:26:42Z</time>
      </trkpt>
      <trkpt lat="43.32957" lon="-1.59062">
        <ele>246.23</ele>
        <time>2012-08-18T08:26:43Z</time>
      </trkpt>
      <trkpt lat="43.32959" lon="-1.59066">
        <ele>246.72</ele>
        <time>2012-08-18T08:26:51Z</time>
      </trkpt>
      <trkpt lat="43.32958" lon="-1.59066">
        <ele>246.23</ele>
        <time>2012-08-18T08:26:52Z</time>
      </trkpt>
      <trkpt lat="43.32953" lon="-1.59068">
        <ele>246.72</ele>
        <time>2012-08-18T08:27:00Z</time>
      </trkpt>
      <trkpt lat="43.32942" lon="-1.59068">
        <ele>246.72</ele>
        <time>2012-08-18T08:27:08Z</time>
      </trkpt>
      <trkpt lat="43.3294" lon="-1.59067">
        <ele>247.2</ele>
        <time>2012-08-18T08:27:09Z</time>
      </trkpt>
      <trkpt lat="43.32938" lon="-1.59067">
        <ele>246.72</ele>
        <time>2012-08-18T08:27:10Z</time>
      </trkpt>
      <trkpt lat="43.32937" lon="-1.59067">
        <ele>247.2</ele>
        <time>2012-08-18T08:27:11Z</time>
      </trkpt>
      <trkpt lat="43.32935" lon="-1.59067">
        <ele>246.72</ele>
        <time>2012-08-18T08:27:12Z</time>
      </trkpt>
      <trkpt lat="43.32933" lon="-1.59066">
        <ele>246.72</ele>
        <time>2012-08-18T08:27:13Z</time>
      </trkpt>
      <trkpt lat="43.32903" lon="-1.59068">
        <ele>247.68</ele>
        <time>2012-08-18T08:27:29Z</time>
      </trkpt>
      <trkpt lat="43.32898" lon="-1.59071">
        <ele>246.23</ele>
        <time>2012-08-18T08:27:32Z</time>
      </trkpt>
      <trkpt lat="43.32897" lon="-1.59072">
        <ele>246.23</ele>
        <time>2012-08-18T08:27:33Z</time>
      </trkpt>
      <trkpt lat="43.32895" lon="-1.59074">
        <ele>245.75</ele>
        <time>2012-08-18T08:27:34Z</time>
      </trkpt>
      <trkpt lat="43.32894" lon="-1.59074">
        <ele>245.75</ele>
        <time>2012-08-18T08:27:35Z</time>
      </trkpt>
      <trkpt lat="43.32892" lon="-1.59075">
        <ele>245.27</ele>
        <time>2012-08-18T08:27:36Z</time>
      </trkpt>
      <trkpt lat="43.32891" lon="-1.59076">
        <ele>245.27</ele>
        <time>2012-08-18T08:27:37Z</time>
      </trkpt>
      <trkpt lat="43.32889" lon="-1.59078">
        <ele>244.79</ele>
        <time>2012-08-18T08:27:38Z</time>
      </trkpt>
      <trkpt lat="43.32888" lon="-1.59079">
        <ele>243.83</ele>
        <time>2012-08-18T08:27:39Z</time>
      </trkpt>
      <trkpt lat="43.32886" lon="-1.59081">
        <ele>243.83</ele>
        <time>2012-08-18T08:27:40Z</time>
      </trkpt>
      <trkpt lat="43.32884" lon="-1.59082">
        <ele>243.35</ele>
        <time>2012-08-18T08:27:41Z</time>
      </trkpt>
      <trkpt lat="43.32867" lon="-1.59088">
        <ele>240.47</ele>
        <time>2012-08-18T08:27:47Z</time>
      </trkpt>
      <trkpt lat="43.3285" lon="-1.59094">
        <ele>239.02</ele>
        <time>2012-08-18T08:27:53Z</time>
      </trkpt>
      <trkpt lat="43.32846" lon="-1.59096">
        <ele>238.06</ele>
        <time>2012-08-18T08:27:54Z</time>
      </trkpt>
      <trkpt lat="43.32843" lon="-1.591">
        <ele>237.58</ele>
        <time>2012-08-18T08:27:55Z</time>
      </trkpt>
      <trkpt lat="43.32841" lon="-1.59103">
        <ele>238.06</ele>
        <time>2012-08-18T08:27:56Z</time>
      </trkpt>
      <trkpt lat="43.3284" lon="-1.59105">
        <ele>237.58</ele>
        <time>2012-08-18T08:27:57Z</time>
      </trkpt>
      <trkpt lat="43.32838" lon="-1.59108">
        <ele>238.06</ele>
        <time>2012-08-18T08:27:58Z</time>
      </trkpt>
      <trkpt lat="43.32837" lon="-1.5911">
        <ele>238.06</ele>
        <time>2012-08-18T08:27:59Z</time>
      </trkpt>
      <trkpt lat="43.32834" lon="-1.59114">
        <ele>238.06</ele>
        <time>2012-08-18T08:28:10Z</time>
      </trkpt>
      <trkpt lat="43.32832" lon="-1.59117">
        <ele>237.58</ele>
        <time>2012-08-18T08:28:25Z</time>
      </trkpt>
      <trkpt lat="43.32831" lon="-1.59119">
        <ele>237.1</ele>
        <time>2012-08-18T08:28:27Z</time>
      </trkpt>
      <trkpt lat="43.32829" lon="-1.5912">
        <ele>236.62</ele>
        <time>2012-08-18T08:28:28Z</time>
      </trkpt>
      <trkpt lat="43.32828" lon="-1.59121">
        <ele>236.62</ele>
        <time>2012-08-18T08:28:29Z</time>
      </trkpt>
      <trkpt lat="43.32827" lon="-1.59122">
        <ele>236.14</ele>
        <time>2012-08-18T08:28:30Z</time>
      </trkpt>
      <trkpt lat="43.32826" lon="-1.59123">
        <ele>235.66</ele>
        <time>2012-08-18T08:28:31Z</time>
      </trkpt>
      <trkpt lat="43.32825" lon="-1.59124">
        <ele>235.66</ele>
        <time>2012-08-18T08:28:32Z</time>
      </trkpt>
      <trkpt lat="43.32825" lon="-1.59126">
        <ele>235.18</ele>
        <time>2012-08-18T08:28:33Z</time>
      </trkpt>
      <trkpt lat="43.32824" lon="-1.59127">
        <ele>234.22</ele>
        <time>2012-08-18T08:28:34Z</time>
      </trkpt>
      <trkpt lat="43.32823" lon="-1.59129">
        <ele>233.26</ele>
        <time>2012-08-18T08:28:35Z</time>
      </trkpt>
      <trkpt lat="43.32823" lon="-1.59131">
        <ele>232.78</ele>
        <time>2012-08-18T08:28:36Z</time>
      </trkpt>
      <trkpt lat="43.32822" lon="-1.59136">
        <ele>232.3</ele>
        <time>2012-08-18T08:28:38Z</time>
      </trkpt>
      <trkpt lat="43.3282" lon="-1.59141">
        <ele>230.85</ele>
        <time>2012-08-18T08:28:40Z</time>
      </trkpt>
      <trkpt lat="43.32819" lon="-1.59142">
        <ele>229.89</ele>
        <time>2012-08-18T08:28:41Z</time>
      </trkpt>
      <trkpt lat="43.32818" lon="-1.59144">
        <ele>229.89</ele>
        <time>2012-08-18T08:28:42Z</time>
      </trkpt>
      <trkpt lat="43.32816" lon="-1.59145">
        <ele>229.41</ele>
        <time>2012-08-18T08:28:43Z</time>
      </trkpt>
      <trkpt lat="43.32815" lon="-1.59146">
        <ele>228.93</ele>
        <time>2012-08-18T08:28:44Z</time>
      </trkpt>
      <trkpt lat="43.32813" lon="-1.59148">
        <ele>228.45</ele>
        <time>2012-08-18T08:28:45Z</time>
      </trkpt>
      <trkpt lat="43.32812" lon="-1.5915">
        <ele>228.45</ele>
        <time>2012-08-18T08:28:46Z</time>
      </trkpt>
      <trkpt lat="43.32809" lon="-1.59154">
        <ele>227.01</ele>
        <time>2012-08-18T08:28:47Z</time>
      </trkpt>
      <trkpt lat="43.32807" lon="-1.59156">
        <ele>226.53</ele>
        <time>2012-08-18T08:28:48Z</time>
      </trkpt>
      <trkpt lat="43.32805" lon="-1.59159">
        <ele>225.57</ele>
        <time>2012-08-18T08:28:49Z</time>
      </trkpt>
      <trkpt lat="43.32804" lon="-1.5916">
        <ele>225.57</ele>
        <time>2012-08-18T08:28:50Z</time>
      </trkpt>
      <trkpt lat="43.32805" lon="-1.59161">
        <ele>225.57</ele>
        <time>2012-08-18T08:29:05Z</time>
      </trkpt>
      <trkpt lat="43.32803" lon="-1.59161">
        <ele>225.57</ele>
        <time>2012-08-18T08:29:29Z</time>
      </trkpt>
      <trkpt lat="43.32792" lon="-1.59175">
        <ele>222.2</ele>
        <time>2012-08-18T08:29:34Z</time>
      </trkpt>
      <trkpt lat="43.32789" lon="-1.5918">
        <ele>222.2</ele>
        <time>2012-08-18T08:29:35Z</time>
      </trkpt>
      <trkpt lat="43.3278" lon="-1.5919">
        <ele>220.76</ele>
        <time>2012-08-18T08:29:37Z</time>
      </trkpt>
      <trkpt lat="43.32775" lon="-1.59196">
        <ele>219.8</ele>
        <time>2012-08-18T08:29:38Z</time>
      </trkpt>
      <trkpt lat="43.3277" lon="-1.59202">
        <ele>218.84</ele>
        <time>2012-08-18T08:29:39Z</time>
      </trkpt>
      <trkpt lat="43.32765" lon="-1.59208">
        <ele>218.36</ele>
        <time>2012-08-18T08:29:40Z</time>
      </trkpt>
      <trkpt lat="43.32762" lon="-1.59213">
        <ele>217.88</ele>
        <time>2012-08-18T08:29:41Z</time>
      </trkpt>
      <trkpt lat="43.32759" lon="-1.59217">
        <ele>217.88</ele>
        <time>2012-08-18T08:29:42Z</time>
      </trkpt>
      <trkpt lat="43.32756" lon="-1.5922">
        <ele>217.4</ele>
        <time>2012-08-18T08:29:43Z</time>
      </trkpt>
      <trkpt lat="43.32754" lon="-1.59223">
        <ele>216.91</ele>
        <time>2012-08-18T08:29:44Z</time>
      </trkpt>
      <trkpt lat="43.32753" lon="-1.59226">
        <ele>216.43</ele>
        <time>2012-08-18T08:29:45Z</time>
      </trkpt>
      <trkpt lat="43.3275" lon="-1.5923">
        <ele>215.95</ele>
        <time>2012-08-18T08:29:46Z</time>
      </trkpt>
      <trkpt lat="43.32748" lon="-1.59232">
        <ele>214.99</ele>
        <time>2012-08-18T08:29:47Z</time>
      </trkpt>
      <trkpt lat="43.32746" lon="-1.59234">
        <ele>215.47</ele>
        <time>2012-08-18T08:29:48Z</time>
      </trkpt>
      <trkpt lat="43.32747" lon="-1.59236">
        <ele>215.47</ele>
        <time>2012-08-18T08:30:00Z</time>
      </trkpt>
      <trkpt lat="43.32746" lon="-1.59236">
        <ele>215.47</ele>
        <time>2012-08-18T08:30:20Z</time>
      </trkpt>
      <trkpt lat="43.32748" lon="-1.59238">
        <ele>214.99</ele>
        <time>2012-08-18T08:30:24Z</time>
      </trkpt>
      <trkpt lat="43.32749" lon="-1.59239">
        <ele>214.99</ele>
        <time>2012-08-18T08:30:25Z</time>
      </trkpt>
      <trkpt lat="43.32755" lon="-1.59246">
        <ele>214.03</ele>
        <time>2012-08-18T08:30:29Z</time>
      </trkpt>
      <trkpt lat="43.3276" lon="-1.59258">
        <ele>213.07</ele>
        <time>2012-08-18T08:30:39Z</time>
      </trkpt>
      <trkpt lat="43.32761" lon="-1.59261">
        <ele>213.07</ele>
        <time>2012-08-18T08:30:40Z</time>
      </trkpt>
      <trkpt lat="43.32762" lon="-1.59264">
        <ele>212.11</ele>
        <time>2012-08-18T08:30:41Z</time>
      </trkpt>
      <trkpt lat="43.32764" lon="-1.59268">
        <ele>211.63</ele>
        <time>2012-08-18T08:30:42Z</time>
      </trkpt>
      <trkpt lat="43.32766" lon="-1.59273">
        <ele>211.63</ele>
        <time>2012-08-18T08:30:43Z</time>
      </trkpt>
      <trkpt lat="43.32772" lon="-1.59289">
        <ele>209.7</ele>
        <time>2012-08-18T08:30:48Z</time>
      </trkpt>
      <trkpt lat="43.32772" lon="-1.59291">
        <ele>209.7</ele>
        <time>2012-08-18T08:30:49Z</time>
      </trkpt>
      <trkpt lat="43.32773" lon="-1.59293">
        <ele>209.7</ele>
        <time>2012-08-18T08:30:50Z</time>
      </trkpt>
      <trkpt lat="43.32776" lon="-1.59301">
        <ele>208.26</ele>
        <time>2012-08-18T08:31:00Z</time>
      </trkpt>
      <trkpt lat="43.32776" lon="-1.59303">
        <ele>207.3</ele>
        <time>2012-08-18T08:31:01Z</time>
      </trkpt>
      <trkpt lat="43.32776" lon="-1.59305">
        <ele>207.3</ele>
        <time>2012-08-18T08:31:02Z</time>
      </trkpt>
      <trkpt lat="43.32778" lon="-1.59307">
        <ele>206.82</ele>
        <time>2012-08-18T08:31:05Z</time>
      </trkpt>
      <trkpt lat="43.32779" lon="-1.59308">
        <ele>206.82</ele>
        <time>2012-08-18T08:31:06Z</time>
      </trkpt>
      <trkpt lat="43.32781" lon="-1.59309">
        <ele>206.34</ele>
        <time>2012-08-18T08:31:07Z</time>
      </trkpt>
      <trkpt lat="43.32782" lon="-1.59311">
        <ele>205.38</ele>
        <time>2012-08-18T08:31:08Z</time>
      </trkpt>
      <trkpt lat="43.32783" lon="-1.59313">
        <ele>205.38</ele>
        <time>2012-08-18T08:31:09Z</time>
      </trkpt>
      <trkpt lat="43.32784" lon="-1.59315">
        <ele>205.38</ele>
        <time>2012-08-18T08:31:10Z</time>
      </trkpt>
      <trkpt lat="43.32786" lon="-1.59317">
        <ele>205.38</ele>
        <time>2012-08-18T08:31:11Z</time>
      </trkpt>
      <trkpt lat="43.32787" lon="-1.59319">
        <ele>204.9</ele>
        <time>2012-08-18T08:31:12Z</time>
      </trkpt>
      <trkpt lat="43.32788" lon="-1.59322">
        <ele>204.42</ele>
        <time>2012-08-18T08:31:13Z</time>
      </trkpt>
      <trkpt lat="43.32789" lon="-1.59325">
        <ele>204.42</ele>
        <time>2012-08-18T08:31:14Z</time>
      </trkpt>
      <trkpt lat="43.3279" lon="-1.59328">
        <ele>204.42</ele>
        <time>2012-08-18T08:31:15Z</time>
      </trkpt>
      <trkpt lat="43.32792" lon="-1.59331">
        <ele>203.46</ele>
        <time>2012-08-18T08:31:16Z</time>
      </trkpt>
      <trkpt lat="43.32793" lon="-1.59334">
        <ele>203.46</ele>
        <time>2012-08-18T08:31:17Z</time>
      </trkpt>
      <trkpt lat="43.32793" lon="-1.59337">
        <ele>202.98</ele>
        <time>2012-08-18T08:31:18Z</time>
      </trkpt>
      <trkpt lat="43.32793" lon="-1.5934">
        <ele>203.94</ele>
        <time>2012-08-18T08:31:19Z</time>
      </trkpt>
      <trkpt lat="43.32793" lon="-1.59342">
        <ele>203.46</ele>
        <time>2012-08-18T08:31:20Z</time>
      </trkpt>
      <trkpt lat="43.32794" lon="-1.59344">
        <ele>203.94</ele>
        <time>2012-08-18T08:31:21Z</time>
      </trkpt>
      <trkpt lat="43.32794" lon="-1.59346">
        <ele>202.98</ele>
        <time>2012-08-18T08:31:22Z</time>
      </trkpt>
      <trkpt lat="43.32796" lon="-1.59349">
        <ele>202.98</ele>
        <time>2012-08-18T08:31:23Z</time>
      </trkpt>
      <trkpt lat="43.32798" lon="-1.59352">
        <ele>203.46</ele>
        <time>2012-08-18T08:31:24Z</time>
      </trkpt>
      <trkpt lat="43.328" lon="-1.59355">
        <ele>202.49</ele>
        <time>2012-08-18T08:31:25Z</time>
      </trkpt>
      <trkpt lat="43.32812" lon="-1.59368">
        <ele>201.05</ele>
        <time>2012-08-18T08:31:29Z</time>
      </trkpt>
      <trkpt lat="43.32815" lon="-1.59373">
        <ele>201.05</ele>
        <time>2012-08-18T08:31:30Z</time>
      </trkpt>
      <trkpt lat="43.32816" lon="-1.59378">
        <ele>201.05</ele>
        <time>2012-08-18T08:31:31Z</time>
      </trkpt>
      <trkpt lat="43.32819" lon="-1.59393">
        <ele>200.57</ele>
        <time>2012-08-18T08:31:34Z</time>
      </trkpt>
      <trkpt lat="43.32821" lon="-1.59399">
        <ele>200.57</ele>
        <time>2012-08-18T08:31:35Z</time>
      </trkpt>
      <trkpt lat="43.32823" lon="-1.59405">
        <ele>200.57</ele>
        <time>2012-08-18T08:31:36Z</time>
      </trkpt>
      <trkpt lat="43.32824" lon="-1.59409">
        <ele>199.61</ele>
        <time>2012-08-18T08:31:37Z</time>
      </trkpt>
      <trkpt lat="43.32826" lon="-1.59414">
        <ele>200.09</ele>
        <time>2012-08-18T08:31:38Z</time>
      </trkpt>
      <trkpt lat="43.32828" lon="-1.59418">
        <ele>199.61</ele>
        <time>2012-08-18T08:31:39Z</time>
      </trkpt>
      <trkpt lat="43.32833" lon="-1.59428">
        <ele>198.65</ele>
        <time>2012-08-18T08:31:41Z</time>
      </trkpt>
      <trkpt lat="43.3286" lon="-1.59464">
        <ele>198.17</ele>
        <time>2012-08-18T08:31:50Z</time>
      </trkpt>
      <trkpt lat="43.32867" lon="-1.59472">
        <ele>197.69</ele>
        <time>2012-08-18T08:31:52Z</time>
      </trkpt>
      <trkpt lat="43.3287" lon="-1.59476">
        <ele>197.69</ele>
        <time>2012-08-18T08:31:53Z</time>
      </trkpt>
      <trkpt lat="43.32874" lon="-1.59482">
        <ele>196.73</ele>
        <time>2012-08-18T08:31:54Z</time>
      </trkpt>
      <trkpt lat="43.32877" lon="-1.59488">
        <ele>196.73</ele>
        <time>2012-08-18T08:31:55Z</time>
      </trkpt>
      <trkpt lat="43.3288" lon="-1.59493">
        <ele>196.25</ele>
        <time>2012-08-18T08:31:56Z</time>
      </trkpt>
      <trkpt lat="43.32883" lon="-1.59497">
        <ele>195.77</ele>
        <time>2012-08-18T08:31:57Z</time>
      </trkpt>
      <trkpt lat="43.32887" lon="-1.59502">
        <ele>195.28</ele>
        <time>2012-08-18T08:31:58Z</time>
      </trkpt>
      <trkpt lat="43.32891" lon="-1.59506">
        <ele>194.32</ele>
        <time>2012-08-18T08:31:59Z</time>
      </trkpt>
      <trkpt lat="43.32895" lon="-1.5951">
        <ele>193.84</ele>
        <time>2012-08-18T08:32:00Z</time>
      </trkpt>
      <trkpt lat="43.32899" lon="-1.59514">
        <ele>193.36</ele>
        <time>2012-08-18T08:32:01Z</time>
      </trkpt>
      <trkpt lat="43.32903" lon="-1.59521">
        <ele>192.88</ele>
        <time>2012-08-18T08:32:02Z</time>
      </trkpt>
      <trkpt lat="43.32907" lon="-1.59527">
        <ele>192.4</ele>
        <time>2012-08-18T08:32:03Z</time>
      </trkpt>
      <trkpt lat="43.32913" lon="-1.59534">
        <ele>191.44</ele>
        <time>2012-08-18T08:32:04Z</time>
      </trkpt>
      <trkpt lat="43.32918" lon="-1.5954">
        <ele>191.44</ele>
        <time>2012-08-18T08:32:05Z</time>
      </trkpt>
      <trkpt lat="43.32922" lon="-1.59546">
        <ele>190.96</ele>
        <time>2012-08-18T08:32:06Z</time>
      </trkpt>
      <trkpt lat="43.32927" lon="-1.59554">
        <ele>190.96</ele>
        <time>2012-08-18T08:32:07Z</time>
      </trkpt>
      <trkpt lat="43.32932" lon="-1.59562">
        <ele>190</ele>
        <time>2012-08-18T08:32:08Z</time>
      </trkpt>
      <trkpt lat="43.32937" lon="-1.59569">
        <ele>190</ele>
        <time>2012-08-18T08:32:09Z</time>
      </trkpt>
      <trkpt lat="43.32943" lon="-1.59575">
        <ele>189.52</ele>
        <time>2012-08-18T08:32:10Z</time>
      </trkpt>
      <trkpt lat="43.32949" lon="-1.59581">
        <ele>189.52</ele>
        <time>2012-08-18T08:32:11Z</time>
      </trkpt>
      <trkpt lat="43.32954" lon="-1.59587">
        <ele>189.04</ele>
        <time>2012-08-18T08:32:12Z</time>
      </trkpt>
      <trkpt lat="43.32969" lon="-1.59605">
        <ele>188.56</ele>
        <time>2012-08-18T08:32:15Z</time>
      </trkpt>
      <trkpt lat="43.32974" lon="-1.59608">
        <ele>188.56</ele>
        <time>2012-08-18T08:32:16Z</time>
      </trkpt>
      <trkpt lat="43.3298" lon="-1.59611">
        <ele>188.56</ele>
        <time>2012-08-18T08:32:17Z</time>
      </trkpt>
      <trkpt lat="43.32986" lon="-1.59613">
        <ele>188.08</ele>
        <time>2012-08-18T08:32:18Z</time>
      </trkpt>
      <trkpt lat="43.32992" lon="-1.59612">
        <ele>187.11</ele>
        <time>2012-08-18T08:32:19Z</time>
      </trkpt>
      <trkpt lat="43.32997" lon="-1.59611">
        <ele>187.11</ele>
        <time>2012-08-18T08:32:20Z</time>
      </trkpt>
      <trkpt lat="43.33003" lon="-1.5961">
        <ele>186.63</ele>
        <time>2012-08-18T08:32:21Z</time>
      </trkpt>
      <trkpt lat="43.33007" lon="-1.59609">
        <ele>185.67</ele>
        <time>2012-08-18T08:32:22Z</time>
      </trkpt>
      <trkpt lat="43.33012" lon="-1.59609">
        <ele>185.67</ele>
        <time>2012-08-18T08:32:23Z</time>
      </trkpt>
      <trkpt lat="43.33018" lon="-1.59609">
        <ele>185.19</ele>
        <time>2012-08-18T08:32:24Z</time>
      </trkpt>
      <trkpt lat="43.33023" lon="-1.59609">
        <ele>184.71</ele>
        <time>2012-08-18T08:32:25Z</time>
      </trkpt>
      <trkpt lat="43.33027" lon="-1.59609">
        <ele>184.23</ele>
        <time>2012-08-18T08:32:26Z</time>
      </trkpt>
      <trkpt lat="43.33032" lon="-1.5961">
        <ele>183.27</ele>
        <time>2012-08-18T08:32:27Z</time>
      </trkpt>
      <trkpt lat="43.33036" lon="-1.59611">
        <ele>182.79</ele>
        <time>2012-08-18T08:32:28Z</time>
      </trkpt>
      <trkpt lat="43.3304" lon="-1.59612">
        <ele>182.31</ele>
        <time>2012-08-18T08:32:29Z</time>
      </trkpt>
      <trkpt lat="43.33044" lon="-1.59613">
        <ele>181.35</ele>
        <time>2012-08-18T08:32:30Z</time>
      </trkpt>
      <trkpt lat="43.33048" lon="-1.59613">
        <ele>181.35</ele>
        <time>2012-08-18T08:32:31Z</time>
      </trkpt>
      <trkpt lat="43.33066" lon="-1.59613">
        <ele>177.5</ele>
        <time>2012-08-18T08:32:35Z</time>
      </trkpt>
      <trkpt lat="43.3307" lon="-1.59612">
        <ele>176.54</ele>
        <time>2012-08-18T08:32:36Z</time>
      </trkpt>
      <trkpt lat="43.33086" lon="-1.59607">
        <ele>173.66</ele>
        <time>2012-08-18T08:32:39Z</time>
      </trkpt>
      <trkpt lat="43.33099" lon="-1.59601">
        <ele>170.29</ele>
        <time>2012-08-18T08:32:41Z</time>
      </trkpt>
      <trkpt lat="43.33106" lon="-1.59598">
        <ele>170.29</ele>
        <time>2012-08-18T08:32:42Z</time>
      </trkpt>
      <trkpt lat="43.33116" lon="-1.59594">
        <ele>169.81</ele>
        <time>2012-08-18T08:32:44Z</time>
      </trkpt>
      <trkpt lat="43.33122" lon="-1.59594">
        <ele>169.81</ele>
        <time>2012-08-18T08:32:45Z</time>
      </trkpt>
      <trkpt lat="43.33138" lon="-1.59593">
        <ele>166.45</ele>
        <time>2012-08-18T08:32:48Z</time>
      </trkpt>
      <trkpt lat="43.33151" lon="-1.59591">
        <ele>165</ele>
        <time>2012-08-18T08:32:50Z</time>
      </trkpt>
      <trkpt lat="43.33156" lon="-1.59592">
        <ele>164.04</ele>
        <time>2012-08-18T08:32:51Z</time>
      </trkpt>
      <trkpt lat="43.33161" lon="-1.59594">
        <ele>164.04</ele>
        <time>2012-08-18T08:32:52Z</time>
      </trkpt>
      <trkpt lat="43.33166" lon="-1.59598">
        <ele>164.04</ele>
        <time>2012-08-18T08:32:53Z</time>
      </trkpt>
      <trkpt lat="43.33171" lon="-1.59602">
        <ele>164.52</ele>
        <time>2012-08-18T08:32:54Z</time>
      </trkpt>
      <trkpt lat="43.33176" lon="-1.59608">
        <ele>164.04</ele>
        <time>2012-08-18T08:32:55Z</time>
      </trkpt>
      <trkpt lat="43.33181" lon="-1.59613">
        <ele>163.08</ele>
        <time>2012-08-18T08:32:56Z</time>
      </trkpt>
      <trkpt lat="43.33186" lon="-1.59618">
        <ele>163.08</ele>
        <time>2012-08-18T08:32:57Z</time>
      </trkpt>
      <trkpt lat="43.33191" lon="-1.59624">
        <ele>162.6</ele>
        <time>2012-08-18T08:32:58Z</time>
      </trkpt>
      <trkpt lat="43.33206" lon="-1.59642">
        <ele>160.68</ele>
        <time>2012-08-18T08:33:02Z</time>
      </trkpt>
      <trkpt lat="43.33213" lon="-1.59649">
        <ele>159.24</ele>
        <time>2012-08-18T08:33:04Z</time>
      </trkpt>
      <trkpt lat="43.33216" lon="-1.59655">
        <ele>158.75</ele>
        <time>2012-08-18T08:33:05Z</time>
      </trkpt>
      <trkpt lat="43.33224" lon="-1.59672">
        <ele>160.68</ele>
        <time>2012-08-18T08:33:08Z</time>
      </trkpt>
      <trkpt lat="43.33249" lon="-1.59706">
        <ele>159.24</ele>
        <time>2012-08-18T08:33:16Z</time>
      </trkpt>
      <trkpt lat="43.33261" lon="-1.59723">
        <ele>156.35</ele>
        <time>2012-08-18T08:33:20Z</time>
      </trkpt>
      <trkpt lat="43.33277" lon="-1.59747">
        <ele>152.03</ele>
        <time>2012-08-18T08:33:24Z</time>
      </trkpt>
      <trkpt lat="43.33282" lon="-1.59753">
        <ele>151.06</ele>
        <time>2012-08-18T08:33:25Z</time>
      </trkpt>
      <trkpt lat="43.33296" lon="-1.59773">
        <ele>147.7</ele>
        <time>2012-08-18T08:33:28Z</time>
      </trkpt>
      <trkpt lat="43.33307" lon="-1.59787">
        <ele>145.3</ele>
        <time>2012-08-18T08:33:30Z</time>
      </trkpt>
      <trkpt lat="43.33313" lon="-1.59792">
        <ele>144.34</ele>
        <time>2012-08-18T08:33:31Z</time>
      </trkpt>
      <trkpt lat="43.33319" lon="-1.59797">
        <ele>143.85</ele>
        <time>2012-08-18T08:33:32Z</time>
      </trkpt>
      <trkpt lat="43.33325" lon="-1.598">
        <ele>142.89</ele>
        <time>2012-08-18T08:33:33Z</time>
      </trkpt>
      <trkpt lat="43.33331" lon="-1.59803">
        <ele>142.41</ele>
        <time>2012-08-18T08:33:34Z</time>
      </trkpt>
      <trkpt lat="43.33355" lon="-1.59817">
        <ele>139.53</ele>
        <time>2012-08-18T08:33:38Z</time>
      </trkpt>
      <trkpt lat="43.33373" lon="-1.59827">
        <ele>135.68</ele>
        <time>2012-08-18T08:33:43Z</time>
      </trkpt>
      <trkpt lat="43.33392" lon="-1.59832">
        <ele>131.84</ele>
        <time>2012-08-18T08:33:50Z</time>
      </trkpt>
      <trkpt lat="43.33393" lon="-1.59833">
        <ele>131.36</ele>
        <time>2012-08-18T08:33:51Z</time>
      </trkpt>
      <trkpt lat="43.33395" lon="-1.59834">
        <ele>130.88</ele>
        <time>2012-08-18T08:33:52Z</time>
      </trkpt>
      <trkpt lat="43.33397" lon="-1.59834">
        <ele>130.4</ele>
        <time>2012-08-18T08:33:53Z</time>
      </trkpt>
      <trkpt lat="43.33402" lon="-1.59835">
        <ele>127.99</ele>
        <time>2012-08-18T08:33:56Z</time>
      </trkpt>
      <trkpt lat="43.33404" lon="-1.59835">
        <ele>126.55</ele>
        <time>2012-08-18T08:33:58Z</time>
      </trkpt>
      <trkpt lat="43.33408" lon="-1.59838">
        <ele>125.59</ele>
        <time>2012-08-18T08:34:00Z</time>
      </trkpt>
      <trkpt lat="43.33414" lon="-1.59843">
        <ele>125.59</ele>
        <time>2012-08-18T08:34:16Z</time>
      </trkpt>
      <trkpt lat="43.33414" lon="-1.59843">
        <ele>124.63</ele>
        <time>2012-08-18T08:34:17Z</time>
      </trkpt>
      <trkpt lat="43.33416" lon="-1.59844">
        <ele>124.63</ele>
        <time>2012-08-18T08:34:18Z</time>
      </trkpt>
      <trkpt lat="43.3342" lon="-1.59849">
        <ele>121.74</ele>
        <time>2012-08-18T08:34:22Z</time>
      </trkpt>
      <trkpt lat="43.33423" lon="-1.59857">
        <ele>120.78</ele>
        <time>2012-08-18T08:34:25Z</time>
      </trkpt>
      <trkpt lat="43.33429" lon="-1.59863">
        <ele>119.34</ele>
        <time>2012-08-18T08:34:34Z</time>
      </trkpt>
      <trkpt lat="43.33444" lon="-1.59887">
        <ele>117.9</ele>
        <time>2012-08-18T08:34:39Z</time>
      </trkpt>
      <trkpt lat="43.33447" lon="-1.59891">
        <ele>117.9</ele>
        <time>2012-08-18T08:34:40Z</time>
      </trkpt>
      <trkpt lat="43.3345" lon="-1.59894">
        <ele>117.42</ele>
        <time>2012-08-18T08:34:41Z</time>
      </trkpt>
      <trkpt lat="43.33452" lon="-1.59898">
        <ele>116.46</ele>
        <time>2012-08-18T08:34:42Z</time>
      </trkpt>
      <trkpt lat="43.33453" lon="-1.59903">
        <ele>115.98</ele>
        <time>2012-08-18T08:34:43Z</time>
      </trkpt>
      <trkpt lat="43.33456" lon="-1.59909">
        <ele>115.5</ele>
        <time>2012-08-18T08:34:44Z</time>
      </trkpt>
      <trkpt lat="43.33457" lon="-1.59913">
        <ele>115.98</ele>
        <time>2012-08-18T08:34:45Z</time>
      </trkpt>
      <trkpt lat="43.33458" lon="-1.59916">
        <ele>115.5</ele>
        <time>2012-08-18T08:34:46Z</time>
      </trkpt>
      <trkpt lat="43.33458" lon="-1.59918">
        <ele>115.5</ele>
        <time>2012-08-18T08:34:47Z</time>
      </trkpt>
      <trkpt lat="43.33463" lon="-1.59924">
        <ele>115.01</ele>
        <time>2012-08-18T08:34:51Z</time>
      </trkpt>
      <trkpt lat="43.3348" lon="-1.59928">
        <ele>113.57</ele>
        <time>2012-08-18T08:35:01Z</time>
      </trkpt>
      <trkpt lat="43.33495" lon="-1.59926">
        <ele>111.17</ele>
        <time>2012-08-18T08:35:05Z</time>
      </trkpt>
      <trkpt lat="43.33501" lon="-1.59928">
        <ele>110.69</ele>
        <time>2012-08-18T08:35:06Z</time>
      </trkpt>
      <trkpt lat="43.33507" lon="-1.59931">
        <ele>108.77</ele>
        <time>2012-08-18T08:35:07Z</time>
      </trkpt>
      <trkpt lat="43.33513" lon="-1.59936">
        <ele>109.25</ele>
        <time>2012-08-18T08:35:08Z</time>
      </trkpt>
      <trkpt lat="43.33531" lon="-1.59951">
        <ele>112.61</ele>
        <time>2012-08-18T08:35:12Z</time>
      </trkpt>
      <trkpt lat="43.33536" lon="-1.59957">
        <ele>113.09</ele>
        <time>2012-08-18T08:35:14Z</time>
      </trkpt>
      <trkpt lat="43.33538" lon="-1.5996">
        <ele>113.09</ele>
        <time>2012-08-18T08:35:15Z</time>
      </trkpt>
      <trkpt lat="43.3356" lon="-1.59993">
        <ele>114.05</ele>
        <time>2012-08-18T08:35:25Z</time>
      </trkpt>
      <trkpt lat="43.3358" lon="-1.60027">
        <ele>115.01</ele>
        <time>2012-08-18T08:35:36Z</time>
      </trkpt>
      <trkpt lat="43.33594" lon="-1.60069">
        <ele>115.5</ele>
        <time>2012-08-18T08:35:48Z</time>
      </trkpt>
      <trkpt lat="43.33598" lon="-1.6009">
        <ele>114.05</ele>
        <time>2012-08-18T08:35:52Z</time>
      </trkpt>
      <trkpt lat="43.336" lon="-1.60095">
        <ele>114.05</ele>
        <time>2012-08-18T08:35:53Z</time>
      </trkpt>
      <trkpt lat="43.33601" lon="-1.601">
        <ele>114.53</ele>
        <time>2012-08-18T08:35:54Z</time>
      </trkpt>
      <trkpt lat="43.33602" lon="-1.60105">
        <ele>114.53</ele>
        <time>2012-08-18T08:35:55Z</time>
      </trkpt>
      <trkpt lat="43.33604" lon="-1.60109">
        <ele>114.53</ele>
        <time>2012-08-18T08:35:56Z</time>
      </trkpt>
      <trkpt lat="43.33611" lon="-1.60122">
        <ele>114.53</ele>
        <time>2012-08-18T08:36:00Z</time>
      </trkpt>
      <trkpt lat="43.33612" lon="-1.60126">
        <ele>114.53</ele>
        <time>2012-08-18T08:36:01Z</time>
      </trkpt>
      <trkpt lat="43.33614" lon="-1.60129">
        <ele>114.05</ele>
        <time>2012-08-18T08:36:02Z</time>
      </trkpt>
      <trkpt lat="43.33621" lon="-1.60144">
        <ele>114.53</ele>
        <time>2012-08-18T08:36:06Z</time>
      </trkpt>
      <trkpt lat="43.33622" lon="-1.60147">
        <ele>114.53</ele>
        <time>2012-08-18T08:36:07Z</time>
      </trkpt>
      <trkpt lat="43.33638" lon="-1.60184">
        <ele>113.09</ele>
        <time>2012-08-18T08:36:16Z</time>
      </trkpt>
      <trkpt lat="43.33639" lon="-1.6019">
        <ele>112.61</ele>
        <time>2012-08-18T08:36:17Z</time>
      </trkpt>
      <trkpt lat="43.33641" lon="-1.60195">
        <ele>112.61</ele>
        <time>2012-08-18T08:36:18Z</time>
      </trkpt>
      <trkpt lat="43.33643" lon="-1.60199">
        <ele>112.13</ele>
        <time>2012-08-18T08:36:19Z</time>
      </trkpt>
      <trkpt lat="43.33645" lon="-1.60202">
        <ele>113.09</ele>
        <time>2012-08-18T08:36:20Z</time>
      </trkpt>
      <trkpt lat="43.33647" lon="-1.60206">
        <ele>112.13</ele>
        <time>2012-08-18T08:36:21Z</time>
      </trkpt>
      <trkpt lat="43.33654" lon="-1.60219">
        <ele>110.21</ele>
        <time>2012-08-18T08:36:25Z</time>
      </trkpt>
      <trkpt lat="43.33657" lon="-1.60219">
        <ele>110.21</ele>
        <time>2012-08-18T08:36:26Z</time>
      </trkpt>
      <trkpt lat="43.33659" lon="-1.60218">
        <ele>110.69</ele>
        <time>2012-08-18T08:36:27Z</time>
      </trkpt>
      <trkpt lat="43.33661" lon="-1.60217">
        <ele>110.21</ele>
        <time>2012-08-18T08:36:28Z</time>
      </trkpt>
      <trkpt lat="43.33663" lon="-1.60216">
        <ele>110.69</ele>
        <time>2012-08-18T08:36:29Z</time>
      </trkpt>
      <trkpt lat="43.33665" lon="-1.60214">
        <ele>111.17</ele>
        <time>2012-08-18T08:36:30Z</time>
      </trkpt>
      <trkpt lat="43.33667" lon="-1.60211">
        <ele>111.17</ele>
        <time>2012-08-18T08:36:31Z</time>
      </trkpt>
      <trkpt lat="43.33668" lon="-1.60209">
        <ele>111.17</ele>
        <time>2012-08-18T08:36:32Z</time>
      </trkpt>
      <trkpt lat="43.3367" lon="-1.60206">
        <ele>110.69</ele>
        <time>2012-08-18T08:36:33Z</time>
      </trkpt>
      <trkpt lat="43.33673" lon="-1.60204">
        <ele>110.69</ele>
        <time>2012-08-18T08:36:34Z</time>
      </trkpt>
      <trkpt lat="43.33694" lon="-1.60198">
        <ele>107.81</ele>
        <time>2012-08-18T08:36:41Z</time>
      </trkpt>
      <trkpt lat="43.33713" lon="-1.60193">
        <ele>104.44</ele>
        <time>2012-08-18T08:36:47Z</time>
      </trkpt>
      <trkpt lat="43.33735" lon="-1.60193">
        <ele>100.6</ele>
        <time>2012-08-18T08:36:55Z</time>
      </trkpt>
      <trkpt lat="43.33749" lon="-1.60196">
        <ele>97.71</ele>
        <time>2012-08-18T08:37:03Z</time>
      </trkpt>
      <trkpt lat="43.33755" lon="-1.60197">
        <ele>96.75</ele>
        <time>2012-08-18T08:37:06Z</time>
      </trkpt>
      <trkpt lat="43.33757" lon="-1.60196">
        <ele>95.79</ele>
        <time>2012-08-18T08:37:07Z</time>
      </trkpt>
      <trkpt lat="43.33759" lon="-1.60196">
        <ele>95.31</ele>
        <time>2012-08-18T08:37:08Z</time>
      </trkpt>
      <trkpt lat="43.3376" lon="-1.60196">
        <ele>95.31</ele>
        <time>2012-08-18T08:37:09Z</time>
      </trkpt>
      <trkpt lat="43.33762" lon="-1.60197">
        <ele>94.35</ele>
        <time>2012-08-18T08:37:10Z</time>
      </trkpt>
      <trkpt lat="43.33764" lon="-1.60198">
        <ele>94.83</ele>
        <time>2012-08-18T08:37:11Z</time>
      </trkpt>
      <trkpt lat="43.33766" lon="-1.60199">
        <ele>93.87</ele>
        <time>2012-08-18T08:37:12Z</time>
      </trkpt>
      <trkpt lat="43.33768" lon="-1.60199">
        <ele>93.87</ele>
        <time>2012-08-18T08:37:13Z</time>
      </trkpt>
      <trkpt lat="43.33771" lon="-1.60199">
        <ele>92.9</ele>
        <time>2012-08-18T08:37:14Z</time>
      </trkpt>
      <trkpt lat="43.33773" lon="-1.60199">
        <ele>92.42</ele>
        <time>2012-08-18T08:37:15Z</time>
      </trkpt>
      <trkpt lat="43.33775" lon="-1.60199">
        <ele>91.46</ele>
        <time>2012-08-18T08:37:16Z</time>
      </trkpt>
      <trkpt lat="43.33778" lon="-1.60198">
        <ele>91.46</ele>
        <time>2012-08-18T08:37:17Z</time>
      </trkpt>
      <trkpt lat="43.33782" lon="-1.60198">
        <ele>90.5</ele>
        <time>2012-08-18T08:37:18Z</time>
      </trkpt>
      <trkpt lat="43.33786" lon="-1.60199">
        <ele>90.02</ele>
        <time>2012-08-18T08:37:19Z</time>
      </trkpt>
      <trkpt lat="43.33809" lon="-1.60213">
        <ele>89.54</ele>
        <time>2012-08-18T08:37:26Z</time>
      </trkpt>
      <trkpt lat="43.33812" lon="-1.60216">
        <ele>89.06</ele>
        <time>2012-08-18T08:37:27Z</time>
      </trkpt>
      <trkpt lat="43.33815" lon="-1.60219">
        <ele>89.06</ele>
        <time>2012-08-18T08:37:28Z</time>
      </trkpt>
      <trkpt lat="43.33818" lon="-1.6022">
        <ele>89.54</ele>
        <time>2012-08-18T08:37:29Z</time>
      </trkpt>
      <trkpt lat="43.3382" lon="-1.60222">
        <ele>89.54</ele>
        <time>2012-08-18T08:37:30Z</time>
      </trkpt>
      <trkpt lat="43.33822" lon="-1.60223">
        <ele>90.02</ele>
        <time>2012-08-18T08:37:31Z</time>
      </trkpt>
      <trkpt lat="43.33825" lon="-1.60224">
        <ele>89.54</ele>
        <time>2012-08-18T08:37:32Z</time>
      </trkpt>
      <trkpt lat="43.33828" lon="-1.60225">
        <ele>89.54</ele>
        <time>2012-08-18T08:37:33Z</time>
      </trkpt>
      <trkpt lat="43.3383" lon="-1.60225">
        <ele>90.5</ele>
        <time>2012-08-18T08:37:34Z</time>
      </trkpt>
      <trkpt lat="43.33862" lon="-1.6023">
        <ele>88.1</ele>
        <time>2012-08-18T08:37:44Z</time>
      </trkpt>
      <trkpt lat="43.3389" lon="-1.60239">
        <ele>85.21</ele>
        <time>2012-08-18T08:37:52Z</time>
      </trkpt>
      <trkpt lat="43.33894" lon="-1.60243">
        <ele>84.25</ele>
        <time>2012-08-18T08:37:53Z</time>
      </trkpt>
      <trkpt lat="43.339" lon="-1.60244">
        <ele>84.25</ele>
        <time>2012-08-18T08:37:54Z</time>
      </trkpt>
      <trkpt lat="43.33905" lon="-1.60246">
        <ele>83.77</ele>
        <time>2012-08-18T08:37:55Z</time>
      </trkpt>
      <trkpt lat="43.3391" lon="-1.60249">
        <ele>83.77</ele>
        <time>2012-08-18T08:37:56Z</time>
      </trkpt>
      <trkpt lat="43.33916" lon="-1.6025">
        <ele>83.77</ele>
        <time>2012-08-18T08:37:57Z</time>
      </trkpt>
      <trkpt lat="43.33921" lon="-1.60251">
        <ele>83.77</ele>
        <time>2012-08-18T08:37:58Z</time>
      </trkpt>
      <trkpt lat="43.33926" lon="-1.60253">
        <ele>83.77</ele>
        <time>2012-08-18T08:37:59Z</time>
      </trkpt>
      <trkpt lat="43.33963" lon="-1.6028">
        <ele>81.37</ele>
        <time>2012-08-18T08:38:09Z</time>
      </trkpt>
      <trkpt lat="43.33967" lon="-1.60284">
        <ele>80.41</ele>
        <time>2012-08-18T08:38:10Z</time>
      </trkpt>
      <trkpt lat="43.33977" lon="-1.60288">
        <ele>80.89</ele>
        <time>2012-08-18T08:38:12Z</time>
      </trkpt>
      <trkpt lat="43.3399" lon="-1.60287">
        <ele>80.41</ele>
        <time>2012-08-18T08:38:15Z</time>
      </trkpt>
      <trkpt lat="43.33994" lon="-1.60285">
        <ele>79.45</ele>
        <time>2012-08-18T08:38:16Z</time>
      </trkpt>
      <trkpt lat="43.33998" lon="-1.60283">
        <ele>79.45</ele>
        <time>2012-08-18T08:38:17Z</time>
      </trkpt>
      <trkpt lat="43.34031" lon="-1.60289">
        <ele>79.45</ele>
        <time>2012-08-18T08:38:27Z</time>
      </trkpt>
      <trkpt lat="43.34063" lon="-1.60317">
        <ele>78.48</ele>
        <time>2012-08-18T08:38:37Z</time>
      </trkpt>
      <trkpt lat="43.34067" lon="-1.60322">
        <ele>78.97</ele>
        <time>2012-08-18T08:38:38Z</time>
      </trkpt>
      <trkpt lat="43.3407" lon="-1.60326">
        <ele>78.48</ele>
        <time>2012-08-18T08:38:39Z</time>
      </trkpt>
      <trkpt lat="43.34082" lon="-1.6034">
        <ele>78.48</ele>
        <time>2012-08-18T08:38:43Z</time>
      </trkpt>
      <trkpt lat="43.34088" lon="-1.60347">
        <ele>78</ele>
        <time>2012-08-18T08:38:45Z</time>
      </trkpt>
      <trkpt lat="43.34091" lon="-1.60351">
        <ele>78</ele>
        <time>2012-08-18T08:38:46Z</time>
      </trkpt>
      <trkpt lat="43.34095" lon="-1.60356">
        <ele>78</ele>
        <time>2012-08-18T08:38:47Z</time>
      </trkpt>
      <trkpt lat="43.34098" lon="-1.6036">
        <ele>78</ele>
        <time>2012-08-18T08:38:48Z</time>
      </trkpt>
      <trkpt lat="43.34101" lon="-1.60363">
        <ele>77.52</ele>
        <time>2012-08-18T08:38:49Z</time>
      </trkpt>
      <trkpt lat="43.34105" lon="-1.60365">
        <ele>77.04</ele>
        <time>2012-08-18T08:38:50Z</time>
      </trkpt>
      <trkpt lat="43.34108" lon="-1.60366">
        <ele>76.56</ele>
        <time>2012-08-18T08:38:51Z</time>
      </trkpt>
      <trkpt lat="43.3411" lon="-1.60367">
        <ele>76.08</ele>
        <time>2012-08-18T08:38:52Z</time>
      </trkpt>
      <trkpt lat="43.34114" lon="-1.6037">
        <ele>76.08</ele>
        <time>2012-08-18T08:38:53Z</time>
      </trkpt>
      <trkpt lat="43.34116" lon="-1.60373">
        <ele>75.12</ele>
        <time>2012-08-18T08:38:54Z</time>
      </trkpt>
      <trkpt lat="43.34119" lon="-1.60377">
        <ele>75.12</ele>
        <time>2012-08-18T08:38:55Z</time>
      </trkpt>
      <trkpt lat="43.3412" lon="-1.60383">
        <ele>74.64</ele>
        <time>2012-08-18T08:38:56Z</time>
      </trkpt>
      <trkpt lat="43.34121" lon="-1.60389">
        <ele>73.68</ele>
        <time>2012-08-18T08:38:57Z</time>
      </trkpt>
      <trkpt lat="43.34126" lon="-1.6041">
        <ele>72.72</ele>
        <time>2012-08-18T08:39:00Z</time>
      </trkpt>
      <trkpt lat="43.34132" lon="-1.60426">
        <ele>74.16</ele>
        <time>2012-08-18T08:39:03Z</time>
      </trkpt>
      <trkpt lat="43.34135" lon="-1.60428">
        <ele>74.16</ele>
        <time>2012-08-18T08:39:04Z</time>
      </trkpt>
      <trkpt lat="43.34146" lon="-1.60438">
        <ele>73.2</ele>
        <time>2012-08-18T08:39:08Z</time>
      </trkpt>
      <trkpt lat="43.34149" lon="-1.60441">
        <ele>72.72</ele>
        <time>2012-08-18T08:39:09Z</time>
      </trkpt>
      <trkpt lat="43.34152" lon="-1.60446">
        <ele>72.72</ele>
        <time>2012-08-18T08:39:10Z</time>
      </trkpt>
      <trkpt lat="43.34155" lon="-1.60451">
        <ele>71.76</ele>
        <time>2012-08-18T08:39:11Z</time>
      </trkpt>
      <trkpt lat="43.34157" lon="-1.60456">
        <ele>72.24</ele>
        <time>2012-08-18T08:39:12Z</time>
      </trkpt>
      <trkpt lat="43.34162" lon="-1.60467">
        <ele>71.76</ele>
        <time>2012-08-18T08:39:14Z</time>
      </trkpt>
      <trkpt lat="43.34164" lon="-1.60472">
        <ele>71.76</ele>
        <time>2012-08-18T08:39:15Z</time>
      </trkpt>
      <trkpt lat="43.34166" lon="-1.60476">
        <ele>71.27</ele>
        <time>2012-08-18T08:39:16Z</time>
      </trkpt>
      <trkpt lat="43.34168" lon="-1.60481">
        <ele>70.79</ele>
        <time>2012-08-18T08:39:17Z</time>
      </trkpt>
      <trkpt lat="43.34171" lon="-1.60486">
        <ele>71.27</ele>
        <time>2012-08-18T08:39:18Z</time>
      </trkpt>
      <trkpt lat="43.34173" lon="-1.60491">
        <ele>70.79</ele>
        <time>2012-08-18T08:39:19Z</time>
      </trkpt>
      <trkpt lat="43.34176" lon="-1.60496">
        <ele>70.79</ele>
        <time>2012-08-18T08:39:20Z</time>
      </trkpt>
      <trkpt lat="43.34189" lon="-1.60522">
        <ele>69.35</ele>
        <time>2012-08-18T08:39:26Z</time>
      </trkpt>
      <trkpt lat="43.34191" lon="-1.60523">
        <ele>69.35</ele>
        <time>2012-08-18T08:39:27Z</time>
      </trkpt>
      <trkpt lat="43.34193" lon="-1.60523">
        <ele>68.87</ele>
        <time>2012-08-18T08:39:28Z</time>
      </trkpt>
      <trkpt lat="43.34195" lon="-1.60525">
        <ele>68.39</ele>
        <time>2012-08-18T08:39:29Z</time>
      </trkpt>
      <trkpt lat="43.34197" lon="-1.60526">
        <ele>68.39</ele>
        <time>2012-08-18T08:39:30Z</time>
      </trkpt>
      <trkpt lat="43.34199" lon="-1.60529">
        <ele>68.39</ele>
        <time>2012-08-18T08:39:31Z</time>
      </trkpt>
      <trkpt lat="43.34201" lon="-1.60531">
        <ele>67.43</ele>
        <time>2012-08-18T08:39:32Z</time>
      </trkpt>
      <trkpt lat="43.34203" lon="-1.60533">
        <ele>68.39</ele>
        <time>2012-08-18T08:39:33Z</time>
      </trkpt>
      <trkpt lat="43.34204" lon="-1.60536">
        <ele>68.39</ele>
        <time>2012-08-18T08:39:34Z</time>
      </trkpt>
      <trkpt lat="43.34205" lon="-1.60538">
        <ele>67.91</ele>
        <time>2012-08-18T08:39:35Z</time>
      </trkpt>
      <trkpt lat="43.34212" lon="-1.60569">
        <ele>67.91</ele>
        <time>2012-08-18T08:39:43Z</time>
      </trkpt>
      <trkpt lat="43.34215" lon="-1.60573">
        <ele>67.43</ele>
        <time>2012-08-18T08:39:44Z</time>
      </trkpt>
      <trkpt lat="43.34218" lon="-1.60576">
        <ele>67.91</ele>
        <time>2012-08-18T08:39:45Z</time>
      </trkpt>
      <trkpt lat="43.3422" lon="-1.6058">
        <ele>67.43</ele>
        <time>2012-08-18T08:39:46Z</time>
      </trkpt>
      <trkpt lat="43.34223" lon="-1.60584">
        <ele>66.47</ele>
        <time>2012-08-18T08:39:47Z</time>
      </trkpt>
      <trkpt lat="43.34225" lon="-1.6059">
        <ele>66.47</ele>
        <time>2012-08-18T08:39:48Z</time>
      </trkpt>
      <trkpt lat="43.34228" lon="-1.60595">
        <ele>66.47</ele>
        <time>2012-08-18T08:39:49Z</time>
      </trkpt>
      <trkpt lat="43.34234" lon="-1.60605">
        <ele>65.51</ele>
        <time>2012-08-18T08:39:51Z</time>
      </trkpt>
      <trkpt lat="43.34237" lon="-1.60609">
        <ele>65.51</ele>
        <time>2012-08-18T08:39:52Z</time>
      </trkpt>
      <trkpt lat="43.3424" lon="-1.60613">
        <ele>65.51</ele>
        <time>2012-08-18T08:39:53Z</time>
      </trkpt>
      <trkpt lat="43.34243" lon="-1.60615">
        <ele>65.03</ele>
        <time>2012-08-18T08:39:54Z</time>
      </trkpt>
      <trkpt lat="43.34245" lon="-1.60619">
        <ele>65.03</ele>
        <time>2012-08-18T08:39:55Z</time>
      </trkpt>
      <trkpt lat="43.34246" lon="-1.60621">
        <ele>64.55</ele>
        <time>2012-08-18T08:39:56Z</time>
      </trkpt>
      <trkpt lat="43.34248" lon="-1.60623">
        <ele>64.55</ele>
        <time>2012-08-18T08:39:57Z</time>
      </trkpt>
      <trkpt lat="43.34249" lon="-1.60626">
        <ele>63.58</ele>
        <time>2012-08-18T08:39:58Z</time>
      </trkpt>
      <trkpt lat="43.3425" lon="-1.6063">
        <ele>63.1</ele>
        <time>2012-08-18T08:39:59Z</time>
      </trkpt>
      <trkpt lat="43.34252" lon="-1.60634">
        <ele>62.14</ele>
        <time>2012-08-18T08:40:00Z</time>
      </trkpt>
      <trkpt lat="43.34254" lon="-1.60639">
        <ele>61.66</ele>
        <time>2012-08-18T08:40:01Z</time>
      </trkpt>
      <trkpt lat="43.34256" lon="-1.60644">
        <ele>61.66</ele>
        <time>2012-08-18T08:40:02Z</time>
      </trkpt>
      <trkpt lat="43.34257" lon="-1.60649">
        <ele>61.66</ele>
        <time>2012-08-18T08:40:03Z</time>
      </trkpt>
      <trkpt lat="43.34261" lon="-1.60657">
        <ele>61.66</ele>
        <time>2012-08-18T08:40:05Z</time>
      </trkpt>
      <trkpt lat="43.34263" lon="-1.6066">
        <ele>62.14</ele>
        <time>2012-08-18T08:40:06Z</time>
      </trkpt>
      <trkpt lat="43.34264" lon="-1.60663">
        <ele>62.62</ele>
        <time>2012-08-18T08:40:07Z</time>
      </trkpt>
      <trkpt lat="43.34286" lon="-1.60694">
        <ele>62.14</ele>
        <time>2012-08-18T08:40:17Z</time>
      </trkpt>
      <trkpt lat="43.34302" lon="-1.60707">
        <ele>62.14</ele>
        <time>2012-08-18T08:40:22Z</time>
      </trkpt>
      <trkpt lat="43.34311" lon="-1.6071">
        <ele>61.66</ele>
        <time>2012-08-18T08:40:24Z</time>
      </trkpt>
      <trkpt lat="43.34324" lon="-1.60719">
        <ele>60.7</ele>
        <time>2012-08-18T08:40:27Z</time>
      </trkpt>
      <trkpt lat="43.34342" lon="-1.60734">
        <ele>58.78</ele>
        <time>2012-08-18T08:40:31Z</time>
      </trkpt>
      <trkpt lat="43.34346" lon="-1.6074">
        <ele>58.78</ele>
        <time>2012-08-18T08:40:32Z</time>
      </trkpt>
      <trkpt lat="43.34359" lon="-1.60763">
        <ele>57.82</ele>
        <time>2012-08-18T08:40:36Z</time>
      </trkpt>
      <trkpt lat="43.34369" lon="-1.60779">
        <ele>57.82</ele>
        <time>2012-08-18T08:40:39Z</time>
      </trkpt>
      <trkpt lat="43.34372" lon="-1.60785">
        <ele>57.82</ele>
        <time>2012-08-18T08:40:40Z</time>
      </trkpt>
      <trkpt lat="43.34381" lon="-1.60813">
        <ele>57.34</ele>
        <time>2012-08-18T08:40:45Z</time>
      </trkpt>
      <trkpt lat="43.34384" lon="-1.60817">
        <ele>56.86</ele>
        <time>2012-08-18T08:40:46Z</time>
      </trkpt>
      <trkpt lat="43.34387" lon="-1.60822">
        <ele>56.86</ele>
        <time>2012-08-18T08:40:47Z</time>
      </trkpt>
      <trkpt lat="43.3439" lon="-1.60826">
        <ele>56.37</ele>
        <time>2012-08-18T08:40:48Z</time>
      </trkpt>
      <trkpt lat="43.34393" lon="-1.60831">
        <ele>56.37</ele>
        <time>2012-08-18T08:40:49Z</time>
      </trkpt>
      <trkpt lat="43.34397" lon="-1.60836">
        <ele>55.89</ele>
        <time>2012-08-18T08:40:50Z</time>
      </trkpt>
      <trkpt lat="43.34401" lon="-1.6084">
        <ele>55.41</ele>
        <time>2012-08-18T08:40:51Z</time>
      </trkpt>
      <trkpt lat="43.34406" lon="-1.60845">
        <ele>54.93</ele>
        <time>2012-08-18T08:40:52Z</time>
      </trkpt>
      <trkpt lat="43.3441" lon="-1.6085">
        <ele>54.45</ele>
        <time>2012-08-18T08:40:53Z</time>
      </trkpt>
      <trkpt lat="43.34422" lon="-1.60867">
        <ele>53.49</ele>
        <time>2012-08-18T08:40:56Z</time>
      </trkpt>
      <trkpt lat="43.34439" lon="-1.60903">
        <ele>51.09</ele>
        <time>2012-08-18T08:41:01Z</time>
      </trkpt>
      <trkpt lat="43.34441" lon="-1.60911">
        <ele>50.61</ele>
        <time>2012-08-18T08:41:02Z</time>
      </trkpt>
      <trkpt lat="43.34444" lon="-1.60925">
        <ele>51.09</ele>
        <time>2012-08-18T08:41:04Z</time>
      </trkpt>
      <trkpt lat="43.34447" lon="-1.60932">
        <ele>50.61</ele>
        <time>2012-08-18T08:41:05Z</time>
      </trkpt>
      <trkpt lat="43.34451" lon="-1.60936">
        <ele>50.61</ele>
        <time>2012-08-18T08:41:06Z</time>
      </trkpt>
      <trkpt lat="43.34453" lon="-1.6094">
        <ele>51.09</ele>
        <time>2012-08-18T08:41:07Z</time>
      </trkpt>
      <trkpt lat="43.34453" lon="-1.60945">
        <ele>51.09</ele>
        <time>2012-08-18T08:41:08Z</time>
      </trkpt>
      <trkpt lat="43.34453" lon="-1.6095">
        <ele>50.61</ele>
        <time>2012-08-18T08:41:09Z</time>
      </trkpt>
      <trkpt lat="43.34454" lon="-1.60956">
        <ele>50.13</ele>
        <time>2012-08-18T08:41:10Z</time>
      </trkpt>
      <trkpt lat="43.34455" lon="-1.60962">
        <ele>50.13</ele>
        <time>2012-08-18T08:41:11Z</time>
      </trkpt>
      <trkpt lat="43.34457" lon="-1.60968">
        <ele>50.61</ele>
        <time>2012-08-18T08:41:12Z</time>
      </trkpt>
      <trkpt lat="43.34459" lon="-1.60973">
        <ele>51.09</ele>
        <time>2012-08-18T08:41:13Z</time>
      </trkpt>
      <trkpt lat="43.34464" lon="-1.60981">
        <ele>51.09</ele>
        <time>2012-08-18T08:41:15Z</time>
      </trkpt>
      <trkpt lat="43.34466" lon="-1.60986">
        <ele>51.09</ele>
        <time>2012-08-18T08:41:16Z</time>
      </trkpt>
      <trkpt lat="43.34471" lon="-1.60999">
        <ele>50.13</ele>
        <time>2012-08-18T08:41:18Z</time>
      </trkpt>
      <trkpt lat="43.34476" lon="-1.61004">
        <ele>49.65</ele>
        <time>2012-08-18T08:41:19Z</time>
      </trkpt>
      <trkpt lat="43.3448" lon="-1.6101">
        <ele>49.16</ele>
        <time>2012-08-18T08:41:20Z</time>
      </trkpt>
      <trkpt lat="43.34484" lon="-1.61016">
        <ele>48.68</ele>
        <time>2012-08-18T08:41:21Z</time>
      </trkpt>
      <trkpt lat="43.34488" lon="-1.61022">
        <ele>48.68</ele>
        <time>2012-08-18T08:41:22Z</time>
      </trkpt>
      <trkpt lat="43.34493" lon="-1.61028">
        <ele>48.2</ele>
        <time>2012-08-18T08:41:23Z</time>
      </trkpt>
      <trkpt lat="43.34496" lon="-1.61034">
        <ele>47.72</ele>
        <time>2012-08-18T08:41:24Z</time>
      </trkpt>
      <trkpt lat="43.34497" lon="-1.61041">
        <ele>47.72</ele>
        <time>2012-08-18T08:41:25Z</time>
      </trkpt>
      <trkpt lat="43.34499" lon="-1.61049">
        <ele>47.24</ele>
        <time>2012-08-18T08:41:26Z</time>
      </trkpt>
      <trkpt lat="43.34499" lon="-1.61056">
        <ele>47.24</ele>
        <time>2012-08-18T08:41:27Z</time>
      </trkpt>
      <trkpt lat="43.345" lon="-1.61063">
        <ele>46.28</ele>
        <time>2012-08-18T08:41:28Z</time>
      </trkpt>
      <trkpt lat="43.34502" lon="-1.61069">
        <ele>45.8</ele>
        <time>2012-08-18T08:41:29Z</time>
      </trkpt>
      <trkpt lat="43.34504" lon="-1.61075">
        <ele>46.28</ele>
        <time>2012-08-18T08:41:30Z</time>
      </trkpt>
      <trkpt lat="43.34506" lon="-1.61078">
        <ele>46.76</ele>
        <time>2012-08-18T08:41:31Z</time>
      </trkpt>
      <trkpt lat="43.34509" lon="-1.61081">
        <ele>47.24</ele>
        <time>2012-08-18T08:41:32Z</time>
      </trkpt>
      <trkpt lat="43.34511" lon="-1.61084">
        <ele>46.76</ele>
        <time>2012-08-18T08:41:33Z</time>
      </trkpt>
      <trkpt lat="43.34514" lon="-1.61088">
        <ele>45.32</ele>
        <time>2012-08-18T08:41:34Z</time>
      </trkpt>
      <trkpt lat="43.34517" lon="-1.61092">
        <ele>44.36</ele>
        <time>2012-08-18T08:41:35Z</time>
      </trkpt>
      <trkpt lat="43.34521" lon="-1.61098">
        <ele>42.92</ele>
        <time>2012-08-18T08:41:36Z</time>
      </trkpt>
      <trkpt lat="43.34525" lon="-1.61104">
        <ele>42.44</ele>
        <time>2012-08-18T08:41:37Z</time>
      </trkpt>
      <trkpt lat="43.34529" lon="-1.61114">
        <ele>42.44</ele>
        <time>2012-08-18T08:41:38Z</time>
      </trkpt>
      <trkpt lat="43.34531" lon="-1.61123">
        <ele>42.44</ele>
        <time>2012-08-18T08:41:39Z</time>
      </trkpt>
      <trkpt lat="43.34531" lon="-1.6113">
        <ele>43.4</ele>
        <time>2012-08-18T08:41:40Z</time>
      </trkpt>
      <trkpt lat="43.34532" lon="-1.61138">
        <ele>43.4</ele>
        <time>2012-08-18T08:41:41Z</time>
      </trkpt>
      <trkpt lat="43.34522" lon="-1.61185">
        <ele>44.84</ele>
        <time>2012-08-18T08:41:51Z</time>
      </trkpt>
      <trkpt lat="43.34508" lon="-1.61228">
        <ele>45.8</ele>
        <time>2012-08-18T08:42:01Z</time>
      </trkpt>
      <trkpt lat="43.34513" lon="-1.61267">
        <ele>46.76</ele>
        <time>2012-08-18T08:42:11Z</time>
      </trkpt>
      <trkpt lat="43.34514" lon="-1.61274">
        <ele>46.76</ele>
        <time>2012-08-18T08:42:13Z</time>
      </trkpt>
      <trkpt lat="43.34514" lon="-1.61278">
        <ele>46.76</ele>
        <time>2012-08-18T08:42:14Z</time>
      </trkpt>
      <trkpt lat="43.34515" lon="-1.61282">
        <ele>46.76</ele>
        <time>2012-08-18T08:42:15Z</time>
      </trkpt>
      <trkpt lat="43.3452" lon="-1.6131">
        <ele>46.28</ele>
        <time>2012-08-18T08:42:21Z</time>
      </trkpt>
      <trkpt lat="43.34523" lon="-1.61314">
        <ele>45.32</ele>
        <time>2012-08-18T08:42:22Z</time>
      </trkpt>
      <trkpt lat="43.34525" lon="-1.61319">
        <ele>44.84</ele>
        <time>2012-08-18T08:42:23Z</time>
      </trkpt>
      <trkpt lat="43.34527" lon="-1.61325">
        <ele>43.88</ele>
        <time>2012-08-18T08:42:24Z</time>
      </trkpt>
      <trkpt lat="43.3453" lon="-1.6133">
        <ele>43.4</ele>
        <time>2012-08-18T08:42:25Z</time>
      </trkpt>
      <trkpt lat="43.34533" lon="-1.61336">
        <ele>42.44</ele>
        <time>2012-08-18T08:42:26Z</time>
      </trkpt>
      <trkpt lat="43.34538" lon="-1.61342">
        <ele>42.92</ele>
        <time>2012-08-18T08:42:27Z</time>
      </trkpt>
      <trkpt lat="43.34542" lon="-1.61349">
        <ele>42.44</ele>
        <time>2012-08-18T08:42:28Z</time>
      </trkpt>
      <trkpt lat="43.34552" lon="-1.61364">
        <ele>41.95</ele>
        <time>2012-08-18T08:42:30Z</time>
      </trkpt>
      <trkpt lat="43.34557" lon="-1.61369">
        <ele>41.95</ele>
        <time>2012-08-18T08:42:31Z</time>
      </trkpt>
      <trkpt lat="43.3456" lon="-1.61375">
        <ele>41.95</ele>
        <time>2012-08-18T08:42:32Z</time>
      </trkpt>
      <trkpt lat="43.34565" lon="-1.61391">
        <ele>40.99</ele>
        <time>2012-08-18T08:42:34Z</time>
      </trkpt>
      <trkpt lat="43.34567" lon="-1.61399">
        <ele>40.51</ele>
        <time>2012-08-18T08:42:35Z</time>
      </trkpt>
      <trkpt lat="43.34568" lon="-1.61407">
        <ele>39.55</ele>
        <time>2012-08-18T08:42:36Z</time>
      </trkpt>
      <trkpt lat="43.3457" lon="-1.61416">
        <ele>38.59</ele>
        <time>2012-08-18T08:42:37Z</time>
      </trkpt>
      <trkpt lat="43.34571" lon="-1.61426">
        <ele>37.15</ele>
        <time>2012-08-18T08:42:38Z</time>
      </trkpt>
      <trkpt lat="43.34572" lon="-1.61437">
        <ele>35.23</ele>
        <time>2012-08-18T08:42:39Z</time>
      </trkpt>
      <trkpt lat="43.34573" lon="-1.61463">
        <ele>31.86</ele>
        <time>2012-08-18T08:42:41Z</time>
      </trkpt>
      <trkpt lat="43.3457" lon="-1.6151">
        <ele>28.5</ele>
        <time>2012-08-18T08:42:44Z</time>
      </trkpt>
      <trkpt lat="43.3457" lon="-1.61526">
        <ele>27.53</ele>
        <time>2012-08-18T08:42:45Z</time>
      </trkpt>
      <trkpt lat="43.3457" lon="-1.61542">
        <ele>27.05</ele>
        <time>2012-08-18T08:42:46Z</time>
      </trkpt>
      <trkpt lat="43.34574" lon="-1.61555">
        <ele>26.09</ele>
        <time>2012-08-18T08:42:47Z</time>
      </trkpt>
      <trkpt lat="43.3458" lon="-1.61568">
        <ele>24.65</ele>
        <time>2012-08-18T08:42:48Z</time>
      </trkpt>
      <trkpt lat="43.34586" lon="-1.61581">
        <ele>24.17</ele>
        <time>2012-08-18T08:42:49Z</time>
      </trkpt>
      <trkpt lat="43.3459" lon="-1.61596">
        <ele>23.69</ele>
        <time>2012-08-18T08:42:50Z</time>
      </trkpt>
      <trkpt lat="43.34592" lon="-1.61611">
        <ele>22.25</ele>
        <time>2012-08-18T08:42:51Z</time>
      </trkpt>
      <trkpt lat="43.34593" lon="-1.61626">
        <ele>21.29</ele>
        <time>2012-08-18T08:42:52Z</time>
      </trkpt>
      <trkpt lat="43.34595" lon="-1.61641">
        <ele>20.32</ele>
        <time>2012-08-18T08:42:53Z</time>
      </trkpt>
      <trkpt lat="43.34599" lon="-1.61655">
        <ele>20.32</ele>
        <time>2012-08-18T08:42:54Z</time>
      </trkpt>
      <trkpt lat="43.34604" lon="-1.61667">
        <ele>19.36</ele>
        <time>2012-08-18T08:42:55Z</time>
      </trkpt>
      <trkpt lat="43.3461" lon="-1.61679">
        <ele>19.36</ele>
        <time>2012-08-18T08:42:56Z</time>
      </trkpt>
      <trkpt lat="43.34614" lon="-1.61691">
        <ele>19.36</ele>
        <time>2012-08-18T08:42:57Z</time>
      </trkpt>
      <trkpt lat="43.34615" lon="-1.617">
        <ele>20.32</ele>
        <time>2012-08-18T08:42:58Z</time>
      </trkpt>
      <trkpt lat="43.34616" lon="-1.61707">
        <ele>20.32</ele>
        <time>2012-08-18T08:42:59Z</time>
      </trkpt>
      <trkpt lat="43.34616" lon="-1.61712">
        <ele>20.81</ele>
        <time>2012-08-18T08:43:00Z</time>
      </trkpt>
      <trkpt lat="43.34618" lon="-1.61716">
        <ele>21.29</ele>
        <time>2012-08-18T08:43:01Z</time>
      </trkpt>
      <trkpt lat="43.3462" lon="-1.61719">
        <ele>20.81</ele>
        <time>2012-08-18T08:43:02Z</time>
      </trkpt>
      <trkpt lat="43.34623" lon="-1.61719">
        <ele>20.32</ele>
        <time>2012-08-18T08:43:03Z</time>
      </trkpt>
      <trkpt lat="43.34627" lon="-1.61718">
        <ele>20.32</ele>
        <time>2012-08-18T08:43:04Z</time>
      </trkpt>
      <trkpt lat="43.34631" lon="-1.61718">
        <ele>20.32</ele>
        <time>2012-08-18T08:43:05Z</time>
      </trkpt>
      <trkpt lat="43.34642" lon="-1.61721">
        <ele>20.32</ele>
        <time>2012-08-18T08:43:08Z</time>
      </trkpt>
      <trkpt lat="43.34645" lon="-1.61724">
        <ele>19.84</ele>
        <time>2012-08-18T08:43:09Z</time>
      </trkpt>
      <trkpt lat="43.34696" lon="-1.61782">
        <ele>18.88</ele>
        <time>2012-08-18T08:43:27Z</time>
      </trkpt>
      <trkpt lat="43.34704" lon="-1.61788">
        <ele>19.36</ele>
        <time>2012-08-18T08:43:33Z</time>
      </trkpt>
      <trkpt lat="43.34705" lon="-1.61788">
        <ele>19.36</ele>
        <time>2012-08-18T08:43:34Z</time>
      </trkpt>
      <trkpt lat="43.34706" lon="-1.61789">
        <ele>19.36</ele>
        <time>2012-08-18T08:43:35Z</time>
      </trkpt>
      <trkpt lat="43.34705" lon="-1.61792">
        <ele>19.36</ele>
        <time>2012-08-18T08:43:36Z</time>
      </trkpt>
      <trkpt lat="43.34704" lon="-1.61795">
        <ele>19.36</ele>
        <time>2012-08-18T08:43:41Z</time>
      </trkpt>
      <trkpt lat="43.34696" lon="-1.61791">
        <ele>18.88</ele>
        <time>2012-08-18T08:43:45Z</time>
      </trkpt>
      <trkpt lat="43.34697" lon="-1.61783">
        <ele>19.36</ele>
        <time>2012-08-18T08:43:54Z</time>
      </trkpt>
      <trkpt lat="43.34698" lon="-1.61782">
        <ele>19.36</ele>
        <time>2012-08-18T08:44:16Z</time>
      </trkpt>
      <trkpt lat="43.34698" lon="-1.61783">
        <ele>19.36</ele>
        <time>2012-08-18T08:44:22Z</time>
      </trkpt>
      <trkpt lat="43.34698" lon="-1.61784">
        <ele>18.88</ele>
        <time>2012-08-18T08:44:37Z</time>
      </trkpt>
      <trkpt lat="43.34697" lon="-1.61784">
        <ele>18.88</ele>
        <time>2012-08-18T08:45:14Z</time>
      </trkpt>
      <trkpt lat="43.34695" lon="-1.61785">
        <ele>18.88</ele>
        <time>2012-08-18T08:45:57Z</time>
      </trkpt>
      <trkpt lat="43.34699" lon="-1.61772">
        <ele>3.5</ele>
        <time>2012-08-18T08:47:23Z</time>
      </trkpt>
      <trkpt lat="43.34697" lon="-1.61776">
        <ele>3.5</ele>
        <time>2012-08-18T08:47:24Z</time>
      </trkpt>
      <trkpt lat="43.34698" lon="-1.61786">
        <ele>7.83</ele>
        <time>2012-08-18T08:47:42Z</time>
      </trkpt>
      <trkpt lat="43.34698" lon="-1.61786">
        <ele>7.83</ele>
        <time>2012-08-18T08:47:43Z</time>
      </trkpt>
    </trkseg>
  </trk>
</gpx>